<?xml version="1.0" encoding="UTF-8" standalone="no" ?>
<gpx xmlns="http://www.topografix.com/GPX/1/1" xmlns:xsi="http://www.w3.org/2001/XMLSchema-instance" xsi:schemaLocation="http://www.topografix.com/GPX/1/1 http://www.topografix.com/GPX/1/1/gpx.xsd" version="1.1" creator="VisuGPX - https://www.visugpx.com">
  <metadata>
    <name>Cap Nestes</name>
  </metadata>
  <trk>
    <name><![CDATA[2020-10-18 16:02:19]]></name>
    <trkseg>
      <trkpt lat="42.94384" lon="0.45688">
        <ele>1514.69</ele>
        <time>2020-10-18T06:50:33Z</time>
      </trkpt>
      <trkpt lat="42.94385" lon="0.45688">
        <ele>1514.69</ele>
        <time>2020-10-18T06:50:35Z</time>
      </trkpt>
      <trkpt lat="42.94387" lon="0.45692">
        <ele>1514.69</ele>
        <time>2020-10-18T06:50:50Z</time>
      </trkpt>
      <trkpt lat="42.94387" lon="0.4569">
        <ele>1514.69</ele>
        <time>2020-10-18T06:50:54Z</time>
      </trkpt>
      <trkpt lat="42.94388" lon="0.45689">
        <ele>1514.69</ele>
        <time>2020-10-18T06:51:09Z</time>
      </trkpt>
      <trkpt lat="42.94387" lon="0.45687">
        <ele>1518.54</ele>
        <time>2020-10-18T06:51:21Z</time>
      </trkpt>
      <trkpt lat="42.94387" lon="0.45687">
        <ele>1521.9</ele>
        <time>2020-10-18T06:51:23Z</time>
      </trkpt>
      <trkpt lat="42.94389" lon="0.45688">
        <ele>1525.27</ele>
        <time>2020-10-18T06:51:25Z</time>
      </trkpt>
      <trkpt lat="42.9439" lon="0.45688">
        <ele>1528.63</ele>
        <time>2020-10-18T06:51:27Z</time>
      </trkpt>
      <trkpt lat="42.94392" lon="0.45688">
        <ele>1532.48</ele>
        <time>2020-10-18T06:51:30Z</time>
      </trkpt>
      <trkpt lat="42.94393" lon="0.45688">
        <ele>1536.32</ele>
        <time>2020-10-18T06:51:33Z</time>
      </trkpt>
      <trkpt lat="42.94394" lon="0.45688">
        <ele>1539.69</ele>
        <time>2020-10-18T06:51:35Z</time>
      </trkpt>
      <trkpt lat="42.94395" lon="0.45688">
        <ele>1540.65</ele>
        <time>2020-10-18T06:51:37Z</time>
      </trkpt>
      <trkpt lat="42.94394" lon="0.45689">
        <ele>1544.5</ele>
        <time>2020-10-18T06:51:41Z</time>
      </trkpt>
      <trkpt lat="42.94395" lon="0.45689">
        <ele>1547.86</ele>
        <time>2020-10-18T06:51:46Z</time>
      </trkpt>
      <trkpt lat="42.94397" lon="0.45698">
        <ele>1551.22</ele>
        <time>2020-10-18T06:51:51Z</time>
      </trkpt>
      <trkpt lat="42.944" lon="0.45702">
        <ele>1555.07</ele>
        <time>2020-10-18T06:51:55Z</time>
      </trkpt>
      <trkpt lat="42.944" lon="0.45705">
        <ele>1559.4</ele>
        <time>2020-10-18T06:51:59Z</time>
      </trkpt>
      <trkpt lat="42.944" lon="0.45705">
        <ele>1561.32</ele>
        <time>2020-10-18T06:52:01Z</time>
      </trkpt>
      <trkpt lat="42.94401" lon="0.45704">
        <ele>1564.68</ele>
        <time>2020-10-18T06:52:05Z</time>
      </trkpt>
      <trkpt lat="42.94401" lon="0.45704">
        <ele>1568.05</ele>
        <time>2020-10-18T06:52:09Z</time>
      </trkpt>
      <trkpt lat="42.94401" lon="0.45704">
        <ele>1571.41</ele>
        <time>2020-10-18T06:52:14Z</time>
      </trkpt>
      <trkpt lat="42.944" lon="0.45703">
        <ele>1574.3</ele>
        <time>2020-10-18T06:52:20Z</time>
      </trkpt>
      <trkpt lat="42.944" lon="0.45704">
        <ele>1577.18</ele>
        <time>2020-10-18T06:52:28Z</time>
      </trkpt>
      <trkpt lat="42.944" lon="0.45703">
        <ele>1580.54</ele>
        <time>2020-10-18T06:52:44Z</time>
      </trkpt>
      <trkpt lat="42.944" lon="0.45701">
        <ele>1583.43</ele>
        <time>2020-10-18T06:53:02Z</time>
      </trkpt>
      <trkpt lat="42.94401" lon="0.457">
        <ele>1585.35</ele>
        <time>2020-10-18T06:53:21Z</time>
      </trkpt>
      <trkpt lat="42.94401" lon="0.45702">
        <ele>1581.99</ele>
        <time>2020-10-18T06:53:28Z</time>
      </trkpt>
      <trkpt lat="42.94402" lon="0.45702">
        <ele>1588.24</ele>
        <time>2020-10-18T06:53:29Z</time>
      </trkpt>
      <trkpt lat="42.94401" lon="0.45703">
        <ele>1584.87</ele>
        <time>2020-10-18T06:53:32Z</time>
      </trkpt>
      <trkpt lat="42.94402" lon="0.45705">
        <ele>1583.43</ele>
        <time>2020-10-18T06:53:52Z</time>
      </trkpt>
      <trkpt lat="42.94402" lon="0.45704">
        <ele>1586.31</ele>
        <time>2020-10-18T06:53:53Z</time>
      </trkpt>
      <trkpt lat="42.94402" lon="0.45704">
        <ele>1585.35</ele>
        <time>2020-10-18T06:53:55Z</time>
      </trkpt>
      <trkpt lat="42.94399" lon="0.45704">
        <ele>1584.39</ele>
        <time>2020-10-18T06:54:13Z</time>
      </trkpt>
      <trkpt lat="42.94401" lon="0.45704">
        <ele>1584.39</ele>
        <time>2020-10-18T06:54:37Z</time>
      </trkpt>
      <trkpt lat="42.944" lon="0.45703">
        <ele>1584.39</ele>
        <time>2020-10-18T06:55:01Z</time>
      </trkpt>
      <trkpt lat="42.94401" lon="0.45704">
        <ele>1584.39</ele>
        <time>2020-10-18T06:55:25Z</time>
      </trkpt>
      <trkpt lat="42.94405" lon="0.45704">
        <ele>1584.39</ele>
        <time>2020-10-18T06:55:49Z</time>
      </trkpt>
      <trkpt lat="42.94404" lon="0.45701">
        <ele>1585.35</ele>
        <time>2020-10-18T06:56:14Z</time>
      </trkpt>
      <trkpt lat="42.94403" lon="0.45696">
        <ele>1585.35</ele>
        <time>2020-10-18T06:56:33Z</time>
      </trkpt>
      <trkpt lat="42.94405" lon="0.4569">
        <ele>1585.35</ele>
        <time>2020-10-18T06:56:45Z</time>
      </trkpt>
      <trkpt lat="42.94405" lon="0.4569">
        <ele>1585.35</ele>
        <time>2020-10-18T06:56:48Z</time>
      </trkpt>
      <trkpt lat="42.94405" lon="0.45689">
        <ele>1585.35</ele>
        <time>2020-10-18T06:57:00Z</time>
      </trkpt>
      <trkpt lat="42.94405" lon="0.4569">
        <ele>1585.35</ele>
        <time>2020-10-18T06:57:24Z</time>
      </trkpt>
      <trkpt lat="42.94407" lon="0.45689">
        <ele>1585.83</ele>
        <time>2020-10-18T06:57:51Z</time>
      </trkpt>
      <trkpt lat="42.94407" lon="0.45689">
        <ele>1585.83</ele>
        <time>2020-10-18T06:58:23Z</time>
      </trkpt>
      <trkpt lat="42.94405" lon="0.45689">
        <ele>1585.83</ele>
        <time>2020-10-18T06:58:50Z</time>
      </trkpt>
      <trkpt lat="42.94404" lon="0.45688">
        <ele>1585.83</ele>
        <time>2020-10-18T06:59:22Z</time>
      </trkpt>
      <trkpt lat="42.94404" lon="0.4569">
        <ele>1585.83</ele>
        <time>2020-10-18T06:59:44Z</time>
      </trkpt>
      <trkpt lat="42.94405" lon="0.45687">
        <ele>1585.83</ele>
        <time>2020-10-18T07:00:06Z</time>
      </trkpt>
      <trkpt lat="42.94405" lon="0.45686">
        <ele>1585.83</ele>
        <time>2020-10-18T07:00:23Z</time>
      </trkpt>
      <trkpt lat="42.94405" lon="0.45684">
        <ele>1585.83</ele>
        <time>2020-10-18T07:00:42Z</time>
      </trkpt>
      <trkpt lat="42.94406" lon="0.45686">
        <ele>1586.31</ele>
        <time>2020-10-18T07:01:04Z</time>
      </trkpt>
      <trkpt lat="42.94406" lon="0.45683">
        <ele>1586.31</ele>
        <time>2020-10-18T07:01:20Z</time>
      </trkpt>
      <trkpt lat="42.94407" lon="0.45666">
        <ele>1586.31</ele>
        <time>2020-10-18T07:01:37Z</time>
      </trkpt>
      <trkpt lat="42.94406" lon="0.45661">
        <ele>1586.31</ele>
        <time>2020-10-18T07:01:41Z</time>
      </trkpt>
      <trkpt lat="42.94401" lon="0.45635">
        <ele>1586.79</ele>
        <time>2020-10-18T07:02:00Z</time>
      </trkpt>
      <trkpt lat="42.94398" lon="0.4563">
        <ele>1586.79</ele>
        <time>2020-10-18T07:02:14Z</time>
      </trkpt>
      <trkpt lat="42.94395" lon="0.45628">
        <ele>1586.79</ele>
        <time>2020-10-18T07:02:29Z</time>
      </trkpt>
      <trkpt lat="42.94394" lon="0.45619">
        <ele>1586.79</ele>
        <time>2020-10-18T07:02:43Z</time>
      </trkpt>
      <trkpt lat="42.9439" lon="0.45596">
        <ele>1586.79</ele>
        <time>2020-10-18T07:02:59Z</time>
      </trkpt>
      <trkpt lat="42.94393" lon="0.45582">
        <ele>1586.79</ele>
        <time>2020-10-18T07:03:08Z</time>
      </trkpt>
      <trkpt lat="42.9439" lon="0.45572">
        <ele>1586.79</ele>
        <time>2020-10-18T07:03:14Z</time>
      </trkpt>
      <trkpt lat="42.9439" lon="0.45545">
        <ele>1586.79</ele>
        <time>2020-10-18T07:03:31Z</time>
      </trkpt>
      <trkpt lat="42.94387" lon="0.45516">
        <ele>1586.79</ele>
        <time>2020-10-18T07:03:49Z</time>
      </trkpt>
      <trkpt lat="42.94375" lon="0.45498">
        <ele>1585.35</ele>
        <time>2020-10-18T07:04:05Z</time>
      </trkpt>
      <trkpt lat="42.94368" lon="0.45491">
        <ele>1584.87</ele>
        <time>2020-10-18T07:04:12Z</time>
      </trkpt>
      <trkpt lat="42.94366" lon="0.45485">
        <ele>1584.87</ele>
        <time>2020-10-18T07:04:16Z</time>
      </trkpt>
      <trkpt lat="42.94364" lon="0.45466">
        <ele>1585.35</ele>
        <time>2020-10-18T07:04:28Z</time>
      </trkpt>
      <trkpt lat="42.94363" lon="0.45461">
        <ele>1586.79</ele>
        <time>2020-10-18T07:04:32Z</time>
      </trkpt>
      <trkpt lat="42.94363" lon="0.45442">
        <ele>1587.75</ele>
        <time>2020-10-18T07:04:45Z</time>
      </trkpt>
      <trkpt lat="42.94362" lon="0.45437">
        <ele>1587.75</ele>
        <time>2020-10-18T07:04:50Z</time>
      </trkpt>
      <trkpt lat="42.94358" lon="0.45428">
        <ele>1588.24</ele>
        <time>2020-10-18T07:05:04Z</time>
      </trkpt>
      <trkpt lat="42.94358" lon="0.45421">
        <ele>1588.72</ele>
        <time>2020-10-18T07:05:16Z</time>
      </trkpt>
      <trkpt lat="42.94353" lon="0.4541">
        <ele>1590.64</ele>
        <time>2020-10-18T07:05:32Z</time>
      </trkpt>
      <trkpt lat="42.94347" lon="0.45402">
        <ele>1592.08</ele>
        <time>2020-10-18T07:05:46Z</time>
      </trkpt>
      <trkpt lat="42.94339" lon="0.45395">
        <ele>1594.48</ele>
        <time>2020-10-18T07:06:04Z</time>
      </trkpt>
      <trkpt lat="42.94331" lon="0.45393">
        <ele>1595.45</ele>
        <time>2020-10-18T07:06:18Z</time>
      </trkpt>
      <trkpt lat="42.94321" lon="0.45391">
        <ele>1597.37</ele>
        <time>2020-10-18T07:06:35Z</time>
      </trkpt>
      <trkpt lat="42.94312" lon="0.45388">
        <ele>1598.81</ele>
        <time>2020-10-18T07:06:49Z</time>
      </trkpt>
      <trkpt lat="42.94305" lon="0.4538">
        <ele>1600.73</ele>
        <time>2020-10-18T07:07:03Z</time>
      </trkpt>
      <trkpt lat="42.94301" lon="0.45368">
        <ele>1602.17</ele>
        <time>2020-10-18T07:07:17Z</time>
      </trkpt>
      <trkpt lat="42.94304" lon="0.45355">
        <ele>1603.62</ele>
        <time>2020-10-18T07:07:30Z</time>
      </trkpt>
      <trkpt lat="42.943" lon="0.45343">
        <ele>1604.58</ele>
        <time>2020-10-18T07:07:47Z</time>
      </trkpt>
      <trkpt lat="42.94296" lon="0.45333">
        <ele>1605.54</ele>
        <time>2020-10-18T07:08:02Z</time>
      </trkpt>
      <trkpt lat="42.94293" lon="0.45328">
        <ele>1606.5</ele>
        <time>2020-10-18T07:08:17Z</time>
      </trkpt>
      <trkpt lat="42.9429" lon="0.45323">
        <ele>1606.98</ele>
        <time>2020-10-18T07:08:31Z</time>
      </trkpt>
      <trkpt lat="42.94286" lon="0.45319">
        <ele>1609.38</ele>
        <time>2020-10-18T07:08:43Z</time>
      </trkpt>
      <trkpt lat="42.94285" lon="0.45316">
        <ele>1609.86</ele>
        <time>2020-10-18T07:08:46Z</time>
      </trkpt>
      <trkpt lat="42.94285" lon="0.45313">
        <ele>1609.86</ele>
        <time>2020-10-18T07:08:48Z</time>
      </trkpt>
      <trkpt lat="42.94285" lon="0.45302">
        <ele>1609.86</ele>
        <time>2020-10-18T07:09:00Z</time>
      </trkpt>
      <trkpt lat="42.94281" lon="0.45292">
        <ele>1611.79</ele>
        <time>2020-10-18T07:09:14Z</time>
      </trkpt>
      <trkpt lat="42.94276" lon="0.45286">
        <ele>1613.71</ele>
        <time>2020-10-18T07:09:28Z</time>
      </trkpt>
      <trkpt lat="42.94274" lon="0.45282">
        <ele>1614.67</ele>
        <time>2020-10-18T07:09:44Z</time>
      </trkpt>
      <trkpt lat="42.9427" lon="0.4528">
        <ele>1616.11</ele>
        <time>2020-10-18T07:09:58Z</time>
      </trkpt>
      <trkpt lat="42.94265" lon="0.45279">
        <ele>1619</ele>
        <time>2020-10-18T07:10:13Z</time>
      </trkpt>
      <trkpt lat="42.94255" lon="0.45275">
        <ele>1620.44</ele>
        <time>2020-10-18T07:10:27Z</time>
      </trkpt>
      <trkpt lat="42.94247" lon="0.45267">
        <ele>1621.88</ele>
        <time>2020-10-18T07:10:42Z</time>
      </trkpt>
      <trkpt lat="42.94246" lon="0.45253">
        <ele>1623.32</ele>
        <time>2020-10-18T07:10:57Z</time>
      </trkpt>
      <trkpt lat="42.94242" lon="0.45243">
        <ele>1625.25</ele>
        <time>2020-10-18T07:11:11Z</time>
      </trkpt>
      <trkpt lat="42.94232" lon="0.4524">
        <ele>1625.73</ele>
        <time>2020-10-18T07:11:26Z</time>
      </trkpt>
      <trkpt lat="42.94226" lon="0.45239">
        <ele>1626.69</ele>
        <time>2020-10-18T07:11:40Z</time>
      </trkpt>
      <trkpt lat="42.9422" lon="0.45242">
        <ele>1628.13</ele>
        <time>2020-10-18T07:11:56Z</time>
      </trkpt>
      <trkpt lat="42.94216" lon="0.45242">
        <ele>1629.57</ele>
        <time>2020-10-18T07:12:08Z</time>
      </trkpt>
      <trkpt lat="42.94213" lon="0.45242">
        <ele>1631.01</ele>
        <time>2020-10-18T07:12:22Z</time>
      </trkpt>
      <trkpt lat="42.94208" lon="0.4524">
        <ele>1631.98</ele>
        <time>2020-10-18T07:12:35Z</time>
      </trkpt>
      <trkpt lat="42.94204" lon="0.45236">
        <ele>1634.38</ele>
        <time>2020-10-18T07:12:49Z</time>
      </trkpt>
      <trkpt lat="42.94199" lon="0.45237">
        <ele>1636.3</ele>
        <time>2020-10-18T07:13:03Z</time>
      </trkpt>
      <trkpt lat="42.94192" lon="0.4524">
        <ele>1637.74</ele>
        <time>2020-10-18T07:13:17Z</time>
      </trkpt>
      <trkpt lat="42.94186" lon="0.4524">
        <ele>1639.19</ele>
        <time>2020-10-18T07:13:31Z</time>
      </trkpt>
      <trkpt lat="42.94179" lon="0.45237">
        <ele>1641.59</ele>
        <time>2020-10-18T07:13:48Z</time>
      </trkpt>
      <trkpt lat="42.94173" lon="0.45231">
        <ele>1643.51</ele>
        <time>2020-10-18T07:14:02Z</time>
      </trkpt>
      <trkpt lat="42.94168" lon="0.45227">
        <ele>1644.47</ele>
        <time>2020-10-18T07:14:15Z</time>
      </trkpt>
      <trkpt lat="42.94162" lon="0.45221">
        <ele>1645.91</ele>
        <time>2020-10-18T07:14:28Z</time>
      </trkpt>
      <trkpt lat="42.94153" lon="0.45215">
        <ele>1647.84</ele>
        <time>2020-10-18T07:14:44Z</time>
      </trkpt>
      <trkpt lat="42.94146" lon="0.45202">
        <ele>1649.76</ele>
        <time>2020-10-18T07:14:58Z</time>
      </trkpt>
      <trkpt lat="42.94138" lon="0.45191">
        <ele>1650.24</ele>
        <time>2020-10-18T07:15:13Z</time>
      </trkpt>
      <trkpt lat="42.94135" lon="0.45189">
        <ele>1650.24</ele>
        <time>2020-10-18T07:15:16Z</time>
      </trkpt>
      <trkpt lat="42.94124" lon="0.45182">
        <ele>1649.28</ele>
        <time>2020-10-18T07:15:29Z</time>
      </trkpt>
      <trkpt lat="42.94113" lon="0.45174">
        <ele>1648.32</ele>
        <time>2020-10-18T07:15:42Z</time>
      </trkpt>
      <trkpt lat="42.941" lon="0.45158">
        <ele>1648.32</ele>
        <time>2020-10-18T07:15:59Z</time>
      </trkpt>
      <trkpt lat="42.94091" lon="0.45147">
        <ele>1649.76</ele>
        <time>2020-10-18T07:16:11Z</time>
      </trkpt>
      <trkpt lat="42.94084" lon="0.45129">
        <ele>1651.2</ele>
        <time>2020-10-18T07:16:28Z</time>
      </trkpt>
      <trkpt lat="42.94082" lon="0.45118">
        <ele>1652.16</ele>
        <time>2020-10-18T07:16:44Z</time>
      </trkpt>
      <trkpt lat="42.94079" lon="0.45107">
        <ele>1654.09</ele>
        <time>2020-10-18T07:16:59Z</time>
      </trkpt>
      <trkpt lat="42.94078" lon="0.45098">
        <ele>1655.53</ele>
        <time>2020-10-18T07:17:13Z</time>
      </trkpt>
      <trkpt lat="42.94077" lon="0.45088">
        <ele>1657.93</ele>
        <time>2020-10-18T07:17:30Z</time>
      </trkpt>
      <trkpt lat="42.94074" lon="0.4508">
        <ele>1659.37</ele>
        <time>2020-10-18T07:17:44Z</time>
      </trkpt>
      <trkpt lat="42.94071" lon="0.4507">
        <ele>1661.78</ele>
        <time>2020-10-18T07:17:59Z</time>
      </trkpt>
      <trkpt lat="42.94067" lon="0.45055">
        <ele>1663.22</ele>
        <time>2020-10-18T07:18:16Z</time>
      </trkpt>
      <trkpt lat="42.9406" lon="0.45041">
        <ele>1664.18</ele>
        <time>2020-10-18T07:18:32Z</time>
      </trkpt>
      <trkpt lat="42.94059" lon="0.45027">
        <ele>1664.18</ele>
        <time>2020-10-18T07:18:46Z</time>
      </trkpt>
      <trkpt lat="42.94056" lon="0.45008">
        <ele>1664.66</ele>
        <time>2020-10-18T07:19:02Z</time>
      </trkpt>
      <trkpt lat="42.94052" lon="0.44996">
        <ele>1666.1</ele>
        <time>2020-10-18T07:19:16Z</time>
      </trkpt>
      <trkpt lat="42.94046" lon="0.44988">
        <ele>1667.06</ele>
        <time>2020-10-18T07:19:30Z</time>
      </trkpt>
      <trkpt lat="42.9404" lon="0.44978">
        <ele>1668.51</ele>
        <time>2020-10-18T07:19:45Z</time>
      </trkpt>
      <trkpt lat="42.94037" lon="0.44966">
        <ele>1669.95</ele>
        <time>2020-10-18T07:20:01Z</time>
      </trkpt>
      <trkpt lat="42.94035" lon="0.44958">
        <ele>1670.91</ele>
        <time>2020-10-18T07:20:15Z</time>
      </trkpt>
      <trkpt lat="42.94036" lon="0.44949">
        <ele>1672.35</ele>
        <time>2020-10-18T07:20:28Z</time>
      </trkpt>
      <trkpt lat="42.94036" lon="0.44941">
        <ele>1673.31</ele>
        <time>2020-10-18T07:20:41Z</time>
      </trkpt>
      <trkpt lat="42.94042" lon="0.44937">
        <ele>1673.79</ele>
        <time>2020-10-18T07:20:47Z</time>
      </trkpt>
      <trkpt lat="42.94057" lon="0.44933">
        <ele>1674.27</ele>
        <time>2020-10-18T07:21:02Z</time>
      </trkpt>
      <trkpt lat="42.94068" lon="0.4493">
        <ele>1675.23</ele>
        <time>2020-10-18T07:21:13Z</time>
      </trkpt>
      <trkpt lat="42.94072" lon="0.44929">
        <ele>1675.23</ele>
        <time>2020-10-18T07:21:17Z</time>
      </trkpt>
      <trkpt lat="42.94077" lon="0.44926">
        <ele>1675.23</ele>
        <time>2020-10-18T07:21:23Z</time>
      </trkpt>
      <trkpt lat="42.94088" lon="0.44907">
        <ele>1676.2</ele>
        <time>2020-10-18T07:21:40Z</time>
      </trkpt>
      <trkpt lat="42.9409" lon="0.44903">
        <ele>1676.2</ele>
        <time>2020-10-18T07:21:44Z</time>
      </trkpt>
      <trkpt lat="42.94087" lon="0.44877">
        <ele>1676.2</ele>
        <time>2020-10-18T07:22:02Z</time>
      </trkpt>
      <trkpt lat="42.94075" lon="0.44866">
        <ele>1676.68</ele>
        <time>2020-10-18T07:22:17Z</time>
      </trkpt>
      <trkpt lat="42.94057" lon="0.44869">
        <ele>1675.72</ele>
        <time>2020-10-18T07:22:33Z</time>
      </trkpt>
      <trkpt lat="42.94044" lon="0.44877">
        <ele>1674.75</ele>
        <time>2020-10-18T07:22:48Z</time>
      </trkpt>
      <trkpt lat="42.94041" lon="0.44878">
        <ele>1674.75</ele>
        <time>2020-10-18T07:22:51Z</time>
      </trkpt>
      <trkpt lat="42.94021" lon="0.44876">
        <ele>1673.79</ele>
        <time>2020-10-18T07:23:10Z</time>
      </trkpt>
      <trkpt lat="42.94007" lon="0.4487">
        <ele>1672.83</ele>
        <time>2020-10-18T07:23:25Z</time>
      </trkpt>
      <trkpt lat="42.94003" lon="0.44868">
        <ele>1672.35</ele>
        <time>2020-10-18T07:23:29Z</time>
      </trkpt>
      <trkpt lat="42.93989" lon="0.44857">
        <ele>1671.87</ele>
        <time>2020-10-18T07:23:44Z</time>
      </trkpt>
      <trkpt lat="42.93976" lon="0.44846">
        <ele>1671.39</ele>
        <time>2020-10-18T07:23:59Z</time>
      </trkpt>
      <trkpt lat="42.93965" lon="0.44833">
        <ele>1670.43</ele>
        <time>2020-10-18T07:24:15Z</time>
      </trkpt>
      <trkpt lat="42.93951" lon="0.44818">
        <ele>1669.47</ele>
        <time>2020-10-18T07:24:32Z</time>
      </trkpt>
      <trkpt lat="42.93939" lon="0.44805">
        <ele>1669.47</ele>
        <time>2020-10-18T07:24:47Z</time>
      </trkpt>
      <trkpt lat="42.93937" lon="0.44804">
        <ele>1669.47</ele>
        <time>2020-10-18T07:24:49Z</time>
      </trkpt>
      <trkpt lat="42.93922" lon="0.44792">
        <ele>1668.51</ele>
        <time>2020-10-18T07:25:05Z</time>
      </trkpt>
      <trkpt lat="42.93908" lon="0.44779">
        <ele>1667.06</ele>
        <time>2020-10-18T07:25:23Z</time>
      </trkpt>
      <trkpt lat="42.93904" lon="0.44777">
        <ele>1667.06</ele>
        <time>2020-10-18T07:25:26Z</time>
      </trkpt>
      <trkpt lat="42.939" lon="0.44773">
        <ele>1666.58</ele>
        <time>2020-10-18T07:25:31Z</time>
      </trkpt>
      <trkpt lat="42.93892" lon="0.44763">
        <ele>1666.1</ele>
        <time>2020-10-18T07:25:41Z</time>
      </trkpt>
      <trkpt lat="42.93888" lon="0.44754">
        <ele>1665.62</ele>
        <time>2020-10-18T07:25:49Z</time>
      </trkpt>
      <trkpt lat="42.93885" lon="0.44742">
        <ele>1664.66</ele>
        <time>2020-10-18T07:25:57Z</time>
      </trkpt>
      <trkpt lat="42.93875" lon="0.44721">
        <ele>1663.7</ele>
        <time>2020-10-18T07:26:14Z</time>
      </trkpt>
      <trkpt lat="42.93868" lon="0.44707">
        <ele>1662.74</ele>
        <time>2020-10-18T07:26:27Z</time>
      </trkpt>
      <trkpt lat="42.93861" lon="0.44692">
        <ele>1662.74</ele>
        <time>2020-10-18T07:26:43Z</time>
      </trkpt>
      <trkpt lat="42.93852" lon="0.44672">
        <ele>1662.74</ele>
        <time>2020-10-18T07:27:01Z</time>
      </trkpt>
      <trkpt lat="42.9385" lon="0.44668">
        <ele>1662.26</ele>
        <time>2020-10-18T07:27:05Z</time>
      </trkpt>
      <trkpt lat="42.93845" lon="0.44644">
        <ele>1661.78</ele>
        <time>2020-10-18T07:27:24Z</time>
      </trkpt>
      <trkpt lat="42.93838" lon="0.44625">
        <ele>1661.78</ele>
        <time>2020-10-18T07:27:41Z</time>
      </trkpt>
      <trkpt lat="42.93833" lon="0.44603">
        <ele>1660.81</ele>
        <time>2020-10-18T07:27:57Z</time>
      </trkpt>
      <trkpt lat="42.93824" lon="0.44591">
        <ele>1659.85</ele>
        <time>2020-10-18T07:28:10Z</time>
      </trkpt>
      <trkpt lat="42.93818" lon="0.44573">
        <ele>1657.93</ele>
        <time>2020-10-18T07:28:24Z</time>
      </trkpt>
      <trkpt lat="42.93814" lon="0.44555">
        <ele>1656.97</ele>
        <time>2020-10-18T07:28:37Z</time>
      </trkpt>
      <trkpt lat="42.93806" lon="0.4453">
        <ele>1656.01</ele>
        <time>2020-10-18T07:28:53Z</time>
      </trkpt>
      <trkpt lat="42.93798" lon="0.44512">
        <ele>1655.53</ele>
        <time>2020-10-18T07:29:08Z</time>
      </trkpt>
      <trkpt lat="42.93798" lon="0.44488">
        <ele>1655.05</ele>
        <time>2020-10-18T07:29:24Z</time>
      </trkpt>
      <trkpt lat="42.93797" lon="0.44476">
        <ele>1654.57</ele>
        <time>2020-10-18T07:29:34Z</time>
      </trkpt>
      <trkpt lat="42.93797" lon="0.44475">
        <ele>1654.57</ele>
        <time>2020-10-18T07:29:36Z</time>
      </trkpt>
      <trkpt lat="42.93796" lon="0.44467">
        <ele>1654.09</ele>
        <time>2020-10-18T07:29:42Z</time>
      </trkpt>
      <trkpt lat="42.93794" lon="0.44447">
        <ele>1653.12</ele>
        <time>2020-10-18T07:29:59Z</time>
      </trkpt>
      <trkpt lat="42.93796" lon="0.44429">
        <ele>1653.12</ele>
        <time>2020-10-18T07:30:14Z</time>
      </trkpt>
      <trkpt lat="42.93795" lon="0.44407">
        <ele>1652.16</ele>
        <time>2020-10-18T07:30:30Z</time>
      </trkpt>
      <trkpt lat="42.93793" lon="0.44388">
        <ele>1651.2</ele>
        <time>2020-10-18T07:30:44Z</time>
      </trkpt>
      <trkpt lat="42.93795" lon="0.44363">
        <ele>1650.24</ele>
        <time>2020-10-18T07:31:02Z</time>
      </trkpt>
      <trkpt lat="42.93797" lon="0.4435">
        <ele>1649.76</ele>
        <time>2020-10-18T07:31:13Z</time>
      </trkpt>
      <trkpt lat="42.93805" lon="0.4433">
        <ele>1649.76</ele>
        <time>2020-10-18T07:31:30Z</time>
      </trkpt>
      <trkpt lat="42.93814" lon="0.44313">
        <ele>1649.28</ele>
        <time>2020-10-18T07:31:47Z</time>
      </trkpt>
      <trkpt lat="42.9382" lon="0.44304">
        <ele>1649.28</ele>
        <time>2020-10-18T07:32:05Z</time>
      </trkpt>
      <trkpt lat="42.93824" lon="0.44289">
        <ele>1648.8</ele>
        <time>2020-10-18T07:32:20Z</time>
      </trkpt>
      <trkpt lat="42.93827" lon="0.44274">
        <ele>1648.32</ele>
        <time>2020-10-18T07:32:33Z</time>
      </trkpt>
      <trkpt lat="42.93832" lon="0.44259">
        <ele>1647.84</ele>
        <time>2020-10-18T07:32:46Z</time>
      </trkpt>
      <trkpt lat="42.93832" lon="0.44258">
        <ele>1647.84</ele>
        <time>2020-10-18T07:32:47Z</time>
      </trkpt>
      <trkpt lat="42.93839" lon="0.44242">
        <ele>1647.36</ele>
        <time>2020-10-18T07:33:01Z</time>
      </trkpt>
      <trkpt lat="42.93843" lon="0.44225">
        <ele>1646.88</ele>
        <time>2020-10-18T07:33:15Z</time>
      </trkpt>
      <trkpt lat="42.93845" lon="0.44212">
        <ele>1646.4</ele>
        <time>2020-10-18T07:33:26Z</time>
      </trkpt>
      <trkpt lat="42.93847" lon="0.44191">
        <ele>1645.91</ele>
        <time>2020-10-18T07:33:41Z</time>
      </trkpt>
      <trkpt lat="42.93847" lon="0.44168">
        <ele>1645.43</ele>
        <time>2020-10-18T07:34:01Z</time>
      </trkpt>
      <trkpt lat="42.93836" lon="0.44153">
        <ele>1643.99</ele>
        <time>2020-10-18T07:34:17Z</time>
      </trkpt>
      <trkpt lat="42.93827" lon="0.44148">
        <ele>1643.51</ele>
        <time>2020-10-18T07:34:26Z</time>
      </trkpt>
      <trkpt lat="42.93819" lon="0.44145">
        <ele>1643.03</ele>
        <time>2020-10-18T07:34:33Z</time>
      </trkpt>
      <trkpt lat="42.93816" lon="0.44143">
        <ele>1643.03</ele>
        <time>2020-10-18T07:34:36Z</time>
      </trkpt>
      <trkpt lat="42.93813" lon="0.44143">
        <ele>1643.03</ele>
        <time>2020-10-18T07:34:39Z</time>
      </trkpt>
      <trkpt lat="42.93805" lon="0.44142">
        <ele>1642.55</ele>
        <time>2020-10-18T07:34:47Z</time>
      </trkpt>
      <trkpt lat="42.93789" lon="0.44144">
        <ele>1642.07</ele>
        <time>2020-10-18T07:35:02Z</time>
      </trkpt>
      <trkpt lat="42.93769" lon="0.4415">
        <ele>1641.11</ele>
        <time>2020-10-18T07:35:21Z</time>
      </trkpt>
      <trkpt lat="42.93763" lon="0.44152">
        <ele>1641.11</ele>
        <time>2020-10-18T07:35:27Z</time>
      </trkpt>
      <trkpt lat="42.93748" lon="0.44156">
        <ele>1640.63</ele>
        <time>2020-10-18T07:35:43Z</time>
      </trkpt>
      <trkpt lat="42.93729" lon="0.44156">
        <ele>1640.15</ele>
        <time>2020-10-18T07:35:59Z</time>
      </trkpt>
      <trkpt lat="42.9372" lon="0.44157">
        <ele>1639.19</ele>
        <time>2020-10-18T07:36:08Z</time>
      </trkpt>
      <trkpt lat="42.93702" lon="0.44151">
        <ele>1638.7</ele>
        <time>2020-10-18T07:36:24Z</time>
      </trkpt>
      <trkpt lat="42.93697" lon="0.44147">
        <ele>1637.74</ele>
        <time>2020-10-18T07:36:29Z</time>
      </trkpt>
      <trkpt lat="42.93691" lon="0.44144">
        <ele>1637.26</ele>
        <time>2020-10-18T07:36:34Z</time>
      </trkpt>
      <trkpt lat="42.93675" lon="0.44125">
        <ele>1635.82</ele>
        <time>2020-10-18T07:36:53Z</time>
      </trkpt>
      <trkpt lat="42.93669" lon="0.44112">
        <ele>1635.34</ele>
        <time>2020-10-18T07:37:05Z</time>
      </trkpt>
      <trkpt lat="42.93666" lon="0.44105">
        <ele>1634.86</ele>
        <time>2020-10-18T07:37:10Z</time>
      </trkpt>
      <trkpt lat="42.93662" lon="0.44102">
        <ele>1634.38</ele>
        <time>2020-10-18T07:37:14Z</time>
      </trkpt>
      <trkpt lat="42.93654" lon="0.44089">
        <ele>1633.42</ele>
        <time>2020-10-18T07:37:26Z</time>
      </trkpt>
      <trkpt lat="42.93652" lon="0.44065">
        <ele>1632.46</ele>
        <time>2020-10-18T07:37:42Z</time>
      </trkpt>
      <trkpt lat="42.93642" lon="0.44061">
        <ele>1631.98</ele>
        <time>2020-10-18T07:37:54Z</time>
      </trkpt>
      <trkpt lat="42.93637" lon="0.44066">
        <ele>1631.49</ele>
        <time>2020-10-18T07:38:03Z</time>
      </trkpt>
      <trkpt lat="42.93621" lon="0.44082">
        <ele>1630.05</ele>
        <time>2020-10-18T07:38:20Z</time>
      </trkpt>
      <trkpt lat="42.93605" lon="0.44088">
        <ele>1628.61</ele>
        <time>2020-10-18T07:38:36Z</time>
      </trkpt>
      <trkpt lat="42.93586" lon="0.44089">
        <ele>1628.61</ele>
        <time>2020-10-18T07:38:52Z</time>
      </trkpt>
      <trkpt lat="42.93565" lon="0.44092">
        <ele>1627.65</ele>
        <time>2020-10-18T07:39:10Z</time>
      </trkpt>
      <trkpt lat="42.93548" lon="0.44092">
        <ele>1626.69</ele>
        <time>2020-10-18T07:39:27Z</time>
      </trkpt>
      <trkpt lat="42.93531" lon="0.44091">
        <ele>1626.21</ele>
        <time>2020-10-18T07:39:43Z</time>
      </trkpt>
      <trkpt lat="42.9353" lon="0.4409">
        <ele>1626.21</ele>
        <time>2020-10-18T07:39:44Z</time>
      </trkpt>
      <trkpt lat="42.93518" lon="0.44083">
        <ele>1625.73</ele>
        <time>2020-10-18T07:39:57Z</time>
      </trkpt>
      <trkpt lat="42.93515" lon="0.44079">
        <ele>1625.73</ele>
        <time>2020-10-18T07:40:01Z</time>
      </trkpt>
      <trkpt lat="42.93499" lon="0.44065">
        <ele>1625.25</ele>
        <time>2020-10-18T07:40:18Z</time>
      </trkpt>
      <trkpt lat="42.93486" lon="0.44057">
        <ele>1625.25</ele>
        <time>2020-10-18T07:40:33Z</time>
      </trkpt>
      <trkpt lat="42.9348" lon="0.4405">
        <ele>1625.25</ele>
        <time>2020-10-18T07:40:41Z</time>
      </trkpt>
      <trkpt lat="42.93471" lon="0.44038">
        <ele>1625.25</ele>
        <time>2020-10-18T07:40:54Z</time>
      </trkpt>
      <trkpt lat="42.93471" lon="0.44037">
        <ele>1625.25</ele>
        <time>2020-10-18T07:40:55Z</time>
      </trkpt>
      <trkpt lat="42.93462" lon="0.44022">
        <ele>1625.25</ele>
        <time>2020-10-18T07:41:10Z</time>
      </trkpt>
      <trkpt lat="42.93454" lon="0.44012">
        <ele>1626.21</ele>
        <time>2020-10-18T07:41:21Z</time>
      </trkpt>
      <trkpt lat="42.93439" lon="0.44004">
        <ele>1627.17</ele>
        <time>2020-10-18T07:41:37Z</time>
      </trkpt>
      <trkpt lat="42.9343" lon="0.44">
        <ele>1627.17</ele>
        <time>2020-10-18T07:41:49Z</time>
      </trkpt>
      <trkpt lat="42.93432" lon="0.43999">
        <ele>1627.17</ele>
        <time>2020-10-18T07:42:10Z</time>
      </trkpt>
      <trkpt lat="42.93427" lon="0.44">
        <ele>1627.17</ele>
        <time>2020-10-18T07:42:30Z</time>
      </trkpt>
      <trkpt lat="42.93427" lon="0.43999">
        <ele>1627.17</ele>
        <time>2020-10-18T07:42:48Z</time>
      </trkpt>
      <trkpt lat="42.93427" lon="0.43998">
        <ele>1627.65</ele>
        <time>2020-10-18T07:43:03Z</time>
      </trkpt>
      <trkpt lat="42.93427" lon="0.43998">
        <ele>1627.65</ele>
        <time>2020-10-18T07:43:22Z</time>
      </trkpt>
      <trkpt lat="42.93427" lon="0.43998">
        <ele>1627.65</ele>
        <time>2020-10-18T07:43:42Z</time>
      </trkpt>
      <trkpt lat="42.93427" lon="0.43999">
        <ele>1627.65</ele>
        <time>2020-10-18T07:44:05Z</time>
      </trkpt>
      <trkpt lat="42.93426" lon="0.43998">
        <ele>1627.65</ele>
        <time>2020-10-18T07:44:39Z</time>
      </trkpt>
      <trkpt lat="42.93428" lon="0.43997">
        <ele>1627.65</ele>
        <time>2020-10-18T07:45:19Z</time>
      </trkpt>
      <trkpt lat="42.93426" lon="0.43999">
        <ele>1627.65</ele>
        <time>2020-10-18T07:45:23Z</time>
      </trkpt>
      <trkpt lat="42.93413" lon="0.44004">
        <ele>1628.13</ele>
        <time>2020-10-18T07:45:38Z</time>
      </trkpt>
      <trkpt lat="42.93406" lon="0.44007">
        <ele>1629.09</ele>
        <time>2020-10-18T07:45:48Z</time>
      </trkpt>
      <trkpt lat="42.93396" lon="0.44016">
        <ele>1629.57</ele>
        <time>2020-10-18T07:46:04Z</time>
      </trkpt>
      <trkpt lat="42.93392" lon="0.44015">
        <ele>1629.57</ele>
        <time>2020-10-18T07:46:09Z</time>
      </trkpt>
      <trkpt lat="42.93384" lon="0.44022">
        <ele>1631.01</ele>
        <time>2020-10-18T07:46:24Z</time>
      </trkpt>
      <trkpt lat="42.93376" lon="0.44025">
        <ele>1631.49</ele>
        <time>2020-10-18T07:46:38Z</time>
      </trkpt>
      <trkpt lat="42.93372" lon="0.44023">
        <ele>1631.98</ele>
        <time>2020-10-18T07:46:52Z</time>
      </trkpt>
      <trkpt lat="42.93365" lon="0.44024">
        <ele>1631.98</ele>
        <time>2020-10-18T07:47:09Z</time>
      </trkpt>
      <trkpt lat="42.93361" lon="0.44023">
        <ele>1632.94</ele>
        <time>2020-10-18T07:47:24Z</time>
      </trkpt>
      <trkpt lat="42.93354" lon="0.44016">
        <ele>1633.9</ele>
        <time>2020-10-18T07:47:39Z</time>
      </trkpt>
      <trkpt lat="42.93345" lon="0.44019">
        <ele>1635.34</ele>
        <time>2020-10-18T07:47:52Z</time>
      </trkpt>
      <trkpt lat="42.93335" lon="0.44023">
        <ele>1637.74</ele>
        <time>2020-10-18T07:48:08Z</time>
      </trkpt>
      <trkpt lat="42.93329" lon="0.44029">
        <ele>1638.22</ele>
        <time>2020-10-18T07:48:23Z</time>
      </trkpt>
      <trkpt lat="42.9332" lon="0.4403">
        <ele>1639.67</ele>
        <time>2020-10-18T07:48:38Z</time>
      </trkpt>
      <trkpt lat="42.93314" lon="0.44025">
        <ele>1642.07</ele>
        <time>2020-10-18T07:48:52Z</time>
      </trkpt>
      <trkpt lat="42.93308" lon="0.4402">
        <ele>1643.51</ele>
        <time>2020-10-18T07:49:05Z</time>
      </trkpt>
      <trkpt lat="42.93302" lon="0.44015">
        <ele>1644.47</ele>
        <time>2020-10-18T07:49:18Z</time>
      </trkpt>
      <trkpt lat="42.93294" lon="0.44011">
        <ele>1646.88</ele>
        <time>2020-10-18T07:49:34Z</time>
      </trkpt>
      <trkpt lat="42.93287" lon="0.44009">
        <ele>1647.84</ele>
        <time>2020-10-18T07:49:46Z</time>
      </trkpt>
      <trkpt lat="42.93282" lon="0.44007">
        <ele>1649.76</ele>
        <time>2020-10-18T07:50:01Z</time>
      </trkpt>
      <trkpt lat="42.93275" lon="0.44004">
        <ele>1651.68</ele>
        <time>2020-10-18T07:50:16Z</time>
      </trkpt>
      <trkpt lat="42.93269" lon="0.44004">
        <ele>1653.12</ele>
        <time>2020-10-18T07:50:31Z</time>
      </trkpt>
      <trkpt lat="42.93263" lon="0.44003">
        <ele>1654.09</ele>
        <time>2020-10-18T07:50:49Z</time>
      </trkpt>
      <trkpt lat="42.93258" lon="0.44003">
        <ele>1654.57</ele>
        <time>2020-10-18T07:51:02Z</time>
      </trkpt>
      <trkpt lat="42.93251" lon="0.44003">
        <ele>1656.49</ele>
        <time>2020-10-18T07:51:17Z</time>
      </trkpt>
      <trkpt lat="42.93246" lon="0.44002">
        <ele>1656.49</ele>
        <time>2020-10-18T07:51:24Z</time>
      </trkpt>
      <trkpt lat="42.9324" lon="0.44002">
        <ele>1656.97</ele>
        <time>2020-10-18T07:51:36Z</time>
      </trkpt>
      <trkpt lat="42.93233" lon="0.43996">
        <ele>1658.41</ele>
        <time>2020-10-18T07:51:49Z</time>
      </trkpt>
      <trkpt lat="42.93225" lon="0.43994">
        <ele>1659.85</ele>
        <time>2020-10-18T07:52:07Z</time>
      </trkpt>
      <trkpt lat="42.93215" lon="0.43994">
        <ele>1661.3</ele>
        <time>2020-10-18T07:52:23Z</time>
      </trkpt>
      <trkpt lat="42.93205" lon="0.43991">
        <ele>1662.74</ele>
        <time>2020-10-18T07:52:39Z</time>
      </trkpt>
      <trkpt lat="42.93197" lon="0.43987">
        <ele>1663.7</ele>
        <time>2020-10-18T07:52:56Z</time>
      </trkpt>
      <trkpt lat="42.93193" lon="0.43975">
        <ele>1666.58</ele>
        <time>2020-10-18T07:53:13Z</time>
      </trkpt>
      <trkpt lat="42.9319" lon="0.43961">
        <ele>1667.06</ele>
        <time>2020-10-18T07:53:29Z</time>
      </trkpt>
      <trkpt lat="42.93186" lon="0.43952">
        <ele>1668.51</ele>
        <time>2020-10-18T07:53:45Z</time>
      </trkpt>
      <trkpt lat="42.93178" lon="0.43944">
        <ele>1669.47</ele>
        <time>2020-10-18T07:54:05Z</time>
      </trkpt>
      <trkpt lat="42.93171" lon="0.43937">
        <ele>1672.35</ele>
        <time>2020-10-18T07:54:23Z</time>
      </trkpt>
      <trkpt lat="42.93165" lon="0.43932">
        <ele>1673.79</ele>
        <time>2020-10-18T07:54:39Z</time>
      </trkpt>
      <trkpt lat="42.9316" lon="0.43922">
        <ele>1676.68</ele>
        <time>2020-10-18T07:54:57Z</time>
      </trkpt>
      <trkpt lat="42.93158" lon="0.43915">
        <ele>1677.64</ele>
        <time>2020-10-18T07:55:10Z</time>
      </trkpt>
      <trkpt lat="42.9316" lon="0.43914">
        <ele>1677.64</ele>
        <time>2020-10-18T07:55:25Z</time>
      </trkpt>
      <trkpt lat="42.93161" lon="0.43912">
        <ele>1677.64</ele>
        <time>2020-10-18T07:55:40Z</time>
      </trkpt>
      <trkpt lat="42.93159" lon="0.43911">
        <ele>1677.64</ele>
        <time>2020-10-18T07:56:04Z</time>
      </trkpt>
      <trkpt lat="42.9316" lon="0.43911">
        <ele>1677.64</ele>
        <time>2020-10-18T07:56:30Z</time>
      </trkpt>
      <trkpt lat="42.93157" lon="0.43913">
        <ele>1677.64</ele>
        <time>2020-10-18T07:56:57Z</time>
      </trkpt>
      <trkpt lat="42.93159" lon="0.43911">
        <ele>1677.64</ele>
        <time>2020-10-18T07:57:24Z</time>
      </trkpt>
      <trkpt lat="42.9316" lon="0.43913">
        <ele>1677.64</ele>
        <time>2020-10-18T07:57:50Z</time>
      </trkpt>
      <trkpt lat="42.93161" lon="0.43912">
        <ele>1676.68</ele>
        <time>2020-10-18T07:58:11Z</time>
      </trkpt>
      <trkpt lat="42.93158" lon="0.43912">
        <ele>1676.68</ele>
        <time>2020-10-18T07:58:36Z</time>
      </trkpt>
      <trkpt lat="42.9316" lon="0.43912">
        <ele>1676.68</ele>
        <time>2020-10-18T07:59:09Z</time>
      </trkpt>
      <trkpt lat="42.93159" lon="0.43911">
        <ele>1676.68</ele>
        <time>2020-10-18T07:59:43Z</time>
      </trkpt>
      <trkpt lat="42.93161" lon="0.43909">
        <ele>1676.68</ele>
        <time>2020-10-18T08:00:08Z</time>
      </trkpt>
      <trkpt lat="42.9316" lon="0.43911">
        <ele>1676.68</ele>
        <time>2020-10-18T08:00:42Z</time>
      </trkpt>
      <trkpt lat="42.93159" lon="0.43913">
        <ele>1676.68</ele>
        <time>2020-10-18T08:01:11Z</time>
      </trkpt>
      <trkpt lat="42.93157" lon="0.43912">
        <ele>1676.68</ele>
        <time>2020-10-18T08:01:28Z</time>
      </trkpt>
      <trkpt lat="42.93155" lon="0.43913">
        <ele>1676.68</ele>
        <time>2020-10-18T08:01:56Z</time>
      </trkpt>
      <trkpt lat="42.93144" lon="0.43911">
        <ele>1677.16</ele>
        <time>2020-10-18T08:02:12Z</time>
      </trkpt>
      <trkpt lat="42.93139" lon="0.43911">
        <ele>1678.6</ele>
        <time>2020-10-18T08:02:30Z</time>
      </trkpt>
      <trkpt lat="42.93134" lon="0.43912">
        <ele>1679.56</ele>
        <time>2020-10-18T08:02:47Z</time>
      </trkpt>
      <trkpt lat="42.93128" lon="0.43913">
        <ele>1681</ele>
        <time>2020-10-18T08:03:04Z</time>
      </trkpt>
      <trkpt lat="42.93124" lon="0.43919">
        <ele>1682.44</ele>
        <time>2020-10-18T08:03:20Z</time>
      </trkpt>
      <trkpt lat="42.93121" lon="0.43925">
        <ele>1683.41</ele>
        <time>2020-10-18T08:03:34Z</time>
      </trkpt>
      <trkpt lat="42.93117" lon="0.43933">
        <ele>1684.85</ele>
        <time>2020-10-18T08:03:51Z</time>
      </trkpt>
      <trkpt lat="42.93112" lon="0.43944">
        <ele>1687.25</ele>
        <time>2020-10-18T08:04:10Z</time>
      </trkpt>
      <trkpt lat="42.93114" lon="0.43952">
        <ele>1689.17</ele>
        <time>2020-10-18T08:04:26Z</time>
      </trkpt>
      <trkpt lat="42.93113" lon="0.43964">
        <ele>1691.58</ele>
        <time>2020-10-18T08:04:48Z</time>
      </trkpt>
      <trkpt lat="42.93113" lon="0.43979">
        <ele>1693.5</ele>
        <time>2020-10-18T08:05:12Z</time>
      </trkpt>
      <trkpt lat="42.93113" lon="0.43989">
        <ele>1695.9</ele>
        <time>2020-10-18T08:05:32Z</time>
      </trkpt>
      <trkpt lat="42.93111" lon="0.44">
        <ele>1697.83</ele>
        <time>2020-10-18T08:05:51Z</time>
      </trkpt>
      <trkpt lat="42.93112" lon="0.44008">
        <ele>1699.27</ele>
        <time>2020-10-18T08:06:09Z</time>
      </trkpt>
      <trkpt lat="42.93108" lon="0.44018">
        <ele>1701.19</ele>
        <time>2020-10-18T08:06:29Z</time>
      </trkpt>
      <trkpt lat="42.93103" lon="0.44025">
        <ele>1703.59</ele>
        <time>2020-10-18T08:06:46Z</time>
      </trkpt>
      <trkpt lat="42.93105" lon="0.4404">
        <ele>1705.04</ele>
        <time>2020-10-18T08:07:03Z</time>
      </trkpt>
      <trkpt lat="42.93107" lon="0.44049">
        <ele>1706</ele>
        <time>2020-10-18T08:07:19Z</time>
      </trkpt>
      <trkpt lat="42.93108" lon="0.44059">
        <ele>1707.44</ele>
        <time>2020-10-18T08:07:37Z</time>
      </trkpt>
      <trkpt lat="42.93109" lon="0.44066">
        <ele>1708.88</ele>
        <time>2020-10-18T08:07:52Z</time>
      </trkpt>
      <trkpt lat="42.93108" lon="0.44069">
        <ele>1711.28</ele>
        <time>2020-10-18T08:08:08Z</time>
      </trkpt>
      <trkpt lat="42.93101" lon="0.44073">
        <ele>1713.21</ele>
        <time>2020-10-18T08:08:24Z</time>
      </trkpt>
      <trkpt lat="42.93097" lon="0.44077">
        <ele>1715.13</ele>
        <time>2020-10-18T08:08:40Z</time>
      </trkpt>
      <trkpt lat="42.93093" lon="0.44083">
        <ele>1717.53</ele>
        <time>2020-10-18T08:08:57Z</time>
      </trkpt>
      <trkpt lat="42.93087" lon="0.44085">
        <ele>1719.46</ele>
        <time>2020-10-18T08:09:12Z</time>
      </trkpt>
      <trkpt lat="42.93086" lon="0.44093">
        <ele>1721.86</ele>
        <time>2020-10-18T08:09:28Z</time>
      </trkpt>
      <trkpt lat="42.93083" lon="0.44103">
        <ele>1724.26</ele>
        <time>2020-10-18T08:09:44Z</time>
      </trkpt>
      <trkpt lat="42.9308" lon="0.4411">
        <ele>1726.18</ele>
        <time>2020-10-18T08:09:59Z</time>
      </trkpt>
      <trkpt lat="42.93076" lon="0.44111">
        <ele>1727.15</ele>
        <time>2020-10-18T08:10:14Z</time>
      </trkpt>
      <trkpt lat="42.93075" lon="0.44114">
        <ele>1727.15</ele>
        <time>2020-10-18T08:10:32Z</time>
      </trkpt>
      <trkpt lat="42.93074" lon="0.44112">
        <ele>1727.63</ele>
        <time>2020-10-18T08:10:59Z</time>
      </trkpt>
      <trkpt lat="42.93075" lon="0.44112">
        <ele>1727.63</ele>
        <time>2020-10-18T08:11:16Z</time>
      </trkpt>
      <trkpt lat="42.93075" lon="0.44114">
        <ele>1727.63</ele>
        <time>2020-10-18T08:11:44Z</time>
      </trkpt>
      <trkpt lat="42.93075" lon="0.44114">
        <ele>1727.63</ele>
        <time>2020-10-18T08:12:19Z</time>
      </trkpt>
      <trkpt lat="42.93074" lon="0.44113">
        <ele>1727.63</ele>
        <time>2020-10-18T08:12:48Z</time>
      </trkpt>
      <trkpt lat="42.93076" lon="0.44114">
        <ele>1727.63</ele>
        <time>2020-10-18T08:13:22Z</time>
      </trkpt>
      <trkpt lat="42.93072" lon="0.44112">
        <ele>1728.11</ele>
        <time>2020-10-18T08:13:41Z</time>
      </trkpt>
      <trkpt lat="42.9307" lon="0.44112">
        <ele>1728.11</ele>
        <time>2020-10-18T08:13:45Z</time>
      </trkpt>
      <trkpt lat="42.93065" lon="0.44113">
        <ele>1729.55</ele>
        <time>2020-10-18T08:13:51Z</time>
      </trkpt>
      <trkpt lat="42.93062" lon="0.44112">
        <ele>1729.55</ele>
        <time>2020-10-18T08:14:07Z</time>
      </trkpt>
      <trkpt lat="42.93058" lon="0.4411">
        <ele>1730.03</ele>
        <time>2020-10-18T08:14:27Z</time>
      </trkpt>
      <trkpt lat="42.93051" lon="0.4411">
        <ele>1731.95</ele>
        <time>2020-10-18T08:14:46Z</time>
      </trkpt>
      <trkpt lat="42.93045" lon="0.44107">
        <ele>1733.88</ele>
        <time>2020-10-18T08:15:03Z</time>
      </trkpt>
      <trkpt lat="42.93042" lon="0.44106">
        <ele>1734.84</ele>
        <time>2020-10-18T08:15:17Z</time>
      </trkpt>
      <trkpt lat="42.93039" lon="0.44104">
        <ele>1735.32</ele>
        <time>2020-10-18T08:15:36Z</time>
      </trkpt>
      <trkpt lat="42.93036" lon="0.44103">
        <ele>1737.24</ele>
        <time>2020-10-18T08:15:56Z</time>
      </trkpt>
      <trkpt lat="42.9303" lon="0.44103">
        <ele>1738.68</ele>
        <time>2020-10-18T08:16:13Z</time>
      </trkpt>
      <trkpt lat="42.93026" lon="0.441">
        <ele>1740.12</ele>
        <time>2020-10-18T08:16:28Z</time>
      </trkpt>
      <trkpt lat="42.93022" lon="0.44097">
        <ele>1741.57</ele>
        <time>2020-10-18T08:16:43Z</time>
      </trkpt>
      <trkpt lat="42.9302" lon="0.44096">
        <ele>1743.01</ele>
        <time>2020-10-18T08:16:57Z</time>
      </trkpt>
      <trkpt lat="42.93016" lon="0.44094">
        <ele>1745.41</ele>
        <time>2020-10-18T08:17:15Z</time>
      </trkpt>
      <trkpt lat="42.9301" lon="0.44097">
        <ele>1746.37</ele>
        <time>2020-10-18T08:17:30Z</time>
      </trkpt>
      <trkpt lat="42.93008" lon="0.44097">
        <ele>1747.81</ele>
        <time>2020-10-18T08:17:43Z</time>
      </trkpt>
      <trkpt lat="42.93003" lon="0.441">
        <ele>1749.74</ele>
        <time>2020-10-18T08:17:56Z</time>
      </trkpt>
      <trkpt lat="42.92998" lon="0.44101">
        <ele>1750.7</ele>
        <time>2020-10-18T08:18:11Z</time>
      </trkpt>
      <trkpt lat="42.92991" lon="0.44105">
        <ele>1752.62</ele>
        <time>2020-10-18T08:18:26Z</time>
      </trkpt>
      <trkpt lat="42.92988" lon="0.44109">
        <ele>1753.58</ele>
        <time>2020-10-18T08:18:41Z</time>
      </trkpt>
      <trkpt lat="42.92986" lon="0.44107">
        <ele>1754.54</ele>
        <time>2020-10-18T08:18:54Z</time>
      </trkpt>
      <trkpt lat="42.9298" lon="0.44112">
        <ele>1756.95</ele>
        <time>2020-10-18T08:19:10Z</time>
      </trkpt>
      <trkpt lat="42.92977" lon="0.44114">
        <ele>1757.43</ele>
        <time>2020-10-18T08:19:24Z</time>
      </trkpt>
      <trkpt lat="42.92976" lon="0.44114">
        <ele>1757.91</ele>
        <time>2020-10-18T08:19:40Z</time>
      </trkpt>
      <trkpt lat="42.92972" lon="0.44115">
        <ele>1758.87</ele>
        <time>2020-10-18T08:20:01Z</time>
      </trkpt>
      <trkpt lat="42.9297" lon="0.44115">
        <ele>1759.83</ele>
        <time>2020-10-18T08:20:14Z</time>
      </trkpt>
      <trkpt lat="42.92966" lon="0.44115">
        <ele>1761.75</ele>
        <time>2020-10-18T08:20:31Z</time>
      </trkpt>
      <trkpt lat="42.92964" lon="0.44119">
        <ele>1763.68</ele>
        <time>2020-10-18T08:20:52Z</time>
      </trkpt>
      <trkpt lat="42.92962" lon="0.44114">
        <ele>1764.64</ele>
        <time>2020-10-18T08:21:05Z</time>
      </trkpt>
      <trkpt lat="42.9296" lon="0.44114">
        <ele>1767.04</ele>
        <time>2020-10-18T08:21:19Z</time>
      </trkpt>
      <trkpt lat="42.92955" lon="0.44116">
        <ele>1768.48</ele>
        <time>2020-10-18T08:21:37Z</time>
      </trkpt>
      <trkpt lat="42.92953" lon="0.44117">
        <ele>1770.41</ele>
        <time>2020-10-18T08:21:52Z</time>
      </trkpt>
      <trkpt lat="42.9295" lon="0.44116">
        <ele>1771.37</ele>
        <time>2020-10-18T08:22:08Z</time>
      </trkpt>
      <trkpt lat="42.92948" lon="0.44115">
        <ele>1772.33</ele>
        <time>2020-10-18T08:22:23Z</time>
      </trkpt>
      <trkpt lat="42.92944" lon="0.44116">
        <ele>1774.73</ele>
        <time>2020-10-18T08:22:39Z</time>
      </trkpt>
      <trkpt lat="42.92941" lon="0.44117">
        <ele>1775.69</ele>
        <time>2020-10-18T08:22:58Z</time>
      </trkpt>
      <trkpt lat="42.92938" lon="0.44115">
        <ele>1778.58</ele>
        <time>2020-10-18T08:23:12Z</time>
      </trkpt>
      <trkpt lat="42.92936" lon="0.44117">
        <ele>1779.06</ele>
        <time>2020-10-18T08:23:26Z</time>
      </trkpt>
      <trkpt lat="42.92933" lon="0.44117">
        <ele>1780.98</ele>
        <time>2020-10-18T08:23:41Z</time>
      </trkpt>
      <trkpt lat="42.92928" lon="0.44116">
        <ele>1782.9</ele>
        <time>2020-10-18T08:23:56Z</time>
      </trkpt>
      <trkpt lat="42.92925" lon="0.44117">
        <ele>1783.86</ele>
        <time>2020-10-18T08:24:12Z</time>
      </trkpt>
      <trkpt lat="42.92922" lon="0.44117">
        <ele>1786.27</ele>
        <time>2020-10-18T08:24:29Z</time>
      </trkpt>
      <trkpt lat="42.92918" lon="0.44117">
        <ele>1787.71</ele>
        <time>2020-10-18T08:24:46Z</time>
      </trkpt>
      <trkpt lat="42.92914" lon="0.44117">
        <ele>1790.11</ele>
        <time>2020-10-18T08:25:04Z</time>
      </trkpt>
      <trkpt lat="42.92911" lon="0.44115">
        <ele>1791.07</ele>
        <time>2020-10-18T08:25:21Z</time>
      </trkpt>
      <trkpt lat="42.92909" lon="0.44111">
        <ele>1793</ele>
        <time>2020-10-18T08:25:36Z</time>
      </trkpt>
      <trkpt lat="42.92907" lon="0.44107">
        <ele>1794.92</ele>
        <time>2020-10-18T08:25:55Z</time>
      </trkpt>
      <trkpt lat="42.92907" lon="0.44101">
        <ele>1796.36</ele>
        <time>2020-10-18T08:26:11Z</time>
      </trkpt>
      <trkpt lat="42.92905" lon="0.44097">
        <ele>1798.28</ele>
        <time>2020-10-18T08:26:29Z</time>
      </trkpt>
      <trkpt lat="42.92903" lon="0.44092">
        <ele>1799.73</ele>
        <time>2020-10-18T08:26:46Z</time>
      </trkpt>
      <trkpt lat="42.92901" lon="0.44088">
        <ele>1801.65</ele>
        <time>2020-10-18T08:27:01Z</time>
      </trkpt>
      <trkpt lat="42.92901" lon="0.44081">
        <ele>1803.09</ele>
        <time>2020-10-18T08:27:19Z</time>
      </trkpt>
      <trkpt lat="42.92898" lon="0.44076">
        <ele>1804.53</ele>
        <time>2020-10-18T08:27:34Z</time>
      </trkpt>
      <trkpt lat="42.92894" lon="0.44073">
        <ele>1805.49</ele>
        <time>2020-10-18T08:27:48Z</time>
      </trkpt>
      <trkpt lat="42.92892" lon="0.44071">
        <ele>1806.94</ele>
        <time>2020-10-18T08:28:01Z</time>
      </trkpt>
      <trkpt lat="42.92891" lon="0.44065">
        <ele>1808.38</ele>
        <time>2020-10-18T08:28:16Z</time>
      </trkpt>
      <trkpt lat="42.9289" lon="0.44058">
        <ele>1809.82</ele>
        <time>2020-10-18T08:28:33Z</time>
      </trkpt>
      <trkpt lat="42.92889" lon="0.44052">
        <ele>1811.26</ele>
        <time>2020-10-18T08:28:46Z</time>
      </trkpt>
      <trkpt lat="42.92885" lon="0.44046">
        <ele>1813.18</ele>
        <time>2020-10-18T08:29:04Z</time>
      </trkpt>
      <trkpt lat="42.92883" lon="0.44041">
        <ele>1814.63</ele>
        <time>2020-10-18T08:29:18Z</time>
      </trkpt>
      <trkpt lat="42.92882" lon="0.44031">
        <ele>1816.55</ele>
        <time>2020-10-18T08:29:34Z</time>
      </trkpt>
      <trkpt lat="42.92882" lon="0.44026">
        <ele>1817.99</ele>
        <time>2020-10-18T08:29:48Z</time>
      </trkpt>
      <trkpt lat="42.92883" lon="0.44022">
        <ele>1819.91</ele>
        <time>2020-10-18T08:30:04Z</time>
      </trkpt>
      <trkpt lat="42.92883" lon="0.44012">
        <ele>1821.35</ele>
        <time>2020-10-18T08:30:21Z</time>
      </trkpt>
      <trkpt lat="42.92881" lon="0.4401">
        <ele>1823.76</ele>
        <time>2020-10-18T08:30:39Z</time>
      </trkpt>
      <trkpt lat="42.9288" lon="0.44004">
        <ele>1825.2</ele>
        <time>2020-10-18T08:30:53Z</time>
      </trkpt>
      <trkpt lat="42.92878" lon="0.44002">
        <ele>1827.12</ele>
        <time>2020-10-18T08:31:06Z</time>
      </trkpt>
      <trkpt lat="42.92873" lon="0.44001">
        <ele>1828.56</ele>
        <time>2020-10-18T08:31:22Z</time>
      </trkpt>
      <trkpt lat="42.92871" lon="0.44001">
        <ele>1830.01</ele>
        <time>2020-10-18T08:31:39Z</time>
      </trkpt>
      <trkpt lat="42.92869" lon="0.43998">
        <ele>1831.93</ele>
        <time>2020-10-18T08:31:55Z</time>
      </trkpt>
      <trkpt lat="42.92864" lon="0.44002">
        <ele>1833.37</ele>
        <time>2020-10-18T08:32:13Z</time>
      </trkpt>
      <trkpt lat="42.92858" lon="0.44007">
        <ele>1834.33</ele>
        <time>2020-10-18T08:32:27Z</time>
      </trkpt>
      <trkpt lat="42.92852" lon="0.44013">
        <ele>1835.29</ele>
        <time>2020-10-18T08:32:42Z</time>
      </trkpt>
      <trkpt lat="42.92846" lon="0.44016">
        <ele>1837.7</ele>
        <time>2020-10-18T08:32:59Z</time>
      </trkpt>
      <trkpt lat="42.92839" lon="0.44017">
        <ele>1839.14</ele>
        <time>2020-10-18T08:33:17Z</time>
      </trkpt>
      <trkpt lat="42.92838" lon="0.44016">
        <ele>1839.62</ele>
        <time>2020-10-18T08:33:34Z</time>
      </trkpt>
      <trkpt lat="42.92839" lon="0.44017">
        <ele>1839.62</ele>
        <time>2020-10-18T08:34:05Z</time>
      </trkpt>
      <trkpt lat="42.92839" lon="0.44018">
        <ele>1839.62</ele>
        <time>2020-10-18T08:34:23Z</time>
      </trkpt>
      <trkpt lat="42.92839" lon="0.44017">
        <ele>1839.62</ele>
        <time>2020-10-18T08:34:51Z</time>
      </trkpt>
      <trkpt lat="42.92838" lon="0.44017">
        <ele>1840.1</ele>
        <time>2020-10-18T08:35:25Z</time>
      </trkpt>
      <trkpt lat="42.92838" lon="0.44016">
        <ele>1840.1</ele>
        <time>2020-10-18T08:35:54Z</time>
      </trkpt>
      <trkpt lat="42.92838" lon="0.44016">
        <ele>1840.1</ele>
        <time>2020-10-18T08:36:24Z</time>
      </trkpt>
      <trkpt lat="42.92838" lon="0.44016">
        <ele>1840.1</ele>
        <time>2020-10-18T08:36:45Z</time>
      </trkpt>
      <trkpt lat="42.92838" lon="0.44016">
        <ele>1840.1</ele>
        <time>2020-10-18T08:37:10Z</time>
      </trkpt>
      <trkpt lat="42.92834" lon="0.44022">
        <ele>1840.1</ele>
        <time>2020-10-18T08:37:31Z</time>
      </trkpt>
      <trkpt lat="42.9283" lon="0.44029">
        <ele>1840.1</ele>
        <time>2020-10-18T08:37:38Z</time>
      </trkpt>
      <trkpt lat="42.9283" lon="0.44033">
        <ele>1840.58</ele>
        <time>2020-10-18T08:37:41Z</time>
      </trkpt>
      <trkpt lat="42.92825" lon="0.44046">
        <ele>1841.54</ele>
        <time>2020-10-18T08:37:55Z</time>
      </trkpt>
      <trkpt lat="42.92821" lon="0.44054">
        <ele>1842.5</ele>
        <time>2020-10-18T08:38:08Z</time>
      </trkpt>
      <trkpt lat="42.92817" lon="0.44062">
        <ele>1843.95</ele>
        <time>2020-10-18T08:38:21Z</time>
      </trkpt>
      <trkpt lat="42.92812" lon="0.44071">
        <ele>1845.39</ele>
        <time>2020-10-18T08:38:38Z</time>
      </trkpt>
      <trkpt lat="42.92808" lon="0.44081">
        <ele>1846.35</ele>
        <time>2020-10-18T08:38:53Z</time>
      </trkpt>
      <trkpt lat="42.92804" lon="0.44091">
        <ele>1847.79</ele>
        <time>2020-10-18T08:39:10Z</time>
      </trkpt>
      <trkpt lat="42.928" lon="0.44102">
        <ele>1849.71</ele>
        <time>2020-10-18T08:39:27Z</time>
      </trkpt>
      <trkpt lat="42.92795" lon="0.44114">
        <ele>1850.68</ele>
        <time>2020-10-18T08:39:44Z</time>
      </trkpt>
      <trkpt lat="42.92792" lon="0.44122">
        <ele>1852.12</ele>
        <time>2020-10-18T08:39:58Z</time>
      </trkpt>
      <trkpt lat="42.9279" lon="0.44127">
        <ele>1853.08</ele>
        <time>2020-10-18T08:40:13Z</time>
      </trkpt>
      <trkpt lat="42.92787" lon="0.44137">
        <ele>1854.04</ele>
        <time>2020-10-18T08:40:28Z</time>
      </trkpt>
      <trkpt lat="42.92784" lon="0.44147">
        <ele>1855.96</ele>
        <time>2020-10-18T08:40:44Z</time>
      </trkpt>
      <trkpt lat="42.92781" lon="0.44154">
        <ele>1857.4</ele>
        <time>2020-10-18T08:40:58Z</time>
      </trkpt>
      <trkpt lat="42.92776" lon="0.44164">
        <ele>1859.33</ele>
        <time>2020-10-18T08:41:15Z</time>
      </trkpt>
      <trkpt lat="42.92773" lon="0.44172">
        <ele>1860.29</ele>
        <time>2020-10-18T08:41:29Z</time>
      </trkpt>
      <trkpt lat="42.92773" lon="0.44173">
        <ele>1860.29</ele>
        <time>2020-10-18T08:41:42Z</time>
      </trkpt>
      <trkpt lat="42.92772" lon="0.44174">
        <ele>1860.29</ele>
        <time>2020-10-18T08:42:02Z</time>
      </trkpt>
      <trkpt lat="42.92771" lon="0.44173">
        <ele>1860.29</ele>
        <time>2020-10-18T08:42:30Z</time>
      </trkpt>
      <trkpt lat="42.92772" lon="0.44173">
        <ele>1860.77</ele>
        <time>2020-10-18T08:42:55Z</time>
      </trkpt>
      <trkpt lat="42.92772" lon="0.44173">
        <ele>1860.77</ele>
        <time>2020-10-18T08:43:20Z</time>
      </trkpt>
      <trkpt lat="42.92773" lon="0.44173">
        <ele>1860.77</ele>
        <time>2020-10-18T08:43:54Z</time>
      </trkpt>
      <trkpt lat="42.92772" lon="0.44172">
        <ele>1859.81</ele>
        <time>2020-10-18T08:44:16Z</time>
      </trkpt>
      <trkpt lat="42.92772" lon="0.44172">
        <ele>1859.81</ele>
        <time>2020-10-18T08:44:35Z</time>
      </trkpt>
      <trkpt lat="42.92771" lon="0.44171">
        <ele>1859.81</ele>
        <time>2020-10-18T08:45:16Z</time>
      </trkpt>
      <trkpt lat="42.92772" lon="0.44173">
        <ele>1860.29</ele>
        <time>2020-10-18T08:45:35Z</time>
      </trkpt>
      <trkpt lat="42.9277" lon="0.44177">
        <ele>1860.29</ele>
        <time>2020-10-18T08:45:41Z</time>
      </trkpt>
      <trkpt lat="42.92765" lon="0.44184">
        <ele>1860.29</ele>
        <time>2020-10-18T08:45:54Z</time>
      </trkpt>
      <trkpt lat="42.92758" lon="0.44195">
        <ele>1861.25</ele>
        <time>2020-10-18T08:46:08Z</time>
      </trkpt>
      <trkpt lat="42.9275" lon="0.44207">
        <ele>1861.25</ele>
        <time>2020-10-18T08:46:21Z</time>
      </trkpt>
      <trkpt lat="42.92742" lon="0.44216">
        <ele>1859.81</ele>
        <time>2020-10-18T08:46:36Z</time>
      </trkpt>
      <trkpt lat="42.92736" lon="0.44222">
        <ele>1859.33</ele>
        <time>2020-10-18T08:46:49Z</time>
      </trkpt>
      <trkpt lat="42.92734" lon="0.44229">
        <ele>1858.37</ele>
        <time>2020-10-18T08:47:03Z</time>
      </trkpt>
      <trkpt lat="42.9273" lon="0.44237">
        <ele>1857.89</ele>
        <time>2020-10-18T08:47:13Z</time>
      </trkpt>
      <trkpt lat="42.92724" lon="0.44251">
        <ele>1855.96</ele>
        <time>2020-10-18T08:47:27Z</time>
      </trkpt>
      <trkpt lat="42.9272" lon="0.44265">
        <ele>1855</ele>
        <time>2020-10-18T08:47:41Z</time>
      </trkpt>
      <trkpt lat="42.92715" lon="0.44279">
        <ele>1855</ele>
        <time>2020-10-18T08:47:56Z</time>
      </trkpt>
      <trkpt lat="42.9271" lon="0.44289">
        <ele>1854.04</ele>
        <time>2020-10-18T08:48:08Z</time>
      </trkpt>
      <trkpt lat="42.92708" lon="0.44293">
        <ele>1854.04</ele>
        <time>2020-10-18T08:48:23Z</time>
      </trkpt>
      <trkpt lat="42.92705" lon="0.44299">
        <ele>1855.96</ele>
        <time>2020-10-18T08:48:38Z</time>
      </trkpt>
      <trkpt lat="42.92704" lon="0.44304">
        <ele>1856.92</ele>
        <time>2020-10-18T08:48:53Z</time>
      </trkpt>
      <trkpt lat="42.92704" lon="0.44311">
        <ele>1858.85</ele>
        <time>2020-10-18T08:49:11Z</time>
      </trkpt>
      <trkpt lat="42.92702" lon="0.44316">
        <ele>1860.29</ele>
        <time>2020-10-18T08:49:24Z</time>
      </trkpt>
      <trkpt lat="42.927" lon="0.44321">
        <ele>1861.73</ele>
        <time>2020-10-18T08:49:40Z</time>
      </trkpt>
      <trkpt lat="42.92699" lon="0.44324">
        <ele>1862.21</ele>
        <time>2020-10-18T08:49:56Z</time>
      </trkpt>
      <trkpt lat="42.92696" lon="0.44328">
        <ele>1863.65</ele>
        <time>2020-10-18T08:50:11Z</time>
      </trkpt>
      <trkpt lat="42.92692" lon="0.44333">
        <ele>1865.58</ele>
        <time>2020-10-18T08:50:25Z</time>
      </trkpt>
      <trkpt lat="42.92691" lon="0.44337">
        <ele>1866.06</ele>
        <time>2020-10-18T08:50:41Z</time>
      </trkpt>
      <trkpt lat="42.9269" lon="0.44339">
        <ele>1867.02</ele>
        <time>2020-10-18T08:50:59Z</time>
      </trkpt>
      <trkpt lat="42.92688" lon="0.44342">
        <ele>1867.02</ele>
        <time>2020-10-18T08:51:14Z</time>
      </trkpt>
      <trkpt lat="42.92684" lon="0.44346">
        <ele>1867.02</ele>
        <time>2020-10-18T08:51:27Z</time>
      </trkpt>
      <trkpt lat="42.92683" lon="0.44348">
        <ele>1867.02</ele>
        <time>2020-10-18T08:51:49Z</time>
      </trkpt>
      <trkpt lat="42.92678" lon="0.4435">
        <ele>1864.13</ele>
        <time>2020-10-18T08:52:06Z</time>
      </trkpt>
      <trkpt lat="42.92674" lon="0.44352">
        <ele>1862.21</ele>
        <time>2020-10-18T08:52:22Z</time>
      </trkpt>
      <trkpt lat="42.92672" lon="0.44352">
        <ele>1861.25</ele>
        <time>2020-10-18T08:52:37Z</time>
      </trkpt>
      <trkpt lat="42.92669" lon="0.44356">
        <ele>1860.29</ele>
        <time>2020-10-18T08:52:52Z</time>
      </trkpt>
      <trkpt lat="42.92667" lon="0.44362">
        <ele>1860.77</ele>
        <time>2020-10-18T08:53:06Z</time>
      </trkpt>
      <trkpt lat="42.92666" lon="0.44363">
        <ele>1861.73</ele>
        <time>2020-10-18T08:53:09Z</time>
      </trkpt>
      <trkpt lat="42.92664" lon="0.4437">
        <ele>1863.17</ele>
        <time>2020-10-18T08:53:26Z</time>
      </trkpt>
      <trkpt lat="42.92662" lon="0.44374">
        <ele>1863.65</ele>
        <time>2020-10-18T08:53:40Z</time>
      </trkpt>
      <trkpt lat="42.92659" lon="0.44377">
        <ele>1864.13</ele>
        <time>2020-10-18T08:53:54Z</time>
      </trkpt>
      <trkpt lat="42.92658" lon="0.4438">
        <ele>1864.13</ele>
        <time>2020-10-18T08:54:15Z</time>
      </trkpt>
      <trkpt lat="42.92655" lon="0.44384">
        <ele>1864.13</ele>
        <time>2020-10-18T08:54:33Z</time>
      </trkpt>
      <trkpt lat="42.92653" lon="0.44389">
        <ele>1864.61</ele>
        <time>2020-10-18T08:54:45Z</time>
      </trkpt>
      <trkpt lat="42.92652" lon="0.44394">
        <ele>1866.06</ele>
        <time>2020-10-18T08:54:59Z</time>
      </trkpt>
      <trkpt lat="42.92649" lon="0.444">
        <ele>1866.54</ele>
        <time>2020-10-18T08:55:15Z</time>
      </trkpt>
      <trkpt lat="42.92645" lon="0.44406">
        <ele>1866.54</ele>
        <time>2020-10-18T08:55:29Z</time>
      </trkpt>
      <trkpt lat="42.92643" lon="0.44411">
        <ele>1867.02</ele>
        <time>2020-10-18T08:55:41Z</time>
      </trkpt>
      <trkpt lat="42.9264" lon="0.44418">
        <ele>1867.5</ele>
        <time>2020-10-18T08:55:58Z</time>
      </trkpt>
      <trkpt lat="42.92638" lon="0.44423">
        <ele>1868.46</ele>
        <time>2020-10-18T08:56:11Z</time>
      </trkpt>
      <trkpt lat="42.92637" lon="0.44427">
        <ele>1868.46</ele>
        <time>2020-10-18T08:56:30Z</time>
      </trkpt>
      <trkpt lat="42.92636" lon="0.44431">
        <ele>1869.42</ele>
        <time>2020-10-18T08:56:47Z</time>
      </trkpt>
      <trkpt lat="42.92637" lon="0.44436">
        <ele>1870.86</ele>
        <time>2020-10-18T08:57:01Z</time>
      </trkpt>
      <trkpt lat="42.92636" lon="0.44441">
        <ele>1872.3</ele>
        <time>2020-10-18T08:57:18Z</time>
      </trkpt>
      <trkpt lat="42.92635" lon="0.44447">
        <ele>1874.23</ele>
        <time>2020-10-18T08:57:32Z</time>
      </trkpt>
      <trkpt lat="42.9263" lon="0.44456">
        <ele>1874.23</ele>
        <time>2020-10-18T08:57:49Z</time>
      </trkpt>
      <trkpt lat="42.92627" lon="0.44462">
        <ele>1874.71</ele>
        <time>2020-10-18T08:58:05Z</time>
      </trkpt>
      <trkpt lat="42.92626" lon="0.44467">
        <ele>1876.15</ele>
        <time>2020-10-18T08:58:19Z</time>
      </trkpt>
      <trkpt lat="42.92623" lon="0.44472">
        <ele>1876.15</ele>
        <time>2020-10-18T08:58:35Z</time>
      </trkpt>
      <trkpt lat="42.92618" lon="0.44477">
        <ele>1876.63</ele>
        <time>2020-10-18T08:58:48Z</time>
      </trkpt>
      <trkpt lat="42.92618" lon="0.44485">
        <ele>1877.59</ele>
        <time>2020-10-18T08:59:00Z</time>
      </trkpt>
      <trkpt lat="42.92614" lon="0.44493">
        <ele>1878.07</ele>
        <time>2020-10-18T08:59:15Z</time>
      </trkpt>
      <trkpt lat="42.9261" lon="0.44501">
        <ele>1879.03</ele>
        <time>2020-10-18T08:59:32Z</time>
      </trkpt>
      <trkpt lat="42.92605" lon="0.44506">
        <ele>1879.03</ele>
        <time>2020-10-18T08:59:46Z</time>
      </trkpt>
      <trkpt lat="42.92599" lon="0.44514">
        <ele>1878.07</ele>
        <time>2020-10-18T09:00:00Z</time>
      </trkpt>
      <trkpt lat="42.92593" lon="0.4452">
        <ele>1878.07</ele>
        <time>2020-10-18T09:00:14Z</time>
      </trkpt>
      <trkpt lat="42.92588" lon="0.44525">
        <ele>1877.59</ele>
        <time>2020-10-18T09:00:28Z</time>
      </trkpt>
      <trkpt lat="42.92582" lon="0.44534">
        <ele>1877.59</ele>
        <time>2020-10-18T09:00:44Z</time>
      </trkpt>
      <trkpt lat="42.9258" lon="0.44538">
        <ele>1877.11</ele>
        <time>2020-10-18T09:00:48Z</time>
      </trkpt>
      <trkpt lat="42.92573" lon="0.44544">
        <ele>1876.15</ele>
        <time>2020-10-18T09:01:01Z</time>
      </trkpt>
      <trkpt lat="42.9257" lon="0.44547">
        <ele>1876.15</ele>
        <time>2020-10-18T09:01:14Z</time>
      </trkpt>
      <trkpt lat="42.92568" lon="0.44551">
        <ele>1876.15</ele>
        <time>2020-10-18T09:01:36Z</time>
      </trkpt>
      <trkpt lat="42.92563" lon="0.44555">
        <ele>1875.67</ele>
        <time>2020-10-18T09:01:50Z</time>
      </trkpt>
      <trkpt lat="42.9256" lon="0.4456">
        <ele>1874.71</ele>
        <time>2020-10-18T09:02:02Z</time>
      </trkpt>
      <trkpt lat="42.92555" lon="0.44564">
        <ele>1876.15</ele>
        <time>2020-10-18T09:02:09Z</time>
      </trkpt>
      <trkpt lat="42.92551" lon="0.4457">
        <ele>1876.63</ele>
        <time>2020-10-18T09:02:24Z</time>
      </trkpt>
      <trkpt lat="42.92548" lon="0.44575">
        <ele>1878.07</ele>
        <time>2020-10-18T09:02:39Z</time>
      </trkpt>
      <trkpt lat="42.92545" lon="0.44578">
        <ele>1879.03</ele>
        <time>2020-10-18T09:02:53Z</time>
      </trkpt>
      <trkpt lat="42.92542" lon="0.44582">
        <ele>1880</ele>
        <time>2020-10-18T09:03:08Z</time>
      </trkpt>
      <trkpt lat="42.9254" lon="0.44585">
        <ele>1880.96</ele>
        <time>2020-10-18T09:03:20Z</time>
      </trkpt>
      <trkpt lat="42.92538" lon="0.44587">
        <ele>1881.44</ele>
        <time>2020-10-18T09:03:37Z</time>
      </trkpt>
      <trkpt lat="42.92535" lon="0.44591">
        <ele>1882.88</ele>
        <time>2020-10-18T09:03:54Z</time>
      </trkpt>
      <trkpt lat="42.92532" lon="0.44597">
        <ele>1884.8</ele>
        <time>2020-10-18T09:04:09Z</time>
      </trkpt>
      <trkpt lat="42.9253" lon="0.44601">
        <ele>1885.76</ele>
        <time>2020-10-18T09:04:23Z</time>
      </trkpt>
      <trkpt lat="42.92528" lon="0.44603">
        <ele>1886.24</ele>
        <time>2020-10-18T09:04:37Z</time>
      </trkpt>
      <trkpt lat="42.92524" lon="0.44608">
        <ele>1887.21</ele>
        <time>2020-10-18T09:04:54Z</time>
      </trkpt>
      <trkpt lat="42.92523" lon="0.44611">
        <ele>1887.69</ele>
        <time>2020-10-18T09:05:09Z</time>
      </trkpt>
      <trkpt lat="42.9252" lon="0.44612">
        <ele>1888.65</ele>
        <time>2020-10-18T09:05:26Z</time>
      </trkpt>
      <trkpt lat="42.92517" lon="0.44618">
        <ele>1888.65</ele>
        <time>2020-10-18T09:05:40Z</time>
      </trkpt>
      <trkpt lat="42.92514" lon="0.44622">
        <ele>1889.61</ele>
        <time>2020-10-18T09:05:54Z</time>
      </trkpt>
      <trkpt lat="42.9251" lon="0.44625">
        <ele>1890.57</ele>
        <time>2020-10-18T09:06:09Z</time>
      </trkpt>
      <trkpt lat="42.92506" lon="0.44631">
        <ele>1891.53</ele>
        <time>2020-10-18T09:06:25Z</time>
      </trkpt>
      <trkpt lat="42.92502" lon="0.44632">
        <ele>1892.49</ele>
        <time>2020-10-18T09:06:39Z</time>
      </trkpt>
      <trkpt lat="42.92499" lon="0.44637">
        <ele>1893.45</ele>
        <time>2020-10-18T09:06:56Z</time>
      </trkpt>
      <trkpt lat="42.92496" lon="0.44643">
        <ele>1894.9</ele>
        <time>2020-10-18T09:07:11Z</time>
      </trkpt>
      <trkpt lat="42.92492" lon="0.44647">
        <ele>1895.86</ele>
        <time>2020-10-18T09:07:26Z</time>
      </trkpt>
      <trkpt lat="42.92488" lon="0.44652">
        <ele>1896.82</ele>
        <time>2020-10-18T09:07:40Z</time>
      </trkpt>
      <trkpt lat="42.92485" lon="0.44656">
        <ele>1897.78</ele>
        <time>2020-10-18T09:07:54Z</time>
      </trkpt>
      <trkpt lat="42.92482" lon="0.4466">
        <ele>1898.74</ele>
        <time>2020-10-18T09:08:09Z</time>
      </trkpt>
      <trkpt lat="42.92478" lon="0.44665">
        <ele>1899.22</ele>
        <time>2020-10-18T09:08:24Z</time>
      </trkpt>
      <trkpt lat="42.92477" lon="0.44667">
        <ele>1899.22</ele>
        <time>2020-10-18T09:08:38Z</time>
      </trkpt>
      <trkpt lat="42.92475" lon="0.4467">
        <ele>1899.7</ele>
        <time>2020-10-18T09:08:56Z</time>
      </trkpt>
      <trkpt lat="42.92475" lon="0.44671">
        <ele>1900.18</ele>
        <time>2020-10-18T09:09:14Z</time>
      </trkpt>
      <trkpt lat="42.92473" lon="0.44674">
        <ele>1900.18</ele>
        <time>2020-10-18T09:09:32Z</time>
      </trkpt>
      <trkpt lat="42.9247" lon="0.44674">
        <ele>1900.18</ele>
        <time>2020-10-18T09:09:49Z</time>
      </trkpt>
      <trkpt lat="42.92467" lon="0.44678">
        <ele>1897.3</ele>
        <time>2020-10-18T09:10:02Z</time>
      </trkpt>
      <trkpt lat="42.92464" lon="0.4468">
        <ele>1896.82</ele>
        <time>2020-10-18T09:10:19Z</time>
      </trkpt>
      <trkpt lat="42.92463" lon="0.44682">
        <ele>1896.82</ele>
        <time>2020-10-18T09:10:32Z</time>
      </trkpt>
      <trkpt lat="42.92459" lon="0.44684">
        <ele>1894.9</ele>
        <time>2020-10-18T09:10:47Z</time>
      </trkpt>
      <trkpt lat="42.92453" lon="0.44688">
        <ele>1893.45</ele>
        <time>2020-10-18T09:11:01Z</time>
      </trkpt>
      <trkpt lat="42.92449" lon="0.44693">
        <ele>1892.49</ele>
        <time>2020-10-18T09:11:13Z</time>
      </trkpt>
      <trkpt lat="42.92445" lon="0.44697">
        <ele>1891.53</ele>
        <time>2020-10-18T09:11:29Z</time>
      </trkpt>
      <trkpt lat="42.92441" lon="0.447">
        <ele>1889.61</ele>
        <time>2020-10-18T09:11:44Z</time>
      </trkpt>
      <trkpt lat="42.92434" lon="0.447">
        <ele>1887.21</ele>
        <time>2020-10-18T09:11:59Z</time>
      </trkpt>
      <trkpt lat="42.9243" lon="0.44699">
        <ele>1886.24</ele>
        <time>2020-10-18T09:12:13Z</time>
      </trkpt>
      <trkpt lat="42.92421" lon="0.44703">
        <ele>1885.76</ele>
        <time>2020-10-18T09:12:28Z</time>
      </trkpt>
      <trkpt lat="42.92413" lon="0.44708">
        <ele>1882.4</ele>
        <time>2020-10-18T09:12:43Z</time>
      </trkpt>
      <trkpt lat="42.92406" lon="0.44712">
        <ele>1880.96</ele>
        <time>2020-10-18T09:12:57Z</time>
      </trkpt>
      <trkpt lat="42.92401" lon="0.44717">
        <ele>1880.48</ele>
        <time>2020-10-18T09:13:09Z</time>
      </trkpt>
      <trkpt lat="42.92388" lon="0.44722">
        <ele>1879.51</ele>
        <time>2020-10-18T09:13:25Z</time>
      </trkpt>
      <trkpt lat="42.92386" lon="0.44723">
        <ele>1879.51</ele>
        <time>2020-10-18T09:13:28Z</time>
      </trkpt>
      <trkpt lat="42.92378" lon="0.44727">
        <ele>1878.07</ele>
        <time>2020-10-18T09:13:41Z</time>
      </trkpt>
      <trkpt lat="42.92363" lon="0.44735">
        <ele>1876.63</ele>
        <time>2020-10-18T09:13:59Z</time>
      </trkpt>
      <trkpt lat="42.92355" lon="0.44742">
        <ele>1875.19</ele>
        <time>2020-10-18T09:14:12Z</time>
      </trkpt>
      <trkpt lat="42.92349" lon="0.44747">
        <ele>1874.23</ele>
        <time>2020-10-18T09:14:21Z</time>
      </trkpt>
      <trkpt lat="42.92342" lon="0.44742">
        <ele>1873.27</ele>
        <time>2020-10-18T09:14:35Z</time>
      </trkpt>
      <trkpt lat="42.92338" lon="0.44741">
        <ele>1872.3</ele>
        <time>2020-10-18T09:14:49Z</time>
      </trkpt>
      <trkpt lat="42.92335" lon="0.44746">
        <ele>1871.82</ele>
        <time>2020-10-18T09:15:04Z</time>
      </trkpt>
      <trkpt lat="42.92332" lon="0.44746">
        <ele>1871.34</ele>
        <time>2020-10-18T09:15:15Z</time>
      </trkpt>
      <trkpt lat="42.9233" lon="0.44748">
        <ele>1869.9</ele>
        <time>2020-10-18T09:15:29Z</time>
      </trkpt>
      <trkpt lat="42.92328" lon="0.44753">
        <ele>1869.42</ele>
        <time>2020-10-18T09:15:41Z</time>
      </trkpt>
      <trkpt lat="42.9232" lon="0.44758">
        <ele>1866.54</ele>
        <time>2020-10-18T09:15:55Z</time>
      </trkpt>
      <trkpt lat="42.92314" lon="0.44758">
        <ele>1864.13</ele>
        <time>2020-10-18T09:16:10Z</time>
      </trkpt>
      <trkpt lat="42.92305" lon="0.4476">
        <ele>1861.25</ele>
        <time>2020-10-18T09:16:26Z</time>
      </trkpt>
      <trkpt lat="42.92302" lon="0.44761">
        <ele>1860.77</ele>
        <time>2020-10-18T09:16:30Z</time>
      </trkpt>
      <trkpt lat="42.92291" lon="0.44766">
        <ele>1858.37</ele>
        <time>2020-10-18T09:16:45Z</time>
      </trkpt>
      <trkpt lat="42.92283" lon="0.44769">
        <ele>1855.96</ele>
        <time>2020-10-18T09:16:59Z</time>
      </trkpt>
      <trkpt lat="42.92275" lon="0.44772">
        <ele>1854.52</ele>
        <time>2020-10-18T09:17:13Z</time>
      </trkpt>
      <trkpt lat="42.92271" lon="0.44772">
        <ele>1854.52</ele>
        <time>2020-10-18T09:17:26Z</time>
      </trkpt>
      <trkpt lat="42.9227" lon="0.44775">
        <ele>1854.52</ele>
        <time>2020-10-18T09:17:41Z</time>
      </trkpt>
      <trkpt lat="42.92269" lon="0.44776">
        <ele>1854.52</ele>
        <time>2020-10-18T09:18:08Z</time>
      </trkpt>
      <trkpt lat="42.92269" lon="0.44775">
        <ele>1854.52</ele>
        <time>2020-10-18T09:18:40Z</time>
      </trkpt>
      <trkpt lat="42.92268" lon="0.44774">
        <ele>1854.52</ele>
        <time>2020-10-18T09:19:08Z</time>
      </trkpt>
      <trkpt lat="42.9227" lon="0.44777">
        <ele>1854.04</ele>
        <time>2020-10-18T09:19:34Z</time>
      </trkpt>
      <trkpt lat="42.9227" lon="0.44776">
        <ele>1857.89</ele>
        <time>2020-10-18T09:19:49Z</time>
      </trkpt>
      <trkpt lat="42.9227" lon="0.44777">
        <ele>1854.04</ele>
        <time>2020-10-18T09:19:50Z</time>
      </trkpt>
      <trkpt lat="42.92267" lon="0.44777">
        <ele>1853.56</ele>
        <time>2020-10-18T09:20:13Z</time>
      </trkpt>
      <trkpt lat="42.92265" lon="0.44778">
        <ele>1853.56</ele>
        <time>2020-10-18T09:20:27Z</time>
      </trkpt>
      <trkpt lat="42.92263" lon="0.44778">
        <ele>1852.6</ele>
        <time>2020-10-18T09:20:30Z</time>
      </trkpt>
      <trkpt lat="42.92254" lon="0.44787">
        <ele>1852.12</ele>
        <time>2020-10-18T09:20:46Z</time>
      </trkpt>
      <trkpt lat="42.92249" lon="0.4479">
        <ele>1852.12</ele>
        <time>2020-10-18T09:20:59Z</time>
      </trkpt>
      <trkpt lat="42.92248" lon="0.44789">
        <ele>1852.12</ele>
        <time>2020-10-18T09:21:16Z</time>
      </trkpt>
      <trkpt lat="42.92246" lon="0.44791">
        <ele>1852.12</ele>
        <time>2020-10-18T09:21:28Z</time>
      </trkpt>
      <trkpt lat="42.92242" lon="0.44792">
        <ele>1854.04</ele>
        <time>2020-10-18T09:21:43Z</time>
      </trkpt>
      <trkpt lat="42.92236" lon="0.44794">
        <ele>1854.52</ele>
        <time>2020-10-18T09:21:56Z</time>
      </trkpt>
      <trkpt lat="42.92235" lon="0.44794">
        <ele>1854.52</ele>
        <time>2020-10-18T09:22:10Z</time>
      </trkpt>
      <trkpt lat="42.92229" lon="0.448">
        <ele>1855.96</ele>
        <time>2020-10-18T09:22:24Z</time>
      </trkpt>
      <trkpt lat="42.92228" lon="0.448">
        <ele>1856.92</ele>
        <time>2020-10-18T09:22:40Z</time>
      </trkpt>
      <trkpt lat="42.92223" lon="0.44803">
        <ele>1857.89</ele>
        <time>2020-10-18T09:22:55Z</time>
      </trkpt>
      <trkpt lat="42.9222" lon="0.44806">
        <ele>1858.85</ele>
        <time>2020-10-18T09:23:14Z</time>
      </trkpt>
      <trkpt lat="42.92219" lon="0.44806">
        <ele>1859.33</ele>
        <time>2020-10-18T09:23:32Z</time>
      </trkpt>
      <trkpt lat="42.92215" lon="0.44805">
        <ele>1859.81</ele>
        <time>2020-10-18T09:23:49Z</time>
      </trkpt>
      <trkpt lat="42.9221" lon="0.44805">
        <ele>1860.77</ele>
        <time>2020-10-18T09:24:11Z</time>
      </trkpt>
      <trkpt lat="42.922" lon="0.44806">
        <ele>1863.17</ele>
        <time>2020-10-18T09:24:26Z</time>
      </trkpt>
      <trkpt lat="42.92192" lon="0.44802">
        <ele>1864.61</ele>
        <time>2020-10-18T09:24:40Z</time>
      </trkpt>
      <trkpt lat="42.92185" lon="0.44796">
        <ele>1866.54</ele>
        <time>2020-10-18T09:24:53Z</time>
      </trkpt>
      <trkpt lat="42.92182" lon="0.44793">
        <ele>1867.02</ele>
        <time>2020-10-18T09:25:11Z</time>
      </trkpt>
      <trkpt lat="42.92179" lon="0.44789">
        <ele>1867.5</ele>
        <time>2020-10-18T09:25:27Z</time>
      </trkpt>
      <trkpt lat="42.92175" lon="0.44784">
        <ele>1869.42</ele>
        <time>2020-10-18T09:25:42Z</time>
      </trkpt>
      <trkpt lat="42.92172" lon="0.44783">
        <ele>1870.38</ele>
        <time>2020-10-18T09:25:56Z</time>
      </trkpt>
      <trkpt lat="42.92172" lon="0.44783">
        <ele>1870.38</ele>
        <time>2020-10-18T09:26:19Z</time>
      </trkpt>
      <trkpt lat="42.92171" lon="0.44783">
        <ele>1870.86</ele>
        <time>2020-10-18T09:26:44Z</time>
      </trkpt>
      <trkpt lat="42.9217" lon="0.44782">
        <ele>1870.86</ele>
        <time>2020-10-18T09:27:04Z</time>
      </trkpt>
      <trkpt lat="42.92164" lon="0.44781">
        <ele>1872.79</ele>
        <time>2020-10-18T09:27:18Z</time>
      </trkpt>
      <trkpt lat="42.9216" lon="0.4478">
        <ele>1873.75</ele>
        <time>2020-10-18T09:27:32Z</time>
      </trkpt>
      <trkpt lat="42.92155" lon="0.44781">
        <ele>1875.67</ele>
        <time>2020-10-18T09:27:46Z</time>
      </trkpt>
      <trkpt lat="42.92154" lon="0.44782">
        <ele>1875.67</ele>
        <time>2020-10-18T09:28:02Z</time>
      </trkpt>
      <trkpt lat="42.9215" lon="0.44783">
        <ele>1876.63</ele>
        <time>2020-10-18T09:28:21Z</time>
      </trkpt>
      <trkpt lat="42.92145" lon="0.44782">
        <ele>1878.07</ele>
        <time>2020-10-18T09:28:33Z</time>
      </trkpt>
      <trkpt lat="42.92137" lon="0.44777">
        <ele>1880.96</ele>
        <time>2020-10-18T09:28:48Z</time>
      </trkpt>
      <trkpt lat="42.92128" lon="0.44776">
        <ele>1881.92</ele>
        <time>2020-10-18T09:29:00Z</time>
      </trkpt>
      <trkpt lat="42.92121" lon="0.44777">
        <ele>1882.88</ele>
        <time>2020-10-18T09:29:14Z</time>
      </trkpt>
      <trkpt lat="42.92115" lon="0.44778">
        <ele>1884.32</ele>
        <time>2020-10-18T09:29:27Z</time>
      </trkpt>
      <trkpt lat="42.92108" lon="0.4478">
        <ele>1885.28</ele>
        <time>2020-10-18T09:29:43Z</time>
      </trkpt>
      <trkpt lat="42.92103" lon="0.44786">
        <ele>1886.24</ele>
        <time>2020-10-18T09:29:55Z</time>
      </trkpt>
      <trkpt lat="42.92094" lon="0.44793">
        <ele>1887.69</ele>
        <time>2020-10-18T09:30:12Z</time>
      </trkpt>
      <trkpt lat="42.92087" lon="0.44796">
        <ele>1888.17</ele>
        <time>2020-10-18T09:30:22Z</time>
      </trkpt>
      <trkpt lat="42.92078" lon="0.44801">
        <ele>1888.65</ele>
        <time>2020-10-18T09:30:35Z</time>
      </trkpt>
      <trkpt lat="42.92069" lon="0.44803">
        <ele>1888.65</ele>
        <time>2020-10-18T09:30:48Z</time>
      </trkpt>
      <trkpt lat="42.92062" lon="0.44805">
        <ele>1889.13</ele>
        <time>2020-10-18T09:31:00Z</time>
      </trkpt>
      <trkpt lat="42.92059" lon="0.44807">
        <ele>1889.13</ele>
        <time>2020-10-18T09:31:14Z</time>
      </trkpt>
      <trkpt lat="42.92055" lon="0.4481">
        <ele>1889.13</ele>
        <time>2020-10-18T09:31:32Z</time>
      </trkpt>
      <trkpt lat="42.92047" lon="0.44816">
        <ele>1889.61</ele>
        <time>2020-10-18T09:31:46Z</time>
      </trkpt>
      <trkpt lat="42.92041" lon="0.4482">
        <ele>1889.61</ele>
        <time>2020-10-18T09:31:58Z</time>
      </trkpt>
      <trkpt lat="42.92034" lon="0.44826">
        <ele>1889.61</ele>
        <time>2020-10-18T09:32:13Z</time>
      </trkpt>
      <trkpt lat="42.92029" lon="0.4483">
        <ele>1889.61</ele>
        <time>2020-10-18T09:32:28Z</time>
      </trkpt>
      <trkpt lat="42.92026" lon="0.44834">
        <ele>1889.61</ele>
        <time>2020-10-18T09:32:42Z</time>
      </trkpt>
      <trkpt lat="42.9202" lon="0.44841">
        <ele>1889.61</ele>
        <time>2020-10-18T09:32:56Z</time>
      </trkpt>
      <trkpt lat="42.92018" lon="0.44843">
        <ele>1890.09</ele>
        <time>2020-10-18T09:33:01Z</time>
      </trkpt>
      <trkpt lat="42.92011" lon="0.44849">
        <ele>1890.09</ele>
        <time>2020-10-18T09:33:14Z</time>
      </trkpt>
      <trkpt lat="42.92008" lon="0.44854">
        <ele>1890.09</ele>
        <time>2020-10-18T09:33:31Z</time>
      </trkpt>
      <trkpt lat="42.92006" lon="0.44858">
        <ele>1890.57</ele>
        <time>2020-10-18T09:33:47Z</time>
      </trkpt>
      <trkpt lat="42.92003" lon="0.44862">
        <ele>1890.57</ele>
        <time>2020-10-18T09:33:59Z</time>
      </trkpt>
      <trkpt lat="42.91997" lon="0.44867">
        <ele>1890.57</ele>
        <time>2020-10-18T09:34:08Z</time>
      </trkpt>
      <trkpt lat="42.91988" lon="0.44878">
        <ele>1890.57</ele>
        <time>2020-10-18T09:34:26Z</time>
      </trkpt>
      <trkpt lat="42.91984" lon="0.44884">
        <ele>1891.05</ele>
        <time>2020-10-18T09:34:43Z</time>
      </trkpt>
      <trkpt lat="42.91977" lon="0.44892">
        <ele>1891.53</ele>
        <time>2020-10-18T09:34:59Z</time>
      </trkpt>
      <trkpt lat="42.91975" lon="0.44901">
        <ele>1892.97</ele>
        <time>2020-10-18T09:35:15Z</time>
      </trkpt>
      <trkpt lat="42.91972" lon="0.44909">
        <ele>1893.45</ele>
        <time>2020-10-18T09:35:29Z</time>
      </trkpt>
      <trkpt lat="42.91969" lon="0.4492">
        <ele>1893.45</ele>
        <time>2020-10-18T09:35:43Z</time>
      </trkpt>
      <trkpt lat="42.91969" lon="0.44923">
        <ele>1893.45</ele>
        <time>2020-10-18T09:35:56Z</time>
      </trkpt>
      <trkpt lat="42.91966" lon="0.44933">
        <ele>1893.45</ele>
        <time>2020-10-18T09:36:13Z</time>
      </trkpt>
      <trkpt lat="42.91966" lon="0.44939">
        <ele>1894.42</ele>
        <time>2020-10-18T09:36:26Z</time>
      </trkpt>
      <trkpt lat="42.91964" lon="0.44948">
        <ele>1893.45</ele>
        <time>2020-10-18T09:36:44Z</time>
      </trkpt>
      <trkpt lat="42.91962" lon="0.44955">
        <ele>1893.45</ele>
        <time>2020-10-18T09:36:57Z</time>
      </trkpt>
      <trkpt lat="42.91962" lon="0.44964">
        <ele>1893.45</ele>
        <time>2020-10-18T09:37:13Z</time>
      </trkpt>
      <trkpt lat="42.91962" lon="0.44973">
        <ele>1893.45</ele>
        <time>2020-10-18T09:37:31Z</time>
      </trkpt>
      <trkpt lat="42.9196" lon="0.44979">
        <ele>1892.01</ele>
        <time>2020-10-18T09:37:48Z</time>
      </trkpt>
      <trkpt lat="42.91961" lon="0.44986">
        <ele>1890.57</ele>
        <time>2020-10-18T09:38:02Z</time>
      </trkpt>
      <trkpt lat="42.91964" lon="0.44992">
        <ele>1889.61</ele>
        <time>2020-10-18T09:38:18Z</time>
      </trkpt>
      <trkpt lat="42.91964" lon="0.45005">
        <ele>1887.21</ele>
        <time>2020-10-18T09:38:31Z</time>
      </trkpt>
      <trkpt lat="42.91962" lon="0.45018">
        <ele>1886.24</ele>
        <time>2020-10-18T09:38:43Z</time>
      </trkpt>
      <trkpt lat="42.91956" lon="0.45036">
        <ele>1883.84</ele>
        <time>2020-10-18T09:38:59Z</time>
      </trkpt>
      <trkpt lat="42.91953" lon="0.45047">
        <ele>1884.8</ele>
        <time>2020-10-18T09:39:15Z</time>
      </trkpt>
      <trkpt lat="42.91952" lon="0.45048">
        <ele>1885.28</ele>
        <time>2020-10-18T09:39:37Z</time>
      </trkpt>
      <trkpt lat="42.91952" lon="0.45053">
        <ele>1885.76</ele>
        <time>2020-10-18T09:39:57Z</time>
      </trkpt>
      <trkpt lat="42.9195" lon="0.45059">
        <ele>1886.24</ele>
        <time>2020-10-18T09:40:12Z</time>
      </trkpt>
      <trkpt lat="42.9195" lon="0.45063">
        <ele>1887.69</ele>
        <time>2020-10-18T09:40:28Z</time>
      </trkpt>
      <trkpt lat="42.91947" lon="0.45074">
        <ele>1889.61</ele>
        <time>2020-10-18T09:40:40Z</time>
      </trkpt>
      <trkpt lat="42.91944" lon="0.45087">
        <ele>1891.05</ele>
        <time>2020-10-18T09:40:55Z</time>
      </trkpt>
      <trkpt lat="42.91939" lon="0.45095">
        <ele>1891.53</ele>
        <time>2020-10-18T09:41:09Z</time>
      </trkpt>
      <trkpt lat="42.91936" lon="0.45106">
        <ele>1892.97</ele>
        <time>2020-10-18T09:41:27Z</time>
      </trkpt>
      <trkpt lat="42.91934" lon="0.45115">
        <ele>1894.42</ele>
        <time>2020-10-18T09:41:40Z</time>
      </trkpt>
      <trkpt lat="42.91929" lon="0.45125">
        <ele>1894.9</ele>
        <time>2020-10-18T09:41:55Z</time>
      </trkpt>
      <trkpt lat="42.91926" lon="0.45133">
        <ele>1894.9</ele>
        <time>2020-10-18T09:42:11Z</time>
      </trkpt>
      <trkpt lat="42.91926" lon="0.45133">
        <ele>1894.9</ele>
        <time>2020-10-18T09:42:37Z</time>
      </trkpt>
      <trkpt lat="42.91923" lon="0.4514">
        <ele>1895.38</ele>
        <time>2020-10-18T09:42:53Z</time>
      </trkpt>
      <trkpt lat="42.91922" lon="0.45146">
        <ele>1897.3</ele>
        <time>2020-10-18T09:43:06Z</time>
      </trkpt>
      <trkpt lat="42.91917" lon="0.45151">
        <ele>1897.3</ele>
        <time>2020-10-18T09:43:19Z</time>
      </trkpt>
      <trkpt lat="42.91914" lon="0.45157">
        <ele>1897.78</ele>
        <time>2020-10-18T09:43:35Z</time>
      </trkpt>
      <trkpt lat="42.91909" lon="0.45163">
        <ele>1898.26</ele>
        <time>2020-10-18T09:43:49Z</time>
      </trkpt>
      <trkpt lat="42.91904" lon="0.4517">
        <ele>1899.22</ele>
        <time>2020-10-18T09:44:03Z</time>
      </trkpt>
      <trkpt lat="42.91901" lon="0.45175">
        <ele>1901.63</ele>
        <time>2020-10-18T09:44:18Z</time>
      </trkpt>
      <trkpt lat="42.91898" lon="0.45181">
        <ele>1902.59</ele>
        <time>2020-10-18T09:44:32Z</time>
      </trkpt>
      <trkpt lat="42.91894" lon="0.45187">
        <ele>1904.99</ele>
        <time>2020-10-18T09:44:49Z</time>
      </trkpt>
      <trkpt lat="42.9189" lon="0.45193">
        <ele>1906.43</ele>
        <time>2020-10-18T09:45:03Z</time>
      </trkpt>
      <trkpt lat="42.91886" lon="0.45198">
        <ele>1908.35</ele>
        <time>2020-10-18T09:45:16Z</time>
      </trkpt>
      <trkpt lat="42.91884" lon="0.45205">
        <ele>1910.28</ele>
        <time>2020-10-18T09:45:31Z</time>
      </trkpt>
      <trkpt lat="42.91881" lon="0.45215">
        <ele>1910.76</ele>
        <time>2020-10-18T09:45:45Z</time>
      </trkpt>
      <trkpt lat="42.91879" lon="0.45224">
        <ele>1910.76</ele>
        <time>2020-10-18T09:46:01Z</time>
      </trkpt>
      <trkpt lat="42.91878" lon="0.4523">
        <ele>1909.32</ele>
        <time>2020-10-18T09:46:18Z</time>
      </trkpt>
      <trkpt lat="42.91879" lon="0.45235">
        <ele>1908.35</ele>
        <time>2020-10-18T09:46:31Z</time>
      </trkpt>
      <trkpt lat="42.91881" lon="0.45238">
        <ele>1907.87</ele>
        <time>2020-10-18T09:46:51Z</time>
      </trkpt>
      <trkpt lat="42.91884" lon="0.45243">
        <ele>1907.39</ele>
        <time>2020-10-18T09:47:11Z</time>
      </trkpt>
      <trkpt lat="42.91886" lon="0.45248">
        <ele>1906.91</ele>
        <time>2020-10-18T09:47:18Z</time>
      </trkpt>
      <trkpt lat="42.9189" lon="0.45262">
        <ele>1905.95</ele>
        <time>2020-10-18T09:47:35Z</time>
      </trkpt>
      <trkpt lat="42.91895" lon="0.45274">
        <ele>1905.95</ele>
        <time>2020-10-18T09:47:48Z</time>
      </trkpt>
      <trkpt lat="42.91896" lon="0.45284">
        <ele>1905.95</ele>
        <time>2020-10-18T09:48:03Z</time>
      </trkpt>
      <trkpt lat="42.91896" lon="0.45297">
        <ele>1905.47</ele>
        <time>2020-10-18T09:48:18Z</time>
      </trkpt>
      <trkpt lat="42.91897" lon="0.45309">
        <ele>1904.99</ele>
        <time>2020-10-18T09:48:31Z</time>
      </trkpt>
      <trkpt lat="42.91895" lon="0.4533">
        <ele>1904.99</ele>
        <time>2020-10-18T09:48:49Z</time>
      </trkpt>
      <trkpt lat="42.91891" lon="0.45348">
        <ele>1904.99</ele>
        <time>2020-10-18T09:49:06Z</time>
      </trkpt>
      <trkpt lat="42.91888" lon="0.4536">
        <ele>1904.51</ele>
        <time>2020-10-18T09:49:20Z</time>
      </trkpt>
      <trkpt lat="42.91887" lon="0.4537">
        <ele>1906.43</ele>
        <time>2020-10-18T09:49:35Z</time>
      </trkpt>
      <trkpt lat="42.91884" lon="0.45379">
        <ele>1906.43</ele>
        <time>2020-10-18T09:49:48Z</time>
      </trkpt>
      <trkpt lat="42.91881" lon="0.45391">
        <ele>1907.87</ele>
        <time>2020-10-18T09:50:04Z</time>
      </trkpt>
      <trkpt lat="42.91876" lon="0.45404">
        <ele>1907.87</ele>
        <time>2020-10-18T09:50:18Z</time>
      </trkpt>
      <trkpt lat="42.91871" lon="0.45416">
        <ele>1908.83</ele>
        <time>2020-10-18T09:50:34Z</time>
      </trkpt>
      <trkpt lat="42.91867" lon="0.45428">
        <ele>1909.32</ele>
        <time>2020-10-18T09:50:49Z</time>
      </trkpt>
      <trkpt lat="42.91866" lon="0.45433">
        <ele>1909.8</ele>
        <time>2020-10-18T09:51:04Z</time>
      </trkpt>
      <trkpt lat="42.91865" lon="0.45435">
        <ele>1909.8</ele>
        <time>2020-10-18T09:51:34Z</time>
      </trkpt>
      <trkpt lat="42.91866" lon="0.45433">
        <ele>1909.8</ele>
        <time>2020-10-18T09:52:00Z</time>
      </trkpt>
      <trkpt lat="42.91866" lon="0.45432">
        <ele>1909.8</ele>
        <time>2020-10-18T09:52:24Z</time>
      </trkpt>
      <trkpt lat="42.91865" lon="0.45438">
        <ele>1910.28</ele>
        <time>2020-10-18T09:52:44Z</time>
      </trkpt>
      <trkpt lat="42.91864" lon="0.45442">
        <ele>1910.28</ele>
        <time>2020-10-18T09:52:57Z</time>
      </trkpt>
      <trkpt lat="42.91863" lon="0.45442">
        <ele>1910.28</ele>
        <time>2020-10-18T09:53:24Z</time>
      </trkpt>
      <trkpt lat="42.91863" lon="0.45443">
        <ele>1910.28</ele>
        <time>2020-10-18T09:53:46Z</time>
      </trkpt>
      <trkpt lat="42.91862" lon="0.45443">
        <ele>1910.28</ele>
        <time>2020-10-18T09:54:14Z</time>
      </trkpt>
      <trkpt lat="42.91863" lon="0.45447">
        <ele>1910.76</ele>
        <time>2020-10-18T09:54:35Z</time>
      </trkpt>
      <trkpt lat="42.91857" lon="0.45458">
        <ele>1910.76</ele>
        <time>2020-10-18T09:54:50Z</time>
      </trkpt>
      <trkpt lat="42.91855" lon="0.45469">
        <ele>1910.76</ele>
        <time>2020-10-18T09:55:03Z</time>
      </trkpt>
      <trkpt lat="42.9185" lon="0.45478">
        <ele>1910.76</ele>
        <time>2020-10-18T09:55:15Z</time>
      </trkpt>
      <trkpt lat="42.91846" lon="0.45488">
        <ele>1910.76</ele>
        <time>2020-10-18T09:55:28Z</time>
      </trkpt>
      <trkpt lat="42.91843" lon="0.45496">
        <ele>1911.24</ele>
        <time>2020-10-18T09:55:41Z</time>
      </trkpt>
      <trkpt lat="42.91839" lon="0.45504">
        <ele>1911.72</ele>
        <time>2020-10-18T09:55:55Z</time>
      </trkpt>
      <trkpt lat="42.91835" lon="0.45513">
        <ele>1911.72</ele>
        <time>2020-10-18T09:56:08Z</time>
      </trkpt>
      <trkpt lat="42.9183" lon="0.45524">
        <ele>1912.68</ele>
        <time>2020-10-18T09:56:26Z</time>
      </trkpt>
      <trkpt lat="42.91825" lon="0.45528">
        <ele>1912.68</ele>
        <time>2020-10-18T09:56:43Z</time>
      </trkpt>
      <trkpt lat="42.91821" lon="0.45538">
        <ele>1912.68</ele>
        <time>2020-10-18T09:56:58Z</time>
      </trkpt>
      <trkpt lat="42.91819" lon="0.45544">
        <ele>1912.68</ele>
        <time>2020-10-18T09:57:15Z</time>
      </trkpt>
      <trkpt lat="42.91816" lon="0.45554">
        <ele>1913.64</ele>
        <time>2020-10-18T09:57:33Z</time>
      </trkpt>
      <trkpt lat="42.91817" lon="0.45559">
        <ele>1914.6</ele>
        <time>2020-10-18T09:57:50Z</time>
      </trkpt>
      <trkpt lat="42.91815" lon="0.45568">
        <ele>1915.56</ele>
        <time>2020-10-18T09:58:11Z</time>
      </trkpt>
      <trkpt lat="42.9181" lon="0.45577">
        <ele>1916.53</ele>
        <time>2020-10-18T09:58:24Z</time>
      </trkpt>
      <trkpt lat="42.91803" lon="0.4559">
        <ele>1917.97</ele>
        <time>2020-10-18T09:58:40Z</time>
      </trkpt>
      <trkpt lat="42.91796" lon="0.45604">
        <ele>1918.93</ele>
        <time>2020-10-18T09:58:57Z</time>
      </trkpt>
      <trkpt lat="42.91794" lon="0.45607">
        <ele>1918.93</ele>
        <time>2020-10-18T09:59:18Z</time>
      </trkpt>
      <trkpt lat="42.91792" lon="0.45616">
        <ele>1918.93</ele>
        <time>2020-10-18T09:59:30Z</time>
      </trkpt>
      <trkpt lat="42.91789" lon="0.4562">
        <ele>1918.93</ele>
        <time>2020-10-18T09:59:46Z</time>
      </trkpt>
      <trkpt lat="42.91787" lon="0.45627">
        <ele>1918.93</ele>
        <time>2020-10-18T10:00:05Z</time>
      </trkpt>
      <trkpt lat="42.91783" lon="0.45637">
        <ele>1918.93</ele>
        <time>2020-10-18T10:00:17Z</time>
      </trkpt>
      <trkpt lat="42.91779" lon="0.45641">
        <ele>1918.93</ele>
        <time>2020-10-18T10:00:31Z</time>
      </trkpt>
      <trkpt lat="42.9178" lon="0.4564">
        <ele>1918.93</ele>
        <time>2020-10-18T10:00:53Z</time>
      </trkpt>
      <trkpt lat="42.91774" lon="0.4565">
        <ele>1918.93</ele>
        <time>2020-10-18T10:01:13Z</time>
      </trkpt>
      <trkpt lat="42.91769" lon="0.45659">
        <ele>1917.97</ele>
        <time>2020-10-18T10:01:26Z</time>
      </trkpt>
      <trkpt lat="42.91766" lon="0.45661">
        <ele>1918.93</ele>
        <time>2020-10-18T10:01:39Z</time>
      </trkpt>
      <trkpt lat="42.91759" lon="0.45664">
        <ele>1918.93</ele>
        <time>2020-10-18T10:01:55Z</time>
      </trkpt>
      <trkpt lat="42.91754" lon="0.45662">
        <ele>1918.93</ele>
        <time>2020-10-18T10:02:09Z</time>
      </trkpt>
      <trkpt lat="42.91747" lon="0.4566">
        <ele>1918.93</ele>
        <time>2020-10-18T10:02:23Z</time>
      </trkpt>
      <trkpt lat="42.91745" lon="0.45661">
        <ele>1918.93</ele>
        <time>2020-10-18T10:02:38Z</time>
      </trkpt>
      <trkpt lat="42.91742" lon="0.45661">
        <ele>1919.89</ele>
        <time>2020-10-18T10:02:51Z</time>
      </trkpt>
      <trkpt lat="42.91737" lon="0.4566">
        <ele>1920.37</ele>
        <time>2020-10-18T10:03:07Z</time>
      </trkpt>
      <trkpt lat="42.91731" lon="0.45658">
        <ele>1921.33</ele>
        <time>2020-10-18T10:03:20Z</time>
      </trkpt>
      <trkpt lat="42.9173" lon="0.45657">
        <ele>1921.33</ele>
        <time>2020-10-18T10:03:34Z</time>
      </trkpt>
      <trkpt lat="42.91723" lon="0.45656">
        <ele>1922.29</ele>
        <time>2020-10-18T10:03:48Z</time>
      </trkpt>
      <trkpt lat="42.9172" lon="0.45655">
        <ele>1923.25</ele>
        <time>2020-10-18T10:04:05Z</time>
      </trkpt>
      <trkpt lat="42.91716" lon="0.45655">
        <ele>1924.22</ele>
        <time>2020-10-18T10:04:18Z</time>
      </trkpt>
      <trkpt lat="42.91708" lon="0.45654">
        <ele>1925.66</ele>
        <time>2020-10-18T10:04:34Z</time>
      </trkpt>
      <trkpt lat="42.91703" lon="0.45653">
        <ele>1926.14</ele>
        <time>2020-10-18T10:04:53Z</time>
      </trkpt>
      <trkpt lat="42.91699" lon="0.45652">
        <ele>1926.62</ele>
        <time>2020-10-18T10:05:11Z</time>
      </trkpt>
      <trkpt lat="42.91692" lon="0.45651">
        <ele>1927.58</ele>
        <time>2020-10-18T10:05:24Z</time>
      </trkpt>
      <trkpt lat="42.9169" lon="0.45651">
        <ele>1927.58</ele>
        <time>2020-10-18T10:05:43Z</time>
      </trkpt>
      <trkpt lat="42.91684" lon="0.4565">
        <ele>1929.02</ele>
        <time>2020-10-18T10:05:57Z</time>
      </trkpt>
      <trkpt lat="42.91678" lon="0.45644">
        <ele>1930.46</ele>
        <time>2020-10-18T10:06:14Z</time>
      </trkpt>
      <trkpt lat="42.91675" lon="0.45642">
        <ele>1930.95</ele>
        <time>2020-10-18T10:06:29Z</time>
      </trkpt>
      <trkpt lat="42.9167" lon="0.45638">
        <ele>1931.43</ele>
        <time>2020-10-18T10:06:41Z</time>
      </trkpt>
      <trkpt lat="42.91667" lon="0.45638">
        <ele>1931.91</ele>
        <time>2020-10-18T10:06:56Z</time>
      </trkpt>
      <trkpt lat="42.91659" lon="0.45639">
        <ele>1933.83</ele>
        <time>2020-10-18T10:07:12Z</time>
      </trkpt>
      <trkpt lat="42.91656" lon="0.45641">
        <ele>1934.31</ele>
        <time>2020-10-18T10:07:25Z</time>
      </trkpt>
      <trkpt lat="42.9165" lon="0.45644">
        <ele>1934.79</ele>
        <time>2020-10-18T10:07:38Z</time>
      </trkpt>
      <trkpt lat="42.91646" lon="0.45643">
        <ele>1934.79</ele>
        <time>2020-10-18T10:07:53Z</time>
      </trkpt>
      <trkpt lat="42.9164" lon="0.45644">
        <ele>1934.79</ele>
        <time>2020-10-18T10:08:07Z</time>
      </trkpt>
      <trkpt lat="42.91636" lon="0.45644">
        <ele>1934.79</ele>
        <time>2020-10-18T10:08:20Z</time>
      </trkpt>
      <trkpt lat="42.91632" lon="0.45644">
        <ele>1934.79</ele>
        <time>2020-10-18T10:08:37Z</time>
      </trkpt>
      <trkpt lat="42.91629" lon="0.45645">
        <ele>1935.27</ele>
        <time>2020-10-18T10:08:52Z</time>
      </trkpt>
      <trkpt lat="42.91626" lon="0.45646">
        <ele>1935.75</ele>
        <time>2020-10-18T10:09:11Z</time>
      </trkpt>
      <trkpt lat="42.9162" lon="0.45648">
        <ele>1937.19</ele>
        <time>2020-10-18T10:09:30Z</time>
      </trkpt>
      <trkpt lat="42.9162" lon="0.45648">
        <ele>1937.67</ele>
        <time>2020-10-18T10:09:50Z</time>
      </trkpt>
      <trkpt lat="42.91616" lon="0.45649">
        <ele>1938.16</ele>
        <time>2020-10-18T10:10:31Z</time>
      </trkpt>
      <trkpt lat="42.91612" lon="0.45654">
        <ele>1938.64</ele>
        <time>2020-10-18T10:10:45Z</time>
      </trkpt>
      <trkpt lat="42.91607" lon="0.45656">
        <ele>1939.6</ele>
        <time>2020-10-18T10:10:59Z</time>
      </trkpt>
      <trkpt lat="42.91603" lon="0.45657">
        <ele>1940.56</ele>
        <time>2020-10-18T10:11:13Z</time>
      </trkpt>
      <trkpt lat="42.91599" lon="0.45658">
        <ele>1941.04</ele>
        <time>2020-10-18T10:11:25Z</time>
      </trkpt>
      <trkpt lat="42.91596" lon="0.45659">
        <ele>1942</ele>
        <time>2020-10-18T10:11:38Z</time>
      </trkpt>
      <trkpt lat="42.91596" lon="0.45659">
        <ele>1942</ele>
        <time>2020-10-18T10:12:07Z</time>
      </trkpt>
      <trkpt lat="42.91592" lon="0.45662">
        <ele>1942.96</ele>
        <time>2020-10-18T10:12:23Z</time>
      </trkpt>
      <trkpt lat="42.9159" lon="0.45662">
        <ele>1942.96</ele>
        <time>2020-10-18T10:12:57Z</time>
      </trkpt>
      <trkpt lat="42.91588" lon="0.45664">
        <ele>1943.44</ele>
        <time>2020-10-18T10:13:35Z</time>
      </trkpt>
      <trkpt lat="42.91587" lon="0.45666">
        <ele>1944.4</ele>
        <time>2020-10-18T10:13:48Z</time>
      </trkpt>
      <trkpt lat="42.91586" lon="0.45668">
        <ele>1944.4</ele>
        <time>2020-10-18T10:14:08Z</time>
      </trkpt>
      <trkpt lat="42.91584" lon="0.45668">
        <ele>1945.36</ele>
        <time>2020-10-18T10:14:27Z</time>
      </trkpt>
      <trkpt lat="42.91582" lon="0.45669">
        <ele>1946.33</ele>
        <time>2020-10-18T10:14:39Z</time>
      </trkpt>
      <trkpt lat="42.91581" lon="0.45668">
        <ele>1946.33</ele>
        <time>2020-10-18T10:15:03Z</time>
      </trkpt>
      <trkpt lat="42.91582" lon="0.45668">
        <ele>1946.33</ele>
        <time>2020-10-18T10:15:37Z</time>
      </trkpt>
      <trkpt lat="42.9158" lon="0.45674">
        <ele>1947.77</ele>
        <time>2020-10-18T10:15:50Z</time>
      </trkpt>
      <trkpt lat="42.91581" lon="0.45677">
        <ele>1949.69</ele>
        <time>2020-10-18T10:16:00Z</time>
      </trkpt>
      <trkpt lat="42.91576" lon="0.45685">
        <ele>1951.13</ele>
        <time>2020-10-18T10:16:18Z</time>
      </trkpt>
      <trkpt lat="42.91569" lon="0.45689">
        <ele>1952.09</ele>
        <time>2020-10-18T10:16:35Z</time>
      </trkpt>
      <trkpt lat="42.91563" lon="0.45692">
        <ele>1954.5</ele>
        <time>2020-10-18T10:16:54Z</time>
      </trkpt>
      <trkpt lat="42.91559" lon="0.45694">
        <ele>1955.94</ele>
        <time>2020-10-18T10:17:14Z</time>
      </trkpt>
      <trkpt lat="42.91557" lon="0.45699">
        <ele>1957.86</ele>
        <time>2020-10-18T10:17:35Z</time>
      </trkpt>
      <trkpt lat="42.91554" lon="0.45702">
        <ele>1959.3</ele>
        <time>2020-10-18T10:17:50Z</time>
      </trkpt>
      <trkpt lat="42.91553" lon="0.45705">
        <ele>1961.71</ele>
        <time>2020-10-18T10:18:00Z</time>
      </trkpt>
      <trkpt lat="42.91549" lon="0.45707">
        <ele>1962.67</ele>
        <time>2020-10-18T10:18:14Z</time>
      </trkpt>
      <trkpt lat="42.91544" lon="0.45707">
        <ele>1963.63</ele>
        <time>2020-10-18T10:18:32Z</time>
      </trkpt>
      <trkpt lat="42.91539" lon="0.45709">
        <ele>1964.59</ele>
        <time>2020-10-18T10:18:52Z</time>
      </trkpt>
      <trkpt lat="42.91536" lon="0.45709">
        <ele>1965.55</ele>
        <time>2020-10-18T10:19:10Z</time>
      </trkpt>
      <trkpt lat="42.91532" lon="0.45711">
        <ele>1965.55</ele>
        <time>2020-10-18T10:19:27Z</time>
      </trkpt>
      <trkpt lat="42.91528" lon="0.45713">
        <ele>1967.96</ele>
        <time>2020-10-18T10:19:46Z</time>
      </trkpt>
      <trkpt lat="42.91524" lon="0.45715">
        <ele>1969.4</ele>
        <time>2020-10-18T10:20:02Z</time>
      </trkpt>
      <trkpt lat="42.91522" lon="0.45717">
        <ele>1969.88</ele>
        <time>2020-10-18T10:20:21Z</time>
      </trkpt>
      <trkpt lat="42.91519" lon="0.45718">
        <ele>1971.8</ele>
        <time>2020-10-18T10:20:40Z</time>
      </trkpt>
      <trkpt lat="42.91515" lon="0.4572">
        <ele>1972.76</ele>
        <time>2020-10-18T10:21:03Z</time>
      </trkpt>
      <trkpt lat="42.91511" lon="0.45722">
        <ele>1974.2</ele>
        <time>2020-10-18T10:21:20Z</time>
      </trkpt>
      <trkpt lat="42.91507" lon="0.45723">
        <ele>1975.17</ele>
        <time>2020-10-18T10:21:40Z</time>
      </trkpt>
      <trkpt lat="42.91503" lon="0.45724">
        <ele>1976.13</ele>
        <time>2020-10-18T10:22:01Z</time>
      </trkpt>
      <trkpt lat="42.91503" lon="0.45725">
        <ele>1977.57</ele>
        <time>2020-10-18T10:22:03Z</time>
      </trkpt>
      <trkpt lat="42.91498" lon="0.45728">
        <ele>1978.53</ele>
        <time>2020-10-18T10:22:20Z</time>
      </trkpt>
      <trkpt lat="42.91488" lon="0.45726">
        <ele>1979.01</ele>
        <time>2020-10-18T10:22:39Z</time>
      </trkpt>
      <trkpt lat="42.91481" lon="0.45728">
        <ele>1980.45</ele>
        <time>2020-10-18T10:23:00Z</time>
      </trkpt>
      <trkpt lat="42.91474" lon="0.45733">
        <ele>1981.9</ele>
        <time>2020-10-18T10:23:19Z</time>
      </trkpt>
      <trkpt lat="42.91468" lon="0.45735">
        <ele>1983.34</ele>
        <time>2020-10-18T10:23:39Z</time>
      </trkpt>
      <trkpt lat="42.91461" lon="0.45739">
        <ele>1984.3</ele>
        <time>2020-10-18T10:23:56Z</time>
      </trkpt>
      <trkpt lat="42.91457" lon="0.45745">
        <ele>1985.26</ele>
        <time>2020-10-18T10:24:18Z</time>
      </trkpt>
      <trkpt lat="42.91455" lon="0.4575">
        <ele>1987.18</ele>
        <time>2020-10-18T10:24:39Z</time>
      </trkpt>
      <trkpt lat="42.91453" lon="0.45753">
        <ele>1988.14</ele>
        <time>2020-10-18T10:24:55Z</time>
      </trkpt>
      <trkpt lat="42.91449" lon="0.45759">
        <ele>1989.59</ele>
        <time>2020-10-18T10:25:13Z</time>
      </trkpt>
      <trkpt lat="42.91444" lon="0.45767">
        <ele>1991.03</ele>
        <time>2020-10-18T10:25:33Z</time>
      </trkpt>
      <trkpt lat="42.91441" lon="0.4577">
        <ele>1991.99</ele>
        <time>2020-10-18T10:25:49Z</time>
      </trkpt>
      <trkpt lat="42.91439" lon="0.45773">
        <ele>1993.43</ele>
        <time>2020-10-18T10:26:13Z</time>
      </trkpt>
      <trkpt lat="42.91432" lon="0.45779">
        <ele>1994.87</ele>
        <time>2020-10-18T10:26:32Z</time>
      </trkpt>
      <trkpt lat="42.9143" lon="0.45784">
        <ele>1995.83</ele>
        <time>2020-10-18T10:26:56Z</time>
      </trkpt>
      <trkpt lat="42.91429" lon="0.45788">
        <ele>1997.28</ele>
        <time>2020-10-18T10:27:12Z</time>
      </trkpt>
      <trkpt lat="42.91428" lon="0.4579">
        <ele>1997.76</ele>
        <time>2020-10-18T10:27:25Z</time>
      </trkpt>
      <trkpt lat="42.91425" lon="0.45794">
        <ele>1998.72</ele>
        <time>2020-10-18T10:27:38Z</time>
      </trkpt>
      <trkpt lat="42.91423" lon="0.45797">
        <ele>1999.2</ele>
        <time>2020-10-18T10:28:04Z</time>
      </trkpt>
      <trkpt lat="42.91421" lon="0.45802">
        <ele>2001.12</ele>
        <time>2020-10-18T10:28:18Z</time>
      </trkpt>
      <trkpt lat="42.9142" lon="0.45809">
        <ele>2002.56</ele>
        <time>2020-10-18T10:28:31Z</time>
      </trkpt>
      <trkpt lat="42.91419" lon="0.45812">
        <ele>2004.01</ele>
        <time>2020-10-18T10:28:45Z</time>
      </trkpt>
      <trkpt lat="42.91418" lon="0.45816">
        <ele>2004.97</ele>
        <time>2020-10-18T10:29:03Z</time>
      </trkpt>
      <trkpt lat="42.91416" lon="0.45821">
        <ele>2006.41</ele>
        <time>2020-10-18T10:29:17Z</time>
      </trkpt>
      <trkpt lat="42.91417" lon="0.45823">
        <ele>2007.85</ele>
        <time>2020-10-18T10:29:35Z</time>
      </trkpt>
      <trkpt lat="42.91418" lon="0.45822">
        <ele>2008.33</ele>
        <time>2020-10-18T10:29:54Z</time>
      </trkpt>
      <trkpt lat="42.91421" lon="0.45824">
        <ele>2009.29</ele>
        <time>2020-10-18T10:30:07Z</time>
      </trkpt>
      <trkpt lat="42.91423" lon="0.45825">
        <ele>2010.73</ele>
        <time>2020-10-18T10:30:19Z</time>
      </trkpt>
      <trkpt lat="42.91425" lon="0.45825">
        <ele>2011.7</ele>
        <time>2020-10-18T10:30:34Z</time>
      </trkpt>
      <trkpt lat="42.91427" lon="0.45828">
        <ele>2013.62</ele>
        <time>2020-10-18T10:30:47Z</time>
      </trkpt>
      <trkpt lat="42.91425" lon="0.45833">
        <ele>2015.54</ele>
        <time>2020-10-18T10:30:59Z</time>
      </trkpt>
      <trkpt lat="42.91427" lon="0.45835">
        <ele>2016.98</ele>
        <time>2020-10-18T10:31:14Z</time>
      </trkpt>
      <trkpt lat="42.91432" lon="0.45838">
        <ele>2018.43</ele>
        <time>2020-10-18T10:31:30Z</time>
      </trkpt>
      <trkpt lat="42.91427" lon="0.45845">
        <ele>2020.35</ele>
        <time>2020-10-18T10:31:44Z</time>
      </trkpt>
      <trkpt lat="42.91425" lon="0.4585">
        <ele>2021.79</ele>
        <time>2020-10-18T10:31:56Z</time>
      </trkpt>
      <trkpt lat="42.91424" lon="0.45857">
        <ele>2023.71</ele>
        <time>2020-10-18T10:32:12Z</time>
      </trkpt>
      <trkpt lat="42.91421" lon="0.45864">
        <ele>2025.15</ele>
        <time>2020-10-18T10:32:25Z</time>
      </trkpt>
      <trkpt lat="42.91418" lon="0.4587">
        <ele>2026.6</ele>
        <time>2020-10-18T10:32:39Z</time>
      </trkpt>
      <trkpt lat="42.91416" lon="0.45874">
        <ele>2028.04</ele>
        <time>2020-10-18T10:32:52Z</time>
      </trkpt>
      <trkpt lat="42.91416" lon="0.45876">
        <ele>2029.48</ele>
        <time>2020-10-18T10:33:08Z</time>
      </trkpt>
      <trkpt lat="42.9142" lon="0.45875">
        <ele>2029.96</ele>
        <time>2020-10-18T10:33:23Z</time>
      </trkpt>
      <trkpt lat="42.91419" lon="0.4588">
        <ele>2031.88</ele>
        <time>2020-10-18T10:33:36Z</time>
      </trkpt>
      <trkpt lat="42.91415" lon="0.45888">
        <ele>2034.29</ele>
        <time>2020-10-18T10:33:52Z</time>
      </trkpt>
      <trkpt lat="42.91411" lon="0.45896">
        <ele>2036.21</ele>
        <time>2020-10-18T10:34:07Z</time>
      </trkpt>
      <trkpt lat="42.91406" lon="0.45904">
        <ele>2037.17</ele>
        <time>2020-10-18T10:34:25Z</time>
      </trkpt>
      <trkpt lat="42.91407" lon="0.45907">
        <ele>2038.13</ele>
        <time>2020-10-18T10:34:42Z</time>
      </trkpt>
      <trkpt lat="42.91406" lon="0.45915">
        <ele>2040.05</ele>
        <time>2020-10-18T10:34:54Z</time>
      </trkpt>
      <trkpt lat="42.91404" lon="0.45924">
        <ele>2041.5</ele>
        <time>2020-10-18T10:35:09Z</time>
      </trkpt>
      <trkpt lat="42.91403" lon="0.45929">
        <ele>2042.94</ele>
        <time>2020-10-18T10:35:24Z</time>
      </trkpt>
      <trkpt lat="42.91405" lon="0.45935">
        <ele>2044.86</ele>
        <time>2020-10-18T10:35:38Z</time>
      </trkpt>
      <trkpt lat="42.91406" lon="0.45942">
        <ele>2046.3</ele>
        <time>2020-10-18T10:35:52Z</time>
      </trkpt>
      <trkpt lat="42.91409" lon="0.4595">
        <ele>2047.26</ele>
        <time>2020-10-18T10:36:05Z</time>
      </trkpt>
      <trkpt lat="42.91409" lon="0.45955">
        <ele>2048.23</ele>
        <time>2020-10-18T10:36:19Z</time>
      </trkpt>
      <trkpt lat="42.91414" lon="0.45956">
        <ele>2049.19</ele>
        <time>2020-10-18T10:36:34Z</time>
      </trkpt>
      <trkpt lat="42.91418" lon="0.45952">
        <ele>2051.11</ele>
        <time>2020-10-18T10:36:49Z</time>
      </trkpt>
      <trkpt lat="42.91421" lon="0.45953">
        <ele>2052.55</ele>
        <time>2020-10-18T10:37:03Z</time>
      </trkpt>
      <trkpt lat="42.91425" lon="0.45954">
        <ele>2053.99</ele>
        <time>2020-10-18T10:37:19Z</time>
      </trkpt>
      <trkpt lat="42.9143" lon="0.45951">
        <ele>2055.44</ele>
        <time>2020-10-18T10:37:31Z</time>
      </trkpt>
      <trkpt lat="42.91433" lon="0.45952">
        <ele>2057.84</ele>
        <time>2020-10-18T10:37:44Z</time>
      </trkpt>
      <trkpt lat="42.91439" lon="0.45951">
        <ele>2060.72</ele>
        <time>2020-10-18T10:38:00Z</time>
      </trkpt>
      <trkpt lat="42.91442" lon="0.45952">
        <ele>2062.17</ele>
        <time>2020-10-18T10:38:14Z</time>
      </trkpt>
      <trkpt lat="42.91445" lon="0.4595">
        <ele>2063.13</ele>
        <time>2020-10-18T10:38:29Z</time>
      </trkpt>
      <trkpt lat="42.91446" lon="0.45954">
        <ele>2064.57</ele>
        <time>2020-10-18T10:38:41Z</time>
      </trkpt>
      <trkpt lat="42.91449" lon="0.45957">
        <ele>2066.49</ele>
        <time>2020-10-18T10:38:54Z</time>
      </trkpt>
      <trkpt lat="42.91453" lon="0.45961">
        <ele>2067.93</ele>
        <time>2020-10-18T10:39:09Z</time>
      </trkpt>
      <trkpt lat="42.91457" lon="0.45957">
        <ele>2069.38</ele>
        <time>2020-10-18T10:39:24Z</time>
      </trkpt>
      <trkpt lat="42.91461" lon="0.45954">
        <ele>2070.34</ele>
        <time>2020-10-18T10:39:39Z</time>
      </trkpt>
      <trkpt lat="42.91466" lon="0.45953">
        <ele>2071.3</ele>
        <time>2020-10-18T10:39:53Z</time>
      </trkpt>
      <trkpt lat="42.91466" lon="0.45956">
        <ele>2071.78</ele>
        <time>2020-10-18T10:40:02Z</time>
      </trkpt>
      <trkpt lat="42.91467" lon="0.45956">
        <ele>2072.26</ele>
        <time>2020-10-18T10:40:26Z</time>
      </trkpt>
      <trkpt lat="42.91469" lon="0.45959">
        <ele>2072.26</ele>
        <time>2020-10-18T10:40:47Z</time>
      </trkpt>
      <trkpt lat="42.91468" lon="0.45961">
        <ele>2072.74</ele>
        <time>2020-10-18T10:41:00Z</time>
      </trkpt>
      <trkpt lat="42.91468" lon="0.45961">
        <ele>2072.74</ele>
        <time>2020-10-18T10:41:21Z</time>
      </trkpt>
      <trkpt lat="42.91468" lon="0.45961">
        <ele>2072.74</ele>
        <time>2020-10-18T10:41:40Z</time>
      </trkpt>
      <trkpt lat="42.91469" lon="0.45962">
        <ele>2072.74</ele>
        <time>2020-10-18T10:42:05Z</time>
      </trkpt>
      <trkpt lat="42.91468" lon="0.45961">
        <ele>2073.22</ele>
        <time>2020-10-18T10:42:35Z</time>
      </trkpt>
      <trkpt lat="42.91467" lon="0.45961">
        <ele>2073.22</ele>
        <time>2020-10-18T10:42:58Z</time>
      </trkpt>
      <trkpt lat="42.91468" lon="0.45961">
        <ele>2073.22</ele>
        <time>2020-10-18T10:43:27Z</time>
      </trkpt>
      <trkpt lat="42.91467" lon="0.45961">
        <ele>2073.22</ele>
        <time>2020-10-18T10:43:49Z</time>
      </trkpt>
      <trkpt lat="42.91467" lon="0.45961">
        <ele>2073.22</ele>
        <time>2020-10-18T10:44:11Z</time>
      </trkpt>
      <trkpt lat="42.91468" lon="0.45962">
        <ele>2073.22</ele>
        <time>2020-10-18T10:44:36Z</time>
      </trkpt>
      <trkpt lat="42.91469" lon="0.45962">
        <ele>2073.7</ele>
        <time>2020-10-18T10:45:06Z</time>
      </trkpt>
      <trkpt lat="42.91468" lon="0.45962">
        <ele>2073.7</ele>
        <time>2020-10-18T10:45:34Z</time>
      </trkpt>
      <trkpt lat="42.91468" lon="0.45961">
        <ele>2073.7</ele>
        <time>2020-10-18T10:45:54Z</time>
      </trkpt>
      <trkpt lat="42.91468" lon="0.45959">
        <ele>2073.7</ele>
        <time>2020-10-18T10:46:08Z</time>
      </trkpt>
      <trkpt lat="42.91468" lon="0.4596">
        <ele>2073.7</ele>
        <time>2020-10-18T10:46:34Z</time>
      </trkpt>
      <trkpt lat="42.91468" lon="0.4596">
        <ele>2073.7</ele>
        <time>2020-10-18T10:46:55Z</time>
      </trkpt>
      <trkpt lat="42.91468" lon="0.4596">
        <ele>2073.7</ele>
        <time>2020-10-18T10:47:16Z</time>
      </trkpt>
      <trkpt lat="42.91467" lon="0.45959">
        <ele>2073.7</ele>
        <time>2020-10-18T10:47:33Z</time>
      </trkpt>
      <trkpt lat="42.91467" lon="0.45959">
        <ele>2073.7</ele>
        <time>2020-10-18T10:47:52Z</time>
      </trkpt>
      <trkpt lat="42.91466" lon="0.45959">
        <ele>2073.7</ele>
        <time>2020-10-18T10:48:13Z</time>
      </trkpt>
      <trkpt lat="42.91464" lon="0.45954">
        <ele>2072.26</ele>
        <time>2020-10-18T10:48:30Z</time>
      </trkpt>
      <trkpt lat="42.91462" lon="0.45955">
        <ele>2071.78</ele>
        <time>2020-10-18T10:48:47Z</time>
      </trkpt>
      <trkpt lat="42.9146" lon="0.45955">
        <ele>2071.3</ele>
        <time>2020-10-18T10:49:06Z</time>
      </trkpt>
      <trkpt lat="42.91454" lon="0.45959">
        <ele>2070.34</ele>
        <time>2020-10-18T10:49:24Z</time>
      </trkpt>
      <trkpt lat="42.91452" lon="0.4596">
        <ele>2068.41</ele>
        <time>2020-10-18T10:49:35Z</time>
      </trkpt>
      <trkpt lat="42.91447" lon="0.45957">
        <ele>2066.01</ele>
        <time>2020-10-18T10:49:50Z</time>
      </trkpt>
      <trkpt lat="42.91442" lon="0.45953">
        <ele>2062.65</ele>
        <time>2020-10-18T10:50:02Z</time>
      </trkpt>
      <trkpt lat="42.91437" lon="0.45949">
        <ele>2061.2</ele>
        <time>2020-10-18T10:50:18Z</time>
      </trkpt>
      <trkpt lat="42.91433" lon="0.45952">
        <ele>2058.32</ele>
        <time>2020-10-18T10:50:41Z</time>
      </trkpt>
      <trkpt lat="42.91427" lon="0.45949">
        <ele>2055.92</ele>
        <time>2020-10-18T10:50:57Z</time>
      </trkpt>
      <trkpt lat="42.9142" lon="0.4595">
        <ele>2052.55</ele>
        <time>2020-10-18T10:51:11Z</time>
      </trkpt>
      <trkpt lat="42.91415" lon="0.45947">
        <ele>2051.11</ele>
        <time>2020-10-18T10:51:28Z</time>
      </trkpt>
      <trkpt lat="42.9141" lon="0.45947">
        <ele>2048.23</ele>
        <time>2020-10-18T10:51:39Z</time>
      </trkpt>
      <trkpt lat="42.91408" lon="0.45946">
        <ele>2047.75</ele>
        <time>2020-10-18T10:51:43Z</time>
      </trkpt>
      <trkpt lat="42.91405" lon="0.45935">
        <ele>2045.34</ele>
        <time>2020-10-18T10:51:58Z</time>
      </trkpt>
      <trkpt lat="42.91403" lon="0.45927">
        <ele>2042.46</ele>
        <time>2020-10-18T10:52:11Z</time>
      </trkpt>
      <trkpt lat="42.91404" lon="0.45915">
        <ele>2040.54</ele>
        <time>2020-10-18T10:52:26Z</time>
      </trkpt>
      <trkpt lat="42.91405" lon="0.45907">
        <ele>2037.65</ele>
        <time>2020-10-18T10:52:38Z</time>
      </trkpt>
      <trkpt lat="42.91407" lon="0.45897">
        <ele>2035.73</ele>
        <time>2020-10-18T10:52:53Z</time>
      </trkpt>
      <trkpt lat="42.91413" lon="0.45891">
        <ele>2034.29</ele>
        <time>2020-10-18T10:53:06Z</time>
      </trkpt>
      <trkpt lat="42.91418" lon="0.45883">
        <ele>2033.33</ele>
        <time>2020-10-18T10:53:21Z</time>
      </trkpt>
      <trkpt lat="42.91418" lon="0.45881">
        <ele>2032.36</ele>
        <time>2020-10-18T10:53:35Z</time>
      </trkpt>
      <trkpt lat="42.91419" lon="0.45879">
        <ele>2031.88</ele>
        <time>2020-10-18T10:53:59Z</time>
      </trkpt>
      <trkpt lat="42.91419" lon="0.45874">
        <ele>2029.96</ele>
        <time>2020-10-18T10:54:15Z</time>
      </trkpt>
      <trkpt lat="42.91417" lon="0.4587">
        <ele>2027.56</ele>
        <time>2020-10-18T10:54:23Z</time>
      </trkpt>
      <trkpt lat="42.91422" lon="0.45859">
        <ele>2024.67</ele>
        <time>2020-10-18T10:54:36Z</time>
      </trkpt>
      <trkpt lat="42.91425" lon="0.45851">
        <ele>2021.79</ele>
        <time>2020-10-18T10:54:48Z</time>
      </trkpt>
      <trkpt lat="42.91427" lon="0.45841">
        <ele>2019.87</ele>
        <time>2020-10-18T10:55:02Z</time>
      </trkpt>
      <trkpt lat="42.91428" lon="0.45836">
        <ele>2017.46</ele>
        <time>2020-10-18T10:55:17Z</time>
      </trkpt>
      <trkpt lat="42.91426" lon="0.45831">
        <ele>2015.54</ele>
        <time>2020-10-18T10:55:30Z</time>
      </trkpt>
      <trkpt lat="42.91426" lon="0.45827">
        <ele>2013.14</ele>
        <time>2020-10-18T10:55:46Z</time>
      </trkpt>
      <trkpt lat="42.9142" lon="0.45826">
        <ele>2010.73</ele>
        <time>2020-10-18T10:55:59Z</time>
      </trkpt>
      <trkpt lat="42.91419" lon="0.45825">
        <ele>2009.29</ele>
        <time>2020-10-18T10:56:14Z</time>
      </trkpt>
      <trkpt lat="42.91416" lon="0.4582">
        <ele>2006.41</ele>
        <time>2020-10-18T10:56:29Z</time>
      </trkpt>
      <trkpt lat="42.91417" lon="0.4581">
        <ele>2004.01</ele>
        <time>2020-10-18T10:56:43Z</time>
      </trkpt>
      <trkpt lat="42.9142" lon="0.45804">
        <ele>2002.56</ele>
        <time>2020-10-18T10:56:57Z</time>
      </trkpt>
      <trkpt lat="42.91422" lon="0.45802">
        <ele>2002.08</ele>
        <time>2020-10-18T10:57:16Z</time>
      </trkpt>
      <trkpt lat="42.91424" lon="0.45793">
        <ele>1999.2</ele>
        <time>2020-10-18T10:57:31Z</time>
      </trkpt>
      <trkpt lat="42.91426" lon="0.45791">
        <ele>1998.72</ele>
        <time>2020-10-18T10:57:48Z</time>
      </trkpt>
      <trkpt lat="42.91426" lon="0.4579">
        <ele>1998.72</ele>
        <time>2020-10-18T10:58:01Z</time>
      </trkpt>
      <trkpt lat="42.91428" lon="0.45785">
        <ele>1996.8</ele>
        <time>2020-10-18T10:58:13Z</time>
      </trkpt>
      <trkpt lat="42.91431" lon="0.45778">
        <ele>1994.87</ele>
        <time>2020-10-18T10:58:22Z</time>
      </trkpt>
      <trkpt lat="42.91441" lon="0.45769">
        <ele>1992.47</ele>
        <time>2020-10-18T10:58:37Z</time>
      </trkpt>
      <trkpt lat="42.91447" lon="0.45761">
        <ele>1990.55</ele>
        <time>2020-10-18T10:58:50Z</time>
      </trkpt>
      <trkpt lat="42.91451" lon="0.45754">
        <ele>1989.1</ele>
        <time>2020-10-18T10:59:04Z</time>
      </trkpt>
      <trkpt lat="42.91454" lon="0.45748">
        <ele>1987.66</ele>
        <time>2020-10-18T10:59:20Z</time>
      </trkpt>
      <trkpt lat="42.91458" lon="0.45742">
        <ele>1985.26</ele>
        <time>2020-10-18T10:59:34Z</time>
      </trkpt>
      <trkpt lat="42.91462" lon="0.45736">
        <ele>1984.3</ele>
        <time>2020-10-18T10:59:46Z</time>
      </trkpt>
      <trkpt lat="42.9147" lon="0.45732">
        <ele>1983.34</ele>
        <time>2020-10-18T11:00:02Z</time>
      </trkpt>
      <trkpt lat="42.91478" lon="0.45728">
        <ele>1981.9</ele>
        <time>2020-10-18T11:00:18Z</time>
      </trkpt>
      <trkpt lat="42.91486" lon="0.45725">
        <ele>1980.45</ele>
        <time>2020-10-18T11:00:32Z</time>
      </trkpt>
      <trkpt lat="42.91486" lon="0.45725">
        <ele>1979.97</ele>
        <time>2020-10-18T11:00:33Z</time>
      </trkpt>
      <trkpt lat="42.91498" lon="0.45726">
        <ele>1979.01</ele>
        <time>2020-10-18T11:00:48Z</time>
      </trkpt>
      <trkpt lat="42.91503" lon="0.45724">
        <ele>1979.01</ele>
        <time>2020-10-18T11:01:01Z</time>
      </trkpt>
      <trkpt lat="42.91507" lon="0.45722">
        <ele>1976.61</ele>
        <time>2020-10-18T11:01:16Z</time>
      </trkpt>
      <trkpt lat="42.91513" lon="0.45719">
        <ele>1974.69</ele>
        <time>2020-10-18T11:01:29Z</time>
      </trkpt>
      <trkpt lat="42.91519" lon="0.45717">
        <ele>1972.28</ele>
        <time>2020-10-18T11:01:44Z</time>
      </trkpt>
      <trkpt lat="42.91526" lon="0.45712">
        <ele>1970.36</ele>
        <time>2020-10-18T11:02:00Z</time>
      </trkpt>
      <trkpt lat="42.91533" lon="0.45708">
        <ele>1966.99</ele>
        <time>2020-10-18T11:02:12Z</time>
      </trkpt>
      <trkpt lat="42.91543" lon="0.45705">
        <ele>1965.07</ele>
        <time>2020-10-18T11:02:28Z</time>
      </trkpt>
      <trkpt lat="42.9155" lon="0.45706">
        <ele>1963.63</ele>
        <time>2020-10-18T11:02:42Z</time>
      </trkpt>
      <trkpt lat="42.91555" lon="0.457">
        <ele>1961.23</ele>
        <time>2020-10-18T11:03:00Z</time>
      </trkpt>
      <trkpt lat="42.9156" lon="0.45697">
        <ele>1958.34</ele>
        <time>2020-10-18T11:03:09Z</time>
      </trkpt>
      <trkpt lat="42.91564" lon="0.45691">
        <ele>1956.42</ele>
        <time>2020-10-18T11:03:23Z</time>
      </trkpt>
      <trkpt lat="42.9157" lon="0.45687">
        <ele>1954.5</ele>
        <time>2020-10-18T11:03:36Z</time>
      </trkpt>
      <trkpt lat="42.91574" lon="0.45684">
        <ele>1953.54</ele>
        <time>2020-10-18T11:03:47Z</time>
      </trkpt>
      <trkpt lat="42.91577" lon="0.45682">
        <ele>1953.06</ele>
        <time>2020-10-18T11:03:58Z</time>
      </trkpt>
      <trkpt lat="42.9158" lon="0.45679">
        <ele>1952.09</ele>
        <time>2020-10-18T11:04:14Z</time>
      </trkpt>
      <trkpt lat="42.91584" lon="0.45672">
        <ele>1949.69</ele>
        <time>2020-10-18T11:04:32Z</time>
      </trkpt>
      <trkpt lat="42.91582" lon="0.45669">
        <ele>1949.21</ele>
        <time>2020-10-18T11:04:48Z</time>
      </trkpt>
      <trkpt lat="42.91582" lon="0.45667">
        <ele>1948.73</ele>
        <time>2020-10-18T11:05:03Z</time>
      </trkpt>
      <trkpt lat="42.91582" lon="0.45668">
        <ele>1948.73</ele>
        <time>2020-10-18T11:05:26Z</time>
      </trkpt>
      <trkpt lat="42.91583" lon="0.45668">
        <ele>1948.73</ele>
        <time>2020-10-18T11:05:49Z</time>
      </trkpt>
      <trkpt lat="42.91582" lon="0.45668">
        <ele>1948.73</ele>
        <time>2020-10-18T11:06:13Z</time>
      </trkpt>
      <trkpt lat="42.91582" lon="0.45668">
        <ele>1948.73</ele>
        <time>2020-10-18T11:06:37Z</time>
      </trkpt>
      <trkpt lat="42.91583" lon="0.45668">
        <ele>1948.73</ele>
        <time>2020-10-18T11:07:00Z</time>
      </trkpt>
      <trkpt lat="42.91582" lon="0.45668">
        <ele>1948.73</ele>
        <time>2020-10-18T11:07:19Z</time>
      </trkpt>
      <trkpt lat="42.91582" lon="0.45669">
        <ele>1948.73</ele>
        <time>2020-10-18T11:07:39Z</time>
      </trkpt>
      <trkpt lat="42.91582" lon="0.45668">
        <ele>1948.73</ele>
        <time>2020-10-18T11:08:01Z</time>
      </trkpt>
      <trkpt lat="42.91583" lon="0.45669">
        <ele>1948.73</ele>
        <time>2020-10-18T11:08:29Z</time>
      </trkpt>
      <trkpt lat="42.91583" lon="0.4567">
        <ele>1948.73</ele>
        <time>2020-10-18T11:08:57Z</time>
      </trkpt>
      <trkpt lat="42.91583" lon="0.45669">
        <ele>1948.73</ele>
        <time>2020-10-18T11:09:23Z</time>
      </trkpt>
      <trkpt lat="42.91583" lon="0.45669">
        <ele>1948.73</ele>
        <time>2020-10-18T11:09:50Z</time>
      </trkpt>
      <trkpt lat="42.91583" lon="0.4567">
        <ele>1948.73</ele>
        <time>2020-10-18T11:10:12Z</time>
      </trkpt>
      <trkpt lat="42.91583" lon="0.4567">
        <ele>1948.25</ele>
        <time>2020-10-18T11:10:37Z</time>
      </trkpt>
      <trkpt lat="42.91583" lon="0.4567">
        <ele>1948.25</ele>
        <time>2020-10-18T11:11:04Z</time>
      </trkpt>
      <trkpt lat="42.91583" lon="0.45669">
        <ele>1948.25</ele>
        <time>2020-10-18T11:11:29Z</time>
      </trkpt>
      <trkpt lat="42.91583" lon="0.45669">
        <ele>1948.25</ele>
        <time>2020-10-18T11:11:53Z</time>
      </trkpt>
      <trkpt lat="42.91583" lon="0.4567">
        <ele>1948.73</ele>
        <time>2020-10-18T11:12:19Z</time>
      </trkpt>
      <trkpt lat="42.91584" lon="0.45671">
        <ele>1948.73</ele>
        <time>2020-10-18T11:12:43Z</time>
      </trkpt>
      <trkpt lat="42.91583" lon="0.4567">
        <ele>1948.73</ele>
        <time>2020-10-18T11:13:03Z</time>
      </trkpt>
      <trkpt lat="42.91583" lon="0.4567">
        <ele>1948.25</ele>
        <time>2020-10-18T11:13:28Z</time>
      </trkpt>
      <trkpt lat="42.91582" lon="0.45669">
        <ele>1948.25</ele>
        <time>2020-10-18T11:13:54Z</time>
      </trkpt>
      <trkpt lat="42.91582" lon="0.45669">
        <ele>1949.69</ele>
        <time>2020-10-18T11:14:21Z</time>
      </trkpt>
      <trkpt lat="42.91583" lon="0.45669">
        <ele>1949.69</ele>
        <time>2020-10-18T11:14:49Z</time>
      </trkpt>
      <trkpt lat="42.91582" lon="0.45669">
        <ele>1949.69</ele>
        <time>2020-10-18T11:15:14Z</time>
      </trkpt>
      <trkpt lat="42.91583" lon="0.45671">
        <ele>1949.69</ele>
        <time>2020-10-18T11:15:42Z</time>
      </trkpt>
      <trkpt lat="42.91583" lon="0.45669">
        <ele>1949.69</ele>
        <time>2020-10-18T11:16:08Z</time>
      </trkpt>
      <trkpt lat="42.91583" lon="0.45669">
        <ele>1949.69</ele>
        <time>2020-10-18T11:16:30Z</time>
      </trkpt>
      <trkpt lat="42.91583" lon="0.45669">
        <ele>1949.69</ele>
        <time>2020-10-18T11:16:50Z</time>
      </trkpt>
      <trkpt lat="42.91583" lon="0.4567">
        <ele>1949.69</ele>
        <time>2020-10-18T11:17:09Z</time>
      </trkpt>
      <trkpt lat="42.91584" lon="0.45669">
        <ele>1949.69</ele>
        <time>2020-10-18T11:17:30Z</time>
      </trkpt>
      <trkpt lat="42.91583" lon="0.4567">
        <ele>1949.69</ele>
        <time>2020-10-18T11:17:54Z</time>
      </trkpt>
      <trkpt lat="42.91583" lon="0.45669">
        <ele>1949.69</ele>
        <time>2020-10-18T11:18:23Z</time>
      </trkpt>
      <trkpt lat="42.91583" lon="0.45669">
        <ele>1949.69</ele>
        <time>2020-10-18T11:18:46Z</time>
      </trkpt>
      <trkpt lat="42.91583" lon="0.45669">
        <ele>1950.17</ele>
        <time>2020-10-18T11:19:16Z</time>
      </trkpt>
      <trkpt lat="42.91583" lon="0.4567">
        <ele>1950.17</ele>
        <time>2020-10-18T11:19:36Z</time>
      </trkpt>
      <trkpt lat="42.91583" lon="0.45671">
        <ele>1950.17</ele>
        <time>2020-10-18T11:19:52Z</time>
      </trkpt>
      <trkpt lat="42.91582" lon="0.4567">
        <ele>1950.17</ele>
        <time>2020-10-18T11:20:16Z</time>
      </trkpt>
      <trkpt lat="42.91582" lon="0.45669">
        <ele>1950.17</ele>
        <time>2020-10-18T11:20:38Z</time>
      </trkpt>
      <trkpt lat="42.91582" lon="0.45669">
        <ele>1950.17</ele>
        <time>2020-10-18T11:21:06Z</time>
      </trkpt>
      <trkpt lat="42.91582" lon="0.45671">
        <ele>1950.17</ele>
        <time>2020-10-18T11:21:36Z</time>
      </trkpt>
      <trkpt lat="42.91583" lon="0.45671">
        <ele>1950.17</ele>
        <time>2020-10-18T11:22:03Z</time>
      </trkpt>
      <trkpt lat="42.91583" lon="0.45669">
        <ele>1950.17</ele>
        <time>2020-10-18T11:22:28Z</time>
      </trkpt>
      <trkpt lat="42.91583" lon="0.45672">
        <ele>1950.17</ele>
        <time>2020-10-18T11:22:54Z</time>
      </trkpt>
      <trkpt lat="42.91583" lon="0.45671">
        <ele>1950.17</ele>
        <time>2020-10-18T11:23:19Z</time>
      </trkpt>
      <trkpt lat="42.91584" lon="0.4567">
        <ele>1950.17</ele>
        <time>2020-10-18T11:23:40Z</time>
      </trkpt>
      <trkpt lat="42.91583" lon="0.45669">
        <ele>1950.17</ele>
        <time>2020-10-18T11:24:00Z</time>
      </trkpt>
      <trkpt lat="42.91584" lon="0.45668">
        <ele>1950.17</ele>
        <time>2020-10-18T11:24:21Z</time>
      </trkpt>
      <trkpt lat="42.91583" lon="0.45668">
        <ele>1950.17</ele>
        <time>2020-10-18T11:24:43Z</time>
      </trkpt>
      <trkpt lat="42.91582" lon="0.45668">
        <ele>1950.17</ele>
        <time>2020-10-18T11:24:58Z</time>
      </trkpt>
      <trkpt lat="42.91583" lon="0.45667">
        <ele>1950.65</ele>
        <time>2020-10-18T11:25:25Z</time>
      </trkpt>
      <trkpt lat="42.91583" lon="0.45669">
        <ele>1950.65</ele>
        <time>2020-10-18T11:25:53Z</time>
      </trkpt>
      <trkpt lat="42.91583" lon="0.45669">
        <ele>1950.65</ele>
        <time>2020-10-18T11:26:22Z</time>
      </trkpt>
      <trkpt lat="42.91582" lon="0.45668">
        <ele>1950.65</ele>
        <time>2020-10-18T11:26:52Z</time>
      </trkpt>
      <trkpt lat="42.91583" lon="0.45669">
        <ele>1950.65</ele>
        <time>2020-10-18T11:27:19Z</time>
      </trkpt>
      <trkpt lat="42.91582" lon="0.45668">
        <ele>1951.13</ele>
        <time>2020-10-18T11:27:49Z</time>
      </trkpt>
      <trkpt lat="42.91583" lon="0.45668">
        <ele>1951.13</ele>
        <time>2020-10-18T11:28:11Z</time>
      </trkpt>
      <trkpt lat="42.91583" lon="0.45669">
        <ele>1951.13</ele>
        <time>2020-10-18T11:28:38Z</time>
      </trkpt>
      <trkpt lat="42.91583" lon="0.45668">
        <ele>1951.13</ele>
        <time>2020-10-18T11:28:59Z</time>
      </trkpt>
      <trkpt lat="42.91582" lon="0.45669">
        <ele>1951.13</ele>
        <time>2020-10-18T11:29:29Z</time>
      </trkpt>
      <trkpt lat="42.91583" lon="0.4567">
        <ele>1951.13</ele>
        <time>2020-10-18T11:29:52Z</time>
      </trkpt>
      <trkpt lat="42.91583" lon="0.45669">
        <ele>1951.13</ele>
        <time>2020-10-18T11:30:18Z</time>
      </trkpt>
      <trkpt lat="42.91583" lon="0.45671">
        <ele>1951.13</ele>
        <time>2020-10-18T11:30:54Z</time>
      </trkpt>
      <trkpt lat="42.91583" lon="0.4567">
        <ele>1951.13</ele>
        <time>2020-10-18T11:31:24Z</time>
      </trkpt>
      <trkpt lat="42.91582" lon="0.45671">
        <ele>1951.13</ele>
        <time>2020-10-18T11:31:47Z</time>
      </trkpt>
      <trkpt lat="42.91582" lon="0.45672">
        <ele>1951.13</ele>
        <time>2020-10-18T11:32:16Z</time>
      </trkpt>
      <trkpt lat="42.91583" lon="0.45672">
        <ele>1951.13</ele>
        <time>2020-10-18T11:32:42Z</time>
      </trkpt>
      <trkpt lat="42.91583" lon="0.45671">
        <ele>1951.13</ele>
        <time>2020-10-18T11:33:08Z</time>
      </trkpt>
      <trkpt lat="42.91583" lon="0.45671">
        <ele>1951.13</ele>
        <time>2020-10-18T11:33:34Z</time>
      </trkpt>
      <trkpt lat="42.91583" lon="0.45671">
        <ele>1951.13</ele>
        <time>2020-10-18T11:33:57Z</time>
      </trkpt>
      <trkpt lat="42.91583" lon="0.4567">
        <ele>1951.13</ele>
        <time>2020-10-18T11:34:20Z</time>
      </trkpt>
      <trkpt lat="42.91583" lon="0.45671">
        <ele>1951.13</ele>
        <time>2020-10-18T11:34:39Z</time>
      </trkpt>
      <trkpt lat="42.91583" lon="0.45672">
        <ele>1951.13</ele>
        <time>2020-10-18T11:35:01Z</time>
      </trkpt>
      <trkpt lat="42.91582" lon="0.45669">
        <ele>1951.13</ele>
        <time>2020-10-18T11:35:24Z</time>
      </trkpt>
      <trkpt lat="42.91582" lon="0.45668">
        <ele>1951.13</ele>
        <time>2020-10-18T11:35:54Z</time>
      </trkpt>
      <trkpt lat="42.91582" lon="0.4567">
        <ele>1951.13</ele>
        <time>2020-10-18T11:36:25Z</time>
      </trkpt>
      <trkpt lat="42.91582" lon="0.45669">
        <ele>1951.13</ele>
        <time>2020-10-18T11:36:52Z</time>
      </trkpt>
      <trkpt lat="42.91583" lon="0.45669">
        <ele>1950.17</ele>
        <time>2020-10-18T11:37:20Z</time>
      </trkpt>
      <trkpt lat="42.91582" lon="0.45672">
        <ele>1950.17</ele>
        <time>2020-10-18T11:37:57Z</time>
      </trkpt>
      <trkpt lat="42.91582" lon="0.45671">
        <ele>1950.17</ele>
        <time>2020-10-18T11:38:28Z</time>
      </trkpt>
      <trkpt lat="42.91583" lon="0.45671">
        <ele>1950.17</ele>
        <time>2020-10-18T11:38:53Z</time>
      </trkpt>
      <trkpt lat="42.91583" lon="0.45671">
        <ele>1950.17</ele>
        <time>2020-10-18T11:39:20Z</time>
      </trkpt>
      <trkpt lat="42.91582" lon="0.4567">
        <ele>1951.61</ele>
        <time>2020-10-18T11:39:47Z</time>
      </trkpt>
      <trkpt lat="42.91582" lon="0.4567">
        <ele>1951.13</ele>
        <time>2020-10-18T11:40:08Z</time>
      </trkpt>
      <trkpt lat="42.91581" lon="0.4567">
        <ele>1951.13</ele>
        <time>2020-10-18T11:40:31Z</time>
      </trkpt>
      <trkpt lat="42.91581" lon="0.4567">
        <ele>1951.13</ele>
        <time>2020-10-18T11:41:01Z</time>
      </trkpt>
      <trkpt lat="42.91582" lon="0.45669">
        <ele>1951.61</ele>
        <time>2020-10-18T11:41:27Z</time>
      </trkpt>
      <trkpt lat="42.91581" lon="0.4567">
        <ele>1951.61</ele>
        <time>2020-10-18T11:41:52Z</time>
      </trkpt>
      <trkpt lat="42.91583" lon="0.4567">
        <ele>1951.61</ele>
        <time>2020-10-18T11:42:27Z</time>
      </trkpt>
      <trkpt lat="42.91582" lon="0.4567">
        <ele>1951.61</ele>
        <time>2020-10-18T11:42:43Z</time>
      </trkpt>
      <trkpt lat="42.91583" lon="0.45669">
        <ele>1951.13</ele>
        <time>2020-10-18T11:43:08Z</time>
      </trkpt>
      <trkpt lat="42.91582" lon="0.45669">
        <ele>1951.13</ele>
        <time>2020-10-18T11:43:41Z</time>
      </trkpt>
      <trkpt lat="42.91582" lon="0.45669">
        <ele>1951.13</ele>
        <time>2020-10-18T11:44:09Z</time>
      </trkpt>
      <trkpt lat="42.91583" lon="0.4567">
        <ele>1951.13</ele>
        <time>2020-10-18T11:44:38Z</time>
      </trkpt>
      <trkpt lat="42.91584" lon="0.45669">
        <ele>1951.13</ele>
        <time>2020-10-18T11:45:11Z</time>
      </trkpt>
      <trkpt lat="42.91583" lon="0.45668">
        <ele>1951.13</ele>
        <time>2020-10-18T11:45:37Z</time>
      </trkpt>
      <trkpt lat="42.91583" lon="0.45669">
        <ele>1951.13</ele>
        <time>2020-10-18T11:46:03Z</time>
      </trkpt>
      <trkpt lat="42.91582" lon="0.45669">
        <ele>1951.13</ele>
        <time>2020-10-18T11:46:28Z</time>
      </trkpt>
      <trkpt lat="42.91582" lon="0.45669">
        <ele>1951.13</ele>
        <time>2020-10-18T11:47:00Z</time>
      </trkpt>
      <trkpt lat="42.91583" lon="0.45669">
        <ele>1951.13</ele>
        <time>2020-10-18T11:47:29Z</time>
      </trkpt>
      <trkpt lat="42.91582" lon="0.4567">
        <ele>1951.13</ele>
        <time>2020-10-18T11:47:54Z</time>
      </trkpt>
      <trkpt lat="42.91581" lon="0.45669">
        <ele>1951.13</ele>
        <time>2020-10-18T11:48:21Z</time>
      </trkpt>
      <trkpt lat="42.91584" lon="0.45671">
        <ele>1951.13</ele>
        <time>2020-10-18T11:48:40Z</time>
      </trkpt>
      <trkpt lat="42.91586" lon="0.45668">
        <ele>1951.13</ele>
        <time>2020-10-18T11:48:53Z</time>
      </trkpt>
      <trkpt lat="42.91586" lon="0.45667">
        <ele>1949.69</ele>
        <time>2020-10-18T11:48:59Z</time>
      </trkpt>
      <trkpt lat="42.91589" lon="0.45663">
        <ele>1948.25</ele>
        <time>2020-10-18T11:49:14Z</time>
      </trkpt>
      <trkpt lat="42.91594" lon="0.45659">
        <ele>1946.81</ele>
        <time>2020-10-18T11:49:27Z</time>
      </trkpt>
      <trkpt lat="42.91601" lon="0.45656">
        <ele>1944.88</ele>
        <time>2020-10-18T11:49:38Z</time>
      </trkpt>
      <trkpt lat="42.91607" lon="0.45654">
        <ele>1943.92</ele>
        <time>2020-10-18T11:49:53Z</time>
      </trkpt>
      <trkpt lat="42.91612" lon="0.45651">
        <ele>1942.96</ele>
        <time>2020-10-18T11:50:05Z</time>
      </trkpt>
      <trkpt lat="42.91617" lon="0.45649">
        <ele>1942.48</ele>
        <time>2020-10-18T11:50:18Z</time>
      </trkpt>
      <trkpt lat="42.91621" lon="0.45647">
        <ele>1941.04</ele>
        <time>2020-10-18T11:50:31Z</time>
      </trkpt>
      <trkpt lat="42.91625" lon="0.45645">
        <ele>1940.08</ele>
        <time>2020-10-18T11:50:46Z</time>
      </trkpt>
      <trkpt lat="42.91631" lon="0.45643">
        <ele>1939.12</ele>
        <time>2020-10-18T11:51:01Z</time>
      </trkpt>
      <trkpt lat="42.9164" lon="0.45641">
        <ele>1938.64</ele>
        <time>2020-10-18T11:51:13Z</time>
      </trkpt>
      <trkpt lat="42.91649" lon="0.45641">
        <ele>1938.16</ele>
        <time>2020-10-18T11:51:26Z</time>
      </trkpt>
      <trkpt lat="42.91657" lon="0.45638">
        <ele>1938.16</ele>
        <time>2020-10-18T11:51:40Z</time>
      </trkpt>
      <trkpt lat="42.91665" lon="0.45638">
        <ele>1936.23</ele>
        <time>2020-10-18T11:51:50Z</time>
      </trkpt>
      <trkpt lat="42.91668" lon="0.45638">
        <ele>1935.75</ele>
        <time>2020-10-18T11:51:54Z</time>
      </trkpt>
      <trkpt lat="42.91679" lon="0.45645">
        <ele>1934.79</ele>
        <time>2020-10-18T11:52:09Z</time>
      </trkpt>
      <trkpt lat="42.91688" lon="0.45651">
        <ele>1932.87</ele>
        <time>2020-10-18T11:52:23Z</time>
      </trkpt>
      <trkpt lat="42.91699" lon="0.45651">
        <ele>1930.46</ele>
        <time>2020-10-18T11:52:37Z</time>
      </trkpt>
      <trkpt lat="42.91706" lon="0.45652">
        <ele>1929.98</ele>
        <time>2020-10-18T11:52:49Z</time>
      </trkpt>
      <trkpt lat="42.91719" lon="0.45653">
        <ele>1927.58</ele>
        <time>2020-10-18T11:53:04Z</time>
      </trkpt>
      <trkpt lat="42.91728" lon="0.45656">
        <ele>1926.14</ele>
        <time>2020-10-18T11:53:18Z</time>
      </trkpt>
      <trkpt lat="42.91737" lon="0.45658">
        <ele>1924.7</ele>
        <time>2020-10-18T11:53:31Z</time>
      </trkpt>
      <trkpt lat="42.91744" lon="0.45659">
        <ele>1923.25</ele>
        <time>2020-10-18T11:53:43Z</time>
      </trkpt>
      <trkpt lat="42.91748" lon="0.4566">
        <ele>1922.77</ele>
        <time>2020-10-18T11:53:49Z</time>
      </trkpt>
      <trkpt lat="42.91757" lon="0.45662">
        <ele>1922.77</ele>
        <time>2020-10-18T11:54:02Z</time>
      </trkpt>
      <trkpt lat="42.91768" lon="0.45659">
        <ele>1922.77</ele>
        <time>2020-10-18T11:54:18Z</time>
      </trkpt>
      <trkpt lat="42.91774" lon="0.45649">
        <ele>1922.29</ele>
        <time>2020-10-18T11:54:32Z</time>
      </trkpt>
      <trkpt lat="42.91777" lon="0.45643">
        <ele>1922.29</ele>
        <time>2020-10-18T11:54:40Z</time>
      </trkpt>
      <trkpt lat="42.91782" lon="0.45635">
        <ele>1922.29</ele>
        <time>2020-10-18T11:54:52Z</time>
      </trkpt>
      <trkpt lat="42.91783" lon="0.45633">
        <ele>1922.29</ele>
        <time>2020-10-18T11:54:55Z</time>
      </trkpt>
      <trkpt lat="42.91788" lon="0.45621">
        <ele>1921.81</ele>
        <time>2020-10-18T11:55:10Z</time>
      </trkpt>
      <trkpt lat="42.91792" lon="0.4561">
        <ele>1921.81</ele>
        <time>2020-10-18T11:55:24Z</time>
      </trkpt>
      <trkpt lat="42.91795" lon="0.45602">
        <ele>1921.81</ele>
        <time>2020-10-18T11:55:38Z</time>
      </trkpt>
      <trkpt lat="42.918" lon="0.45591">
        <ele>1922.77</ele>
        <time>2020-10-18T11:55:51Z</time>
      </trkpt>
      <trkpt lat="42.91801" lon="0.45588">
        <ele>1921.33</ele>
        <time>2020-10-18T11:55:55Z</time>
      </trkpt>
      <trkpt lat="42.91805" lon="0.4558">
        <ele>1919.89</ele>
        <time>2020-10-18T11:56:11Z</time>
      </trkpt>
      <trkpt lat="42.91807" lon="0.45574">
        <ele>1919.89</ele>
        <time>2020-10-18T11:56:25Z</time>
      </trkpt>
      <trkpt lat="42.9181" lon="0.45567">
        <ele>1918.93</ele>
        <time>2020-10-18T11:56:39Z</time>
      </trkpt>
      <trkpt lat="42.91812" lon="0.45563">
        <ele>1918.93</ele>
        <time>2020-10-18T11:56:48Z</time>
      </trkpt>
      <trkpt lat="42.91816" lon="0.45546">
        <ele>1915.56</ele>
        <time>2020-10-18T11:57:08Z</time>
      </trkpt>
      <trkpt lat="42.91817" lon="0.45542">
        <ele>1915.08</ele>
        <time>2020-10-18T11:57:12Z</time>
      </trkpt>
      <trkpt lat="42.91824" lon="0.45529">
        <ele>1915.08</ele>
        <time>2020-10-18T11:57:25Z</time>
      </trkpt>
      <trkpt lat="42.91826" lon="0.45525">
        <ele>1915.08</ele>
        <time>2020-10-18T11:57:30Z</time>
      </trkpt>
      <trkpt lat="42.9183" lon="0.45519">
        <ele>1915.08</ele>
        <time>2020-10-18T11:57:38Z</time>
      </trkpt>
      <trkpt lat="42.91838" lon="0.45503">
        <ele>1914.6</ele>
        <time>2020-10-18T11:57:54Z</time>
      </trkpt>
      <trkpt lat="42.91844" lon="0.4549">
        <ele>1914.12</ele>
        <time>2020-10-18T11:58:07Z</time>
      </trkpt>
      <trkpt lat="42.91846" lon="0.4548">
        <ele>1913.64</ele>
        <time>2020-10-18T11:58:22Z</time>
      </trkpt>
      <trkpt lat="42.91854" lon="0.45467">
        <ele>1913.16</ele>
        <time>2020-10-18T11:58:36Z</time>
      </trkpt>
      <trkpt lat="42.91857" lon="0.45453">
        <ele>1912.68</ele>
        <time>2020-10-18T11:58:51Z</time>
      </trkpt>
      <trkpt lat="42.91859" lon="0.45449">
        <ele>1912.68</ele>
        <time>2020-10-18T11:58:57Z</time>
      </trkpt>
      <trkpt lat="42.91863" lon="0.45439">
        <ele>1912.68</ele>
        <time>2020-10-18T11:59:11Z</time>
      </trkpt>
      <trkpt lat="42.91866" lon="0.45427">
        <ele>1912.68</ele>
        <time>2020-10-18T11:59:25Z</time>
      </trkpt>
      <trkpt lat="42.9187" lon="0.45417">
        <ele>1912.2</ele>
        <time>2020-10-18T11:59:37Z</time>
      </trkpt>
      <trkpt lat="42.91873" lon="0.45407">
        <ele>1911.72</ele>
        <time>2020-10-18T11:59:50Z</time>
      </trkpt>
      <trkpt lat="42.91877" lon="0.45398">
        <ele>1911.24</ele>
        <time>2020-10-18T12:00:05Z</time>
      </trkpt>
      <trkpt lat="42.9188" lon="0.45394">
        <ele>1910.28</ele>
        <time>2020-10-18T12:00:19Z</time>
      </trkpt>
      <trkpt lat="42.91881" lon="0.45385">
        <ele>1910.28</ele>
        <time>2020-10-18T12:00:32Z</time>
      </trkpt>
      <trkpt lat="42.91884" lon="0.45372">
        <ele>1909.8</ele>
        <time>2020-10-18T12:00:47Z</time>
      </trkpt>
      <trkpt lat="42.91886" lon="0.45363">
        <ele>1909.8</ele>
        <time>2020-10-18T12:01:04Z</time>
      </trkpt>
      <trkpt lat="42.91886" lon="0.4536">
        <ele>1909.32</ele>
        <time>2020-10-18T12:01:07Z</time>
      </trkpt>
      <trkpt lat="42.9189" lon="0.45345">
        <ele>1908.83</ele>
        <time>2020-10-18T12:01:21Z</time>
      </trkpt>
      <trkpt lat="42.91893" lon="0.45326">
        <ele>1908.83</ele>
        <time>2020-10-18T12:01:35Z</time>
      </trkpt>
      <trkpt lat="42.91894" lon="0.45312">
        <ele>1908.83</ele>
        <time>2020-10-18T12:01:50Z</time>
      </trkpt>
      <trkpt lat="42.91892" lon="0.45302">
        <ele>1909.8</ele>
        <time>2020-10-18T12:02:03Z</time>
      </trkpt>
      <trkpt lat="42.91892" lon="0.45286">
        <ele>1909.8</ele>
        <time>2020-10-18T12:02:19Z</time>
      </trkpt>
      <trkpt lat="42.91892" lon="0.45277">
        <ele>1910.76</ele>
        <time>2020-10-18T12:02:31Z</time>
      </trkpt>
      <trkpt lat="42.9189" lon="0.45267">
        <ele>1910.76</ele>
        <time>2020-10-18T12:02:46Z</time>
      </trkpt>
      <trkpt lat="42.91884" lon="0.45257">
        <ele>1909.32</ele>
        <time>2020-10-18T12:03:03Z</time>
      </trkpt>
      <trkpt lat="42.91882" lon="0.45252">
        <ele>1911.24</ele>
        <time>2020-10-18T12:03:20Z</time>
      </trkpt>
      <trkpt lat="42.9188" lon="0.45246">
        <ele>1911.24</ele>
        <time>2020-10-18T12:03:37Z</time>
      </trkpt>
      <trkpt lat="42.91881" lon="0.45241">
        <ele>1911.72</ele>
        <time>2020-10-18T12:03:52Z</time>
      </trkpt>
      <trkpt lat="42.91877" lon="0.45236">
        <ele>1912.2</ele>
        <time>2020-10-18T12:04:06Z</time>
      </trkpt>
      <trkpt lat="42.91879" lon="0.45221">
        <ele>1914.12</ele>
        <time>2020-10-18T12:04:20Z</time>
      </trkpt>
      <trkpt lat="42.91882" lon="0.45206">
        <ele>1914.6</ele>
        <time>2020-10-18T12:04:35Z</time>
      </trkpt>
      <trkpt lat="42.91885" lon="0.45197">
        <ele>1912.2</ele>
        <time>2020-10-18T12:04:51Z</time>
      </trkpt>
      <trkpt lat="42.91892" lon="0.4519">
        <ele>1910.28</ele>
        <time>2020-10-18T12:05:05Z</time>
      </trkpt>
      <trkpt lat="42.91894" lon="0.45184">
        <ele>1908.35</ele>
        <time>2020-10-18T12:05:19Z</time>
      </trkpt>
      <trkpt lat="42.91898" lon="0.45179">
        <ele>1906.43</ele>
        <time>2020-10-18T12:05:35Z</time>
      </trkpt>
      <trkpt lat="42.91901" lon="0.45176">
        <ele>1905.95</ele>
        <time>2020-10-18T12:05:52Z</time>
      </trkpt>
      <trkpt lat="42.91905" lon="0.45168">
        <ele>1903.55</ele>
        <time>2020-10-18T12:06:08Z</time>
      </trkpt>
      <trkpt lat="42.91907" lon="0.45162">
        <ele>1902.59</ele>
        <time>2020-10-18T12:06:25Z</time>
      </trkpt>
      <trkpt lat="42.91909" lon="0.4516">
        <ele>1902.11</ele>
        <time>2020-10-18T12:06:43Z</time>
      </trkpt>
      <trkpt lat="42.91913" lon="0.45155">
        <ele>1902.11</ele>
        <time>2020-10-18T12:06:57Z</time>
      </trkpt>
      <trkpt lat="42.91914" lon="0.45153">
        <ele>1901.14</ele>
        <time>2020-10-18T12:07:13Z</time>
      </trkpt>
      <trkpt lat="42.91916" lon="0.45151">
        <ele>1900.66</ele>
        <time>2020-10-18T12:07:17Z</time>
      </trkpt>
      <trkpt lat="42.91922" lon="0.45147">
        <ele>1900.66</ele>
        <time>2020-10-18T12:07:29Z</time>
      </trkpt>
      <trkpt lat="42.91923" lon="0.45142">
        <ele>1900.18</ele>
        <time>2020-10-18T12:07:43Z</time>
      </trkpt>
      <trkpt lat="42.91923" lon="0.45137">
        <ele>1899.22</ele>
        <time>2020-10-18T12:07:55Z</time>
      </trkpt>
      <trkpt lat="42.91924" lon="0.45135">
        <ele>1898.74</ele>
        <time>2020-10-18T12:07:57Z</time>
      </trkpt>
      <trkpt lat="42.91927" lon="0.4513">
        <ele>1898.74</ele>
        <time>2020-10-18T12:08:01Z</time>
      </trkpt>
      <trkpt lat="42.91933" lon="0.45116">
        <ele>1898.26</ele>
        <time>2020-10-18T12:08:15Z</time>
      </trkpt>
      <trkpt lat="42.91937" lon="0.45098">
        <ele>1897.3</ele>
        <time>2020-10-18T12:08:32Z</time>
      </trkpt>
      <trkpt lat="42.91939" lon="0.45094">
        <ele>1895.86</ele>
        <time>2020-10-18T12:08:38Z</time>
      </trkpt>
      <trkpt lat="42.91944" lon="0.45087">
        <ele>1895.38</ele>
        <time>2020-10-18T12:08:45Z</time>
      </trkpt>
      <trkpt lat="42.91948" lon="0.45069">
        <ele>1893.45</ele>
        <time>2020-10-18T12:09:02Z</time>
      </trkpt>
      <trkpt lat="42.91949" lon="0.45062">
        <ele>1892.01</ele>
        <time>2020-10-18T12:09:14Z</time>
      </trkpt>
      <trkpt lat="42.9195" lon="0.45058">
        <ele>1891.05</ele>
        <time>2020-10-18T12:09:16Z</time>
      </trkpt>
      <trkpt lat="42.91951" lon="0.45052">
        <ele>1890.57</ele>
        <time>2020-10-18T12:09:21Z</time>
      </trkpt>
      <trkpt lat="42.91952" lon="0.45046">
        <ele>1889.13</ele>
        <time>2020-10-18T12:09:27Z</time>
      </trkpt>
      <trkpt lat="42.91955" lon="0.45034">
        <ele>1888.17</ele>
        <time>2020-10-18T12:09:35Z</time>
      </trkpt>
      <trkpt lat="42.91959" lon="0.45027">
        <ele>1888.17</ele>
        <time>2020-10-18T12:09:40Z</time>
      </trkpt>
      <trkpt lat="42.9196" lon="0.45015">
        <ele>1890.09</ele>
        <time>2020-10-18T12:09:48Z</time>
      </trkpt>
      <trkpt lat="42.91961" lon="0.45008">
        <ele>1890.57</ele>
        <time>2020-10-18T12:09:53Z</time>
      </trkpt>
      <trkpt lat="42.91962" lon="0.44992">
        <ele>1892.97</ele>
        <time>2020-10-18T12:10:09Z</time>
      </trkpt>
      <trkpt lat="42.91961" lon="0.4498">
        <ele>1895.38</ele>
        <time>2020-10-18T12:10:25Z</time>
      </trkpt>
      <trkpt lat="42.91961" lon="0.44975">
        <ele>1896.34</ele>
        <time>2020-10-18T12:10:37Z</time>
      </trkpt>
      <trkpt lat="42.91961" lon="0.44966">
        <ele>1898.26</ele>
        <time>2020-10-18T12:11:00Z</time>
      </trkpt>
      <trkpt lat="42.91962" lon="0.44959">
        <ele>1896.82</ele>
        <time>2020-10-18T12:11:10Z</time>
      </trkpt>
      <trkpt lat="42.91966" lon="0.44941">
        <ele>1897.78</ele>
        <time>2020-10-18T12:11:27Z</time>
      </trkpt>
      <trkpt lat="42.91967" lon="0.44927">
        <ele>1898.26</ele>
        <time>2020-10-18T12:11:42Z</time>
      </trkpt>
      <trkpt lat="42.91968" lon="0.4492">
        <ele>1898.26</ele>
        <time>2020-10-18T12:11:48Z</time>
      </trkpt>
      <trkpt lat="42.91968" lon="0.44916">
        <ele>1897.3</ele>
        <time>2020-10-18T12:11:52Z</time>
      </trkpt>
      <trkpt lat="42.91975" lon="0.449">
        <ele>1897.3</ele>
        <time>2020-10-18T12:12:07Z</time>
      </trkpt>
      <trkpt lat="42.91979" lon="0.44889">
        <ele>1895.86</ele>
        <time>2020-10-18T12:12:21Z</time>
      </trkpt>
      <trkpt lat="42.91983" lon="0.44885">
        <ele>1895.38</ele>
        <time>2020-10-18T12:12:26Z</time>
      </trkpt>
      <trkpt lat="42.91993" lon="0.44871">
        <ele>1894.9</ele>
        <time>2020-10-18T12:12:42Z</time>
      </trkpt>
      <trkpt lat="42.91999" lon="0.44864">
        <ele>1894.9</ele>
        <time>2020-10-18T12:12:56Z</time>
      </trkpt>
      <trkpt lat="42.92006" lon="0.44857">
        <ele>1894.9</ele>
        <time>2020-10-18T12:13:10Z</time>
      </trkpt>
      <trkpt lat="42.92012" lon="0.44849">
        <ele>1894.42</ele>
        <time>2020-10-18T12:13:24Z</time>
      </trkpt>
      <trkpt lat="42.92017" lon="0.44845">
        <ele>1894.42</ele>
        <time>2020-10-18T12:13:40Z</time>
      </trkpt>
      <trkpt lat="42.92022" lon="0.44838">
        <ele>1894.42</ele>
        <time>2020-10-18T12:13:52Z</time>
      </trkpt>
      <trkpt lat="42.92034" lon="0.44826">
        <ele>1893.45</ele>
        <time>2020-10-18T12:14:08Z</time>
      </trkpt>
      <trkpt lat="42.92041" lon="0.44819">
        <ele>1893.45</ele>
        <time>2020-10-18T12:14:22Z</time>
      </trkpt>
      <trkpt lat="42.92048" lon="0.44813">
        <ele>1894.42</ele>
        <time>2020-10-18T12:14:36Z</time>
      </trkpt>
      <trkpt lat="42.92055" lon="0.44806">
        <ele>1894.42</ele>
        <time>2020-10-18T12:14:50Z</time>
      </trkpt>
      <trkpt lat="42.92063" lon="0.44804">
        <ele>1894.42</ele>
        <time>2020-10-18T12:15:02Z</time>
      </trkpt>
      <trkpt lat="42.92067" lon="0.44802">
        <ele>1894.42</ele>
        <time>2020-10-18T12:15:08Z</time>
      </trkpt>
      <trkpt lat="42.92078" lon="0.44799">
        <ele>1893.45</ele>
        <time>2020-10-18T12:15:22Z</time>
      </trkpt>
      <trkpt lat="42.92086" lon="0.44794">
        <ele>1892.49</ele>
        <time>2020-10-18T12:15:35Z</time>
      </trkpt>
      <trkpt lat="42.92096" lon="0.44789">
        <ele>1892.01</ele>
        <time>2020-10-18T12:15:49Z</time>
      </trkpt>
      <trkpt lat="42.921" lon="0.44786">
        <ele>1891.05</ele>
        <time>2020-10-18T12:16:02Z</time>
      </trkpt>
      <trkpt lat="42.92103" lon="0.44781">
        <ele>1890.57</ele>
        <time>2020-10-18T12:16:19Z</time>
      </trkpt>
      <trkpt lat="42.92107" lon="0.44778">
        <ele>1889.61</ele>
        <time>2020-10-18T12:16:24Z</time>
      </trkpt>
      <trkpt lat="42.92118" lon="0.44776">
        <ele>1888.17</ele>
        <time>2020-10-18T12:16:37Z</time>
      </trkpt>
      <trkpt lat="42.92125" lon="0.44775">
        <ele>1886.72</ele>
        <time>2020-10-18T12:16:52Z</time>
      </trkpt>
      <trkpt lat="42.92131" lon="0.44775">
        <ele>1886.24</ele>
        <time>2020-10-18T12:17:20Z</time>
      </trkpt>
      <trkpt lat="42.92142" lon="0.4478">
        <ele>1883.84</ele>
        <time>2020-10-18T12:17:33Z</time>
      </trkpt>
      <trkpt lat="42.92154" lon="0.4478">
        <ele>1880.48</ele>
        <time>2020-10-18T12:17:50Z</time>
      </trkpt>
      <trkpt lat="42.92163" lon="0.44781">
        <ele>1877.59</ele>
        <time>2020-10-18T12:18:07Z</time>
      </trkpt>
      <trkpt lat="42.9217" lon="0.44782">
        <ele>1875.67</ele>
        <time>2020-10-18T12:18:19Z</time>
      </trkpt>
      <trkpt lat="42.92179" lon="0.44791">
        <ele>1872.79</ele>
        <time>2020-10-18T12:18:36Z</time>
      </trkpt>
      <trkpt lat="42.92183" lon="0.44796">
        <ele>1871.34</ele>
        <time>2020-10-18T12:18:44Z</time>
      </trkpt>
      <trkpt lat="42.92196" lon="0.44804">
        <ele>1868.46</ele>
        <time>2020-10-18T12:19:03Z</time>
      </trkpt>
      <trkpt lat="42.92205" lon="0.44803">
        <ele>1866.54</ele>
        <time>2020-10-18T12:19:18Z</time>
      </trkpt>
      <trkpt lat="42.92211" lon="0.44804">
        <ele>1865.09</ele>
        <time>2020-10-18T12:19:31Z</time>
      </trkpt>
      <trkpt lat="42.92219" lon="0.44804">
        <ele>1864.13</ele>
        <time>2020-10-18T12:19:45Z</time>
      </trkpt>
      <trkpt lat="42.92221" lon="0.44803">
        <ele>1863.17</ele>
        <time>2020-10-18T12:19:48Z</time>
      </trkpt>
      <trkpt lat="42.92226" lon="0.44798">
        <ele>1861.25</ele>
        <time>2020-10-18T12:19:55Z</time>
      </trkpt>
      <trkpt lat="42.92233" lon="0.44794">
        <ele>1859.33</ele>
        <time>2020-10-18T12:20:03Z</time>
      </trkpt>
      <trkpt lat="42.92237" lon="0.44789">
        <ele>1858.37</ele>
        <time>2020-10-18T12:20:09Z</time>
      </trkpt>
      <trkpt lat="42.92246" lon="0.44788">
        <ele>1857.89</ele>
        <time>2020-10-18T12:20:23Z</time>
      </trkpt>
      <trkpt lat="42.92253" lon="0.44781">
        <ele>1856.92</ele>
        <time>2020-10-18T12:20:38Z</time>
      </trkpt>
      <trkpt lat="42.92253" lon="0.44779">
        <ele>1856.44</ele>
        <time>2020-10-18T12:20:56Z</time>
      </trkpt>
      <trkpt lat="42.92253" lon="0.4478">
        <ele>1856.44</ele>
        <time>2020-10-18T12:21:28Z</time>
      </trkpt>
      <trkpt lat="42.92253" lon="0.4478">
        <ele>1856.44</ele>
        <time>2020-10-18T12:21:53Z</time>
      </trkpt>
      <trkpt lat="42.92252" lon="0.4478">
        <ele>1856.44</ele>
        <time>2020-10-18T12:22:19Z</time>
      </trkpt>
      <trkpt lat="42.92253" lon="0.4478">
        <ele>1856.44</ele>
        <time>2020-10-18T12:22:45Z</time>
      </trkpt>
      <trkpt lat="42.92253" lon="0.4478">
        <ele>1856.92</ele>
        <time>2020-10-18T12:23:11Z</time>
      </trkpt>
      <trkpt lat="42.92259" lon="0.44776">
        <ele>1856.44</ele>
        <time>2020-10-18T12:23:24Z</time>
      </trkpt>
      <trkpt lat="42.92265" lon="0.44772">
        <ele>1856.92</ele>
        <time>2020-10-18T12:23:38Z</time>
      </trkpt>
      <trkpt lat="42.92266" lon="0.44772">
        <ele>1857.89</ele>
        <time>2020-10-18T12:23:40Z</time>
      </trkpt>
      <trkpt lat="42.92272" lon="0.44771">
        <ele>1858.37</ele>
        <time>2020-10-18T12:23:55Z</time>
      </trkpt>
      <trkpt lat="42.92278" lon="0.44769">
        <ele>1858.37</ele>
        <time>2020-10-18T12:24:08Z</time>
      </trkpt>
      <trkpt lat="42.92283" lon="0.44768">
        <ele>1859.81</ele>
        <time>2020-10-18T12:24:20Z</time>
      </trkpt>
      <trkpt lat="42.9229" lon="0.44763">
        <ele>1861.73</ele>
        <time>2020-10-18T12:24:36Z</time>
      </trkpt>
      <trkpt lat="42.92297" lon="0.44761">
        <ele>1863.17</ele>
        <time>2020-10-18T12:24:51Z</time>
      </trkpt>
      <trkpt lat="42.92301" lon="0.44761">
        <ele>1864.61</ele>
        <time>2020-10-18T12:25:04Z</time>
      </trkpt>
      <trkpt lat="42.92305" lon="0.44761">
        <ele>1865.09</ele>
        <time>2020-10-18T12:25:18Z</time>
      </trkpt>
      <trkpt lat="42.92307" lon="0.44758">
        <ele>1865.58</ele>
        <time>2020-10-18T12:25:31Z</time>
      </trkpt>
      <trkpt lat="42.92312" lon="0.44757">
        <ele>1867.5</ele>
        <time>2020-10-18T12:25:45Z</time>
      </trkpt>
      <trkpt lat="42.92315" lon="0.44757">
        <ele>1868.94</ele>
        <time>2020-10-18T12:25:58Z</time>
      </trkpt>
      <trkpt lat="42.9232" lon="0.44757">
        <ele>1870.86</ele>
        <time>2020-10-18T12:26:14Z</time>
      </trkpt>
      <trkpt lat="42.92326" lon="0.44751">
        <ele>1872.79</ele>
        <time>2020-10-18T12:26:30Z</time>
      </trkpt>
      <trkpt lat="42.92328" lon="0.4474">
        <ele>1873.75</ele>
        <time>2020-10-18T12:26:44Z</time>
      </trkpt>
      <trkpt lat="42.92332" lon="0.44733">
        <ele>1874.71</ele>
        <time>2020-10-18T12:26:56Z</time>
      </trkpt>
      <trkpt lat="42.92335" lon="0.4473">
        <ele>1874.71</ele>
        <time>2020-10-18T12:27:09Z</time>
      </trkpt>
      <trkpt lat="42.92341" lon="0.44728">
        <ele>1875.19</ele>
        <time>2020-10-18T12:27:25Z</time>
      </trkpt>
      <trkpt lat="42.92345" lon="0.44728">
        <ele>1876.63</ele>
        <time>2020-10-18T12:27:37Z</time>
      </trkpt>
      <trkpt lat="42.92351" lon="0.44731">
        <ele>1878.07</ele>
        <time>2020-10-18T12:27:49Z</time>
      </trkpt>
      <trkpt lat="42.92357" lon="0.44733">
        <ele>1879.03</ele>
        <time>2020-10-18T12:28:01Z</time>
      </trkpt>
      <trkpt lat="42.92365" lon="0.44733">
        <ele>1880</ele>
        <time>2020-10-18T12:28:15Z</time>
      </trkpt>
      <trkpt lat="42.92374" lon="0.44728">
        <ele>1880.48</ele>
        <time>2020-10-18T12:28:30Z</time>
      </trkpt>
      <trkpt lat="42.92376" lon="0.44726">
        <ele>1880.96</ele>
        <time>2020-10-18T12:28:35Z</time>
      </trkpt>
      <trkpt lat="42.92383" lon="0.4472">
        <ele>1881.92</ele>
        <time>2020-10-18T12:28:49Z</time>
      </trkpt>
      <trkpt lat="42.9239" lon="0.44718">
        <ele>1882.88</ele>
        <time>2020-10-18T12:29:01Z</time>
      </trkpt>
      <trkpt lat="42.92398" lon="0.44714">
        <ele>1884.32</ele>
        <time>2020-10-18T12:29:15Z</time>
      </trkpt>
      <trkpt lat="42.92405" lon="0.4471">
        <ele>1884.8</ele>
        <time>2020-10-18T12:29:27Z</time>
      </trkpt>
      <trkpt lat="42.92411" lon="0.44706">
        <ele>1886.24</ele>
        <time>2020-10-18T12:29:40Z</time>
      </trkpt>
      <trkpt lat="42.92414" lon="0.44706">
        <ele>1886.72</ele>
        <time>2020-10-18T12:29:54Z</time>
      </trkpt>
      <trkpt lat="42.92421" lon="0.44702">
        <ele>1889.13</ele>
        <time>2020-10-18T12:30:07Z</time>
      </trkpt>
      <trkpt lat="42.92428" lon="0.447">
        <ele>1889.61</ele>
        <time>2020-10-18T12:30:20Z</time>
      </trkpt>
      <trkpt lat="42.92433" lon="0.447">
        <ele>1890.57</ele>
        <time>2020-10-18T12:30:40Z</time>
      </trkpt>
      <trkpt lat="42.92438" lon="0.447">
        <ele>1892.01</ele>
        <time>2020-10-18T12:30:51Z</time>
      </trkpt>
      <trkpt lat="42.92442" lon="0.44699">
        <ele>1893.45</ele>
        <time>2020-10-18T12:31:01Z</time>
      </trkpt>
      <trkpt lat="42.92445" lon="0.44696">
        <ele>1894.9</ele>
        <time>2020-10-18T12:31:14Z</time>
      </trkpt>
      <trkpt lat="42.92446" lon="0.44695">
        <ele>1894.9</ele>
        <time>2020-10-18T12:31:38Z</time>
      </trkpt>
      <trkpt lat="42.92452" lon="0.44687">
        <ele>1896.34</ele>
        <time>2020-10-18T12:31:52Z</time>
      </trkpt>
      <trkpt lat="42.92456" lon="0.44685">
        <ele>1897.78</ele>
        <time>2020-10-18T12:32:04Z</time>
      </trkpt>
      <trkpt lat="42.9246" lon="0.44682">
        <ele>1899.22</ele>
        <time>2020-10-18T12:32:19Z</time>
      </trkpt>
      <trkpt lat="42.92462" lon="0.44681">
        <ele>1899.22</ele>
        <time>2020-10-18T12:32:48Z</time>
      </trkpt>
      <trkpt lat="42.92467" lon="0.44676">
        <ele>1901.14</ele>
        <time>2020-10-18T12:33:01Z</time>
      </trkpt>
      <trkpt lat="42.9247" lon="0.44674">
        <ele>1903.07</ele>
        <time>2020-10-18T12:33:18Z</time>
      </trkpt>
      <trkpt lat="42.92476" lon="0.44666">
        <ele>1904.03</ele>
        <time>2020-10-18T12:33:32Z</time>
      </trkpt>
      <trkpt lat="42.92482" lon="0.44657">
        <ele>1903.55</ele>
        <time>2020-10-18T12:33:45Z</time>
      </trkpt>
      <trkpt lat="42.92487" lon="0.4465">
        <ele>1901.63</ele>
        <time>2020-10-18T12:34:00Z</time>
      </trkpt>
      <trkpt lat="42.92493" lon="0.44643">
        <ele>1900.18</ele>
        <time>2020-10-18T12:34:14Z</time>
      </trkpt>
      <trkpt lat="42.92496" lon="0.44639">
        <ele>1899.22</ele>
        <time>2020-10-18T12:34:27Z</time>
      </trkpt>
      <trkpt lat="42.92501" lon="0.44634">
        <ele>1897.3</ele>
        <time>2020-10-18T12:34:42Z</time>
      </trkpt>
      <trkpt lat="42.92506" lon="0.44629">
        <ele>1895.86</ele>
        <time>2020-10-18T12:34:54Z</time>
      </trkpt>
      <trkpt lat="42.92512" lon="0.44621">
        <ele>1894.42</ele>
        <time>2020-10-18T12:35:06Z</time>
      </trkpt>
      <trkpt lat="42.92517" lon="0.44613">
        <ele>1893.45</ele>
        <time>2020-10-18T12:35:18Z</time>
      </trkpt>
      <trkpt lat="42.92522" lon="0.44609">
        <ele>1892.49</ele>
        <time>2020-10-18T12:35:35Z</time>
      </trkpt>
      <trkpt lat="42.92525" lon="0.44606">
        <ele>1892.01</ele>
        <time>2020-10-18T12:35:48Z</time>
      </trkpt>
      <trkpt lat="42.92529" lon="0.446">
        <ele>1891.05</ele>
        <time>2020-10-18T12:36:02Z</time>
      </trkpt>
      <trkpt lat="42.92532" lon="0.44593">
        <ele>1889.13</ele>
        <time>2020-10-18T12:36:17Z</time>
      </trkpt>
      <trkpt lat="42.92534" lon="0.44587">
        <ele>1888.17</ele>
        <time>2020-10-18T12:36:33Z</time>
      </trkpt>
      <trkpt lat="42.92539" lon="0.44583">
        <ele>1886.72</ele>
        <time>2020-10-18T12:36:46Z</time>
      </trkpt>
      <trkpt lat="42.92545" lon="0.44574">
        <ele>1884.32</ele>
        <time>2020-10-18T12:37:00Z</time>
      </trkpt>
      <trkpt lat="42.92547" lon="0.44568">
        <ele>1882.4</ele>
        <time>2020-10-18T12:37:13Z</time>
      </trkpt>
      <trkpt lat="42.92553" lon="0.44561">
        <ele>1881.44</ele>
        <time>2020-10-18T12:37:26Z</time>
      </trkpt>
      <trkpt lat="42.92557" lon="0.44557">
        <ele>1881.44</ele>
        <time>2020-10-18T12:37:39Z</time>
      </trkpt>
      <trkpt lat="42.92559" lon="0.44555">
        <ele>1881.44</ele>
        <time>2020-10-18T12:37:46Z</time>
      </trkpt>
      <trkpt lat="42.92564" lon="0.44549">
        <ele>1881.44</ele>
        <time>2020-10-18T12:37:59Z</time>
      </trkpt>
      <trkpt lat="42.92567" lon="0.44545">
        <ele>1882.4</ele>
        <time>2020-10-18T12:38:11Z</time>
      </trkpt>
      <trkpt lat="42.92569" lon="0.44541">
        <ele>1882.4</ele>
        <time>2020-10-18T12:38:16Z</time>
      </trkpt>
      <trkpt lat="42.92578" lon="0.44534">
        <ele>1882.4</ele>
        <time>2020-10-18T12:38:27Z</time>
      </trkpt>
      <trkpt lat="42.9258" lon="0.44531">
        <ele>1882.4</ele>
        <time>2020-10-18T12:38:31Z</time>
      </trkpt>
      <trkpt lat="42.92589" lon="0.44522">
        <ele>1883.36</ele>
        <time>2020-10-18T12:38:45Z</time>
      </trkpt>
      <trkpt lat="42.92594" lon="0.44516">
        <ele>1883.84</ele>
        <time>2020-10-18T12:38:56Z</time>
      </trkpt>
      <trkpt lat="42.92595" lon="0.44515">
        <ele>1883.84</ele>
        <time>2020-10-18T12:38:58Z</time>
      </trkpt>
      <trkpt lat="42.92597" lon="0.44513">
        <ele>1883.84</ele>
        <time>2020-10-18T12:39:00Z</time>
      </trkpt>
      <trkpt lat="42.92601" lon="0.44508">
        <ele>1883.84</ele>
        <time>2020-10-18T12:39:07Z</time>
      </trkpt>
      <trkpt lat="42.92604" lon="0.44504">
        <ele>1883.84</ele>
        <time>2020-10-18T12:39:12Z</time>
      </trkpt>
      <trkpt lat="42.92611" lon="0.44495">
        <ele>1884.8</ele>
        <time>2020-10-18T12:39:26Z</time>
      </trkpt>
      <trkpt lat="42.92615" lon="0.44486">
        <ele>1883.84</ele>
        <time>2020-10-18T12:39:35Z</time>
      </trkpt>
      <trkpt lat="42.92622" lon="0.44476">
        <ele>1882.88</ele>
        <time>2020-10-18T12:39:49Z</time>
      </trkpt>
      <trkpt lat="42.92627" lon="0.44468">
        <ele>1883.84</ele>
        <time>2020-10-18T12:40:03Z</time>
      </trkpt>
      <trkpt lat="42.92633" lon="0.44458">
        <ele>1883.84</ele>
        <time>2020-10-18T12:40:17Z</time>
      </trkpt>
      <trkpt lat="42.92637" lon="0.44451">
        <ele>1883.84</ele>
        <time>2020-10-18T12:40:29Z</time>
      </trkpt>
      <trkpt lat="42.9264" lon="0.44445">
        <ele>1883.84</ele>
        <time>2020-10-18T12:40:43Z</time>
      </trkpt>
      <trkpt lat="42.92644" lon="0.44437">
        <ele>1883.84</ele>
        <time>2020-10-18T12:40:58Z</time>
      </trkpt>
      <trkpt lat="42.92648" lon="0.44435">
        <ele>1884.32</ele>
        <time>2020-10-18T12:41:05Z</time>
      </trkpt>
      <trkpt lat="42.92655" lon="0.44424">
        <ele>1884.32</ele>
        <time>2020-10-18T12:41:20Z</time>
      </trkpt>
      <trkpt lat="42.92657" lon="0.44421">
        <ele>1884.8</ele>
        <time>2020-10-18T12:41:26Z</time>
      </trkpt>
      <trkpt lat="42.92664" lon="0.44414">
        <ele>1885.76</ele>
        <time>2020-10-18T12:41:42Z</time>
      </trkpt>
      <trkpt lat="42.92666" lon="0.44413">
        <ele>1885.76</ele>
        <time>2020-10-18T12:42:04Z</time>
      </trkpt>
      <trkpt lat="42.92672" lon="0.44404">
        <ele>1886.72</ele>
        <time>2020-10-18T12:42:23Z</time>
      </trkpt>
      <trkpt lat="42.92679" lon="0.44393">
        <ele>1885.28</ele>
        <time>2020-10-18T12:42:40Z</time>
      </trkpt>
      <trkpt lat="42.92682" lon="0.44382">
        <ele>1884.32</ele>
        <time>2020-10-18T12:42:56Z</time>
      </trkpt>
      <trkpt lat="42.92684" lon="0.44374">
        <ele>1882.4</ele>
        <time>2020-10-18T12:43:14Z</time>
      </trkpt>
      <trkpt lat="42.92687" lon="0.44362">
        <ele>1879.51</ele>
        <time>2020-10-18T12:43:31Z</time>
      </trkpt>
      <trkpt lat="42.9269" lon="0.44353">
        <ele>1878.55</ele>
        <time>2020-10-18T12:43:42Z</time>
      </trkpt>
      <trkpt lat="42.92694" lon="0.44337">
        <ele>1874.71</ele>
        <time>2020-10-18T12:44:03Z</time>
      </trkpt>
      <trkpt lat="42.92697" lon="0.4433">
        <ele>1872.79</ele>
        <time>2020-10-18T12:44:24Z</time>
      </trkpt>
      <trkpt lat="42.92697" lon="0.44321">
        <ele>1870.38</ele>
        <time>2020-10-18T12:44:41Z</time>
      </trkpt>
      <trkpt lat="42.92698" lon="0.44311">
        <ele>1867.02</ele>
        <time>2020-10-18T12:44:58Z</time>
      </trkpt>
      <trkpt lat="42.927" lon="0.443">
        <ele>1864.13</ele>
        <time>2020-10-18T12:45:15Z</time>
      </trkpt>
      <trkpt lat="42.92708" lon="0.44282">
        <ele>1861.25</ele>
        <time>2020-10-18T12:45:33Z</time>
      </trkpt>
      <trkpt lat="42.92711" lon="0.44278">
        <ele>1861.25</ele>
        <time>2020-10-18T12:45:36Z</time>
      </trkpt>
      <trkpt lat="42.92714" lon="0.44271">
        <ele>1862.69</ele>
        <time>2020-10-18T12:45:42Z</time>
      </trkpt>
      <trkpt lat="42.92718" lon="0.4426">
        <ele>1862.69</ele>
        <time>2020-10-18T12:45:51Z</time>
      </trkpt>
      <trkpt lat="42.92723" lon="0.44245">
        <ele>1863.65</ele>
        <time>2020-10-18T12:46:06Z</time>
      </trkpt>
      <trkpt lat="42.92726" lon="0.44239">
        <ele>1865.58</ele>
        <time>2020-10-18T12:46:14Z</time>
      </trkpt>
      <trkpt lat="42.92731" lon="0.4423">
        <ele>1866.06</ele>
        <time>2020-10-18T12:46:26Z</time>
      </trkpt>
      <trkpt lat="42.92732" lon="0.44224">
        <ele>1867.02</ele>
        <time>2020-10-18T12:46:36Z</time>
      </trkpt>
      <trkpt lat="42.92737" lon="0.44218">
        <ele>1867.5</ele>
        <time>2020-10-18T12:46:46Z</time>
      </trkpt>
      <trkpt lat="42.92744" lon="0.44211">
        <ele>1868.94</ele>
        <time>2020-10-18T12:46:58Z</time>
      </trkpt>
      <trkpt lat="42.92747" lon="0.44208">
        <ele>1868.46</ele>
        <time>2020-10-18T12:47:02Z</time>
      </trkpt>
      <trkpt lat="42.92754" lon="0.44196">
        <ele>1868.94</ele>
        <time>2020-10-18T12:47:13Z</time>
      </trkpt>
      <trkpt lat="42.92759" lon="0.44187">
        <ele>1868.94</ele>
        <time>2020-10-18T12:47:23Z</time>
      </trkpt>
      <trkpt lat="42.92766" lon="0.44175">
        <ele>1868.94</ele>
        <time>2020-10-18T12:47:36Z</time>
      </trkpt>
      <trkpt lat="42.92773" lon="0.44165">
        <ele>1868.94</ele>
        <time>2020-10-18T12:47:49Z</time>
      </trkpt>
      <trkpt lat="42.92775" lon="0.4416">
        <ele>1867.5</ele>
        <time>2020-10-18T12:47:54Z</time>
      </trkpt>
      <trkpt lat="42.92781" lon="0.44147">
        <ele>1865.58</ele>
        <time>2020-10-18T12:48:08Z</time>
      </trkpt>
      <trkpt lat="42.92783" lon="0.44143">
        <ele>1864.13</ele>
        <time>2020-10-18T12:48:14Z</time>
      </trkpt>
      <trkpt lat="42.92786" lon="0.44134">
        <ele>1863.17</ele>
        <time>2020-10-18T12:48:22Z</time>
      </trkpt>
      <trkpt lat="42.92791" lon="0.44121">
        <ele>1860.77</ele>
        <time>2020-10-18T12:48:37Z</time>
      </trkpt>
      <trkpt lat="42.92791" lon="0.44118">
        <ele>1859.81</ele>
        <time>2020-10-18T12:48:40Z</time>
      </trkpt>
      <trkpt lat="42.92796" lon="0.44104">
        <ele>1857.89</ele>
        <time>2020-10-18T12:48:54Z</time>
      </trkpt>
      <trkpt lat="42.928" lon="0.44091">
        <ele>1856.44</ele>
        <time>2020-10-18T12:49:08Z</time>
      </trkpt>
      <trkpt lat="42.92805" lon="0.44079">
        <ele>1854.52</ele>
        <time>2020-10-18T12:49:21Z</time>
      </trkpt>
      <trkpt lat="42.92811" lon="0.44068">
        <ele>1853.08</ele>
        <time>2020-10-18T12:49:33Z</time>
      </trkpt>
      <trkpt lat="42.92817" lon="0.44054">
        <ele>1851.64</ele>
        <time>2020-10-18T12:49:48Z</time>
      </trkpt>
      <trkpt lat="42.92824" lon="0.44039">
        <ele>1849.71</ele>
        <time>2020-10-18T12:50:03Z</time>
      </trkpt>
      <trkpt lat="42.92828" lon="0.44028">
        <ele>1849.23</ele>
        <time>2020-10-18T12:50:16Z</time>
      </trkpt>
      <trkpt lat="42.92831" lon="0.44025">
        <ele>1848.75</ele>
        <time>2020-10-18T12:50:30Z</time>
      </trkpt>
      <trkpt lat="42.92832" lon="0.44022">
        <ele>1848.27</ele>
        <time>2020-10-18T12:50:44Z</time>
      </trkpt>
      <trkpt lat="42.92836" lon="0.44016">
        <ele>1847.79</ele>
        <time>2020-10-18T12:51:01Z</time>
      </trkpt>
      <trkpt lat="42.92845" lon="0.44015">
        <ele>1844.91</ele>
        <time>2020-10-18T12:51:22Z</time>
      </trkpt>
      <trkpt lat="42.92852" lon="0.44012">
        <ele>1843.47</ele>
        <time>2020-10-18T12:51:42Z</time>
      </trkpt>
      <trkpt lat="42.92861" lon="0.44005">
        <ele>1842.5</ele>
        <time>2020-10-18T12:52:04Z</time>
      </trkpt>
      <trkpt lat="42.92867" lon="0.44001">
        <ele>1841.06</ele>
        <time>2020-10-18T12:52:23Z</time>
      </trkpt>
      <trkpt lat="42.92872" lon="0.44004">
        <ele>1838.18</ele>
        <time>2020-10-18T12:52:43Z</time>
      </trkpt>
      <trkpt lat="42.92876" lon="0.44002">
        <ele>1835.29</ele>
        <time>2020-10-18T12:53:00Z</time>
      </trkpt>
      <trkpt lat="42.92878" lon="0.44009">
        <ele>1831.93</ele>
        <time>2020-10-18T12:53:14Z</time>
      </trkpt>
      <trkpt lat="42.92881" lon="0.44021">
        <ele>1828.56</ele>
        <time>2020-10-18T12:53:32Z</time>
      </trkpt>
      <trkpt lat="42.9288" lon="0.44031">
        <ele>1826.16</ele>
        <time>2020-10-18T12:53:49Z</time>
      </trkpt>
      <trkpt lat="42.92883" lon="0.44037">
        <ele>1822.8</ele>
        <time>2020-10-18T12:54:02Z</time>
      </trkpt>
      <trkpt lat="42.92888" lon="0.44044">
        <ele>1820.39</ele>
        <time>2020-10-18T12:54:19Z</time>
      </trkpt>
      <trkpt lat="42.92894" lon="0.44052">
        <ele>1817.51</ele>
        <time>2020-10-18T12:54:30Z</time>
      </trkpt>
      <trkpt lat="42.92904" lon="0.44061">
        <ele>1814.63</ele>
        <time>2020-10-18T12:54:47Z</time>
      </trkpt>
      <trkpt lat="42.92905" lon="0.4407">
        <ele>1812.22</ele>
        <time>2020-10-18T12:55:01Z</time>
      </trkpt>
      <trkpt lat="42.92906" lon="0.44074">
        <ele>1810.78</ele>
        <time>2020-10-18T12:55:16Z</time>
      </trkpt>
      <trkpt lat="42.9291" lon="0.44084">
        <ele>1807.9</ele>
        <time>2020-10-18T12:55:31Z</time>
      </trkpt>
      <trkpt lat="42.92911" lon="0.44095">
        <ele>1805.01</ele>
        <time>2020-10-18T12:55:47Z</time>
      </trkpt>
      <trkpt lat="42.92912" lon="0.44105">
        <ele>1802.61</ele>
        <time>2020-10-18T12:56:02Z</time>
      </trkpt>
      <trkpt lat="42.92914" lon="0.4411">
        <ele>1800.69</ele>
        <time>2020-10-18T12:56:16Z</time>
      </trkpt>
      <trkpt lat="42.92914" lon="0.44116">
        <ele>1799.73</ele>
        <time>2020-10-18T12:56:30Z</time>
      </trkpt>
      <trkpt lat="42.92915" lon="0.44119">
        <ele>1798.28</ele>
        <time>2020-10-18T12:56:46Z</time>
      </trkpt>
      <trkpt lat="42.92921" lon="0.44118">
        <ele>1794.92</ele>
        <time>2020-10-18T12:57:01Z</time>
      </trkpt>
      <trkpt lat="42.92923" lon="0.44117">
        <ele>1793.96</ele>
        <time>2020-10-18T12:57:19Z</time>
      </trkpt>
      <trkpt lat="42.92925" lon="0.44117">
        <ele>1793.48</ele>
        <time>2020-10-18T12:57:38Z</time>
      </trkpt>
      <trkpt lat="42.92929" lon="0.44117">
        <ele>1792.52</ele>
        <time>2020-10-18T12:57:55Z</time>
      </trkpt>
      <trkpt lat="42.92931" lon="0.44118">
        <ele>1791.07</ele>
        <time>2020-10-18T12:58:14Z</time>
      </trkpt>
      <trkpt lat="42.92935" lon="0.44116">
        <ele>1789.15</ele>
        <time>2020-10-18T12:58:31Z</time>
      </trkpt>
      <trkpt lat="42.92937" lon="0.44116">
        <ele>1788.19</ele>
        <time>2020-10-18T12:58:45Z</time>
      </trkpt>
      <trkpt lat="42.92939" lon="0.44115">
        <ele>1786.75</ele>
        <time>2020-10-18T12:59:05Z</time>
      </trkpt>
      <trkpt lat="42.92943" lon="0.44116">
        <ele>1784.82</ele>
        <time>2020-10-18T12:59:19Z</time>
      </trkpt>
      <trkpt lat="42.92946" lon="0.44116">
        <ele>1782.9</ele>
        <time>2020-10-18T12:59:34Z</time>
      </trkpt>
      <trkpt lat="42.92947" lon="0.44114">
        <ele>1781.46</ele>
        <time>2020-10-18T12:59:49Z</time>
      </trkpt>
      <trkpt lat="42.9295" lon="0.44117">
        <ele>1780.5</ele>
        <time>2020-10-18T13:00:05Z</time>
      </trkpt>
      <trkpt lat="42.92953" lon="0.44116">
        <ele>1778.1</ele>
        <time>2020-10-18T13:00:21Z</time>
      </trkpt>
      <trkpt lat="42.92956" lon="0.44115">
        <ele>1776.65</ele>
        <time>2020-10-18T13:00:35Z</time>
      </trkpt>
      <trkpt lat="42.92958" lon="0.44113">
        <ele>1775.69</ele>
        <time>2020-10-18T13:00:49Z</time>
      </trkpt>
      <trkpt lat="42.92961" lon="0.44114">
        <ele>1774.73</ele>
        <time>2020-10-18T13:01:06Z</time>
      </trkpt>
      <trkpt lat="42.92966" lon="0.44116">
        <ele>1771.85</ele>
        <time>2020-10-18T13:01:19Z</time>
      </trkpt>
      <trkpt lat="42.92971" lon="0.44115">
        <ele>1768.96</ele>
        <time>2020-10-18T13:01:26Z</time>
      </trkpt>
      <trkpt lat="42.92979" lon="0.44112">
        <ele>1766.08</ele>
        <time>2020-10-18T13:01:36Z</time>
      </trkpt>
      <trkpt lat="42.92989" lon="0.44107">
        <ele>1762.23</ele>
        <time>2020-10-18T13:01:49Z</time>
      </trkpt>
      <trkpt lat="42.92998" lon="0.44103">
        <ele>1759.35</ele>
        <time>2020-10-18T13:02:03Z</time>
      </trkpt>
      <trkpt lat="42.93003" lon="0.44104">
        <ele>1757.43</ele>
        <time>2020-10-18T13:02:15Z</time>
      </trkpt>
      <trkpt lat="42.93006" lon="0.44105">
        <ele>1755.99</ele>
        <time>2020-10-18T13:02:22Z</time>
      </trkpt>
      <trkpt lat="42.93008" lon="0.44105">
        <ele>1755.02</ele>
        <time>2020-10-18T13:02:24Z</time>
      </trkpt>
      <trkpt lat="42.93017" lon="0.44103">
        <ele>1752.14</ele>
        <time>2020-10-18T13:02:39Z</time>
      </trkpt>
      <trkpt lat="42.93022" lon="0.44102">
        <ele>1750.22</ele>
        <time>2020-10-18T13:02:46Z</time>
      </trkpt>
      <trkpt lat="42.93029" lon="0.44103">
        <ele>1748.29</ele>
        <time>2020-10-18T13:03:00Z</time>
      </trkpt>
      <trkpt lat="42.93037" lon="0.44105">
        <ele>1744.93</ele>
        <time>2020-10-18T13:03:12Z</time>
      </trkpt>
      <trkpt lat="42.93038" lon="0.44104">
        <ele>1744.93</ele>
        <time>2020-10-18T13:03:13Z</time>
      </trkpt>
      <trkpt lat="42.93047" lon="0.44104">
        <ele>1742.53</ele>
        <time>2020-10-18T13:03:26Z</time>
      </trkpt>
      <trkpt lat="42.93055" lon="0.44106">
        <ele>1740.12</ele>
        <time>2020-10-18T13:03:37Z</time>
      </trkpt>
      <trkpt lat="42.93063" lon="0.44108">
        <ele>1738.2</ele>
        <time>2020-10-18T13:03:48Z</time>
      </trkpt>
      <trkpt lat="42.93066" lon="0.44106">
        <ele>1737.24</ele>
        <time>2020-10-18T13:04:00Z</time>
      </trkpt>
      <trkpt lat="42.93066" lon="0.44105">
        <ele>1737.24</ele>
        <time>2020-10-18T13:04:20Z</time>
      </trkpt>
      <trkpt lat="42.93072" lon="0.44106">
        <ele>1736.28</ele>
        <time>2020-10-18T13:04:33Z</time>
      </trkpt>
      <trkpt lat="42.93073" lon="0.44105">
        <ele>1736.28</ele>
        <time>2020-10-18T13:04:59Z</time>
      </trkpt>
      <trkpt lat="42.93072" lon="0.44106">
        <ele>1736.28</ele>
        <time>2020-10-18T13:05:21Z</time>
      </trkpt>
      <trkpt lat="42.93073" lon="0.44106">
        <ele>1735.8</ele>
        <time>2020-10-18T13:05:58Z</time>
      </trkpt>
      <trkpt lat="42.93073" lon="0.44108">
        <ele>1735.8</ele>
        <time>2020-10-18T13:06:34Z</time>
      </trkpt>
      <trkpt lat="42.93073" lon="0.44107">
        <ele>1735.8</ele>
        <time>2020-10-18T13:07:03Z</time>
      </trkpt>
      <trkpt lat="42.93072" lon="0.44106">
        <ele>1735.8</ele>
        <time>2020-10-18T13:07:24Z</time>
      </trkpt>
      <trkpt lat="42.93073" lon="0.44103">
        <ele>1735.8</ele>
        <time>2020-10-18T13:07:47Z</time>
      </trkpt>
      <trkpt lat="42.93078" lon="0.44102">
        <ele>1734.36</ele>
        <time>2020-10-18T13:07:58Z</time>
      </trkpt>
      <trkpt lat="42.93079" lon="0.441">
        <ele>1733.39</ele>
        <time>2020-10-18T13:08:02Z</time>
      </trkpt>
      <trkpt lat="42.93083" lon="0.44091">
        <ele>1730.99</ele>
        <time>2020-10-18T13:08:15Z</time>
      </trkpt>
      <trkpt lat="42.93086" lon="0.44081">
        <ele>1727.63</ele>
        <time>2020-10-18T13:08:29Z</time>
      </trkpt>
      <trkpt lat="42.93085" lon="0.44071">
        <ele>1725.7</ele>
        <time>2020-10-18T13:08:44Z</time>
      </trkpt>
      <trkpt lat="42.93086" lon="0.44069">
        <ele>1724.74</ele>
        <time>2020-10-18T13:08:48Z</time>
      </trkpt>
      <trkpt lat="42.93088" lon="0.44066">
        <ele>1723.78</ele>
        <time>2020-10-18T13:08:51Z</time>
      </trkpt>
      <trkpt lat="42.93095" lon="0.44057">
        <ele>1719.94</ele>
        <time>2020-10-18T13:09:04Z</time>
      </trkpt>
      <trkpt lat="42.93099" lon="0.44051">
        <ele>1717.53</ele>
        <time>2020-10-18T13:09:17Z</time>
      </trkpt>
      <trkpt lat="42.93102" lon="0.44043">
        <ele>1715.13</ele>
        <time>2020-10-18T13:09:29Z</time>
      </trkpt>
      <trkpt lat="42.93107" lon="0.44035">
        <ele>1712.25</ele>
        <time>2020-10-18T13:09:41Z</time>
      </trkpt>
      <trkpt lat="42.93109" lon="0.4403">
        <ele>1711.28</ele>
        <time>2020-10-18T13:09:48Z</time>
      </trkpt>
      <trkpt lat="42.93111" lon="0.44018">
        <ele>1708.88</ele>
        <time>2020-10-18T13:10:01Z</time>
      </trkpt>
      <trkpt lat="42.93113" lon="0.4401">
        <ele>1706.96</ele>
        <time>2020-10-18T13:10:08Z</time>
      </trkpt>
      <trkpt lat="42.93115" lon="0.43996">
        <ele>1704.55</ele>
        <time>2020-10-18T13:10:23Z</time>
      </trkpt>
      <trkpt lat="42.93116" lon="0.43993">
        <ele>1704.07</ele>
        <time>2020-10-18T13:10:26Z</time>
      </trkpt>
      <trkpt lat="42.93117" lon="0.43981">
        <ele>1702.15</ele>
        <time>2020-10-18T13:10:39Z</time>
      </trkpt>
      <trkpt lat="42.93118" lon="0.4397">
        <ele>1700.23</ele>
        <time>2020-10-18T13:10:51Z</time>
      </trkpt>
      <trkpt lat="42.93121" lon="0.43963">
        <ele>1696.86</ele>
        <time>2020-10-18T13:11:04Z</time>
      </trkpt>
      <trkpt lat="42.93122" lon="0.43956">
        <ele>1696.38</ele>
        <time>2020-10-18T13:11:16Z</time>
      </trkpt>
      <trkpt lat="42.93126" lon="0.43944">
        <ele>1693.98</ele>
        <time>2020-10-18T13:11:29Z</time>
      </trkpt>
      <trkpt lat="42.93129" lon="0.43934">
        <ele>1691.58</ele>
        <time>2020-10-18T13:11:40Z</time>
      </trkpt>
      <trkpt lat="42.93135" lon="0.4392">
        <ele>1688.69</ele>
        <time>2020-10-18T13:11:55Z</time>
      </trkpt>
      <trkpt lat="42.93135" lon="0.43919">
        <ele>1688.21</ele>
        <time>2020-10-18T13:11:56Z</time>
      </trkpt>
      <trkpt lat="42.93141" lon="0.43915">
        <ele>1687.25</ele>
        <time>2020-10-18T13:12:06Z</time>
      </trkpt>
      <trkpt lat="42.93151" lon="0.43916">
        <ele>1685.81</ele>
        <time>2020-10-18T13:12:19Z</time>
      </trkpt>
      <trkpt lat="42.93163" lon="0.43921">
        <ele>1684.85</ele>
        <time>2020-10-18T13:12:34Z</time>
      </trkpt>
      <trkpt lat="42.93174" lon="0.43927">
        <ele>1682.44</ele>
        <time>2020-10-18T13:12:49Z</time>
      </trkpt>
      <trkpt lat="42.93182" lon="0.43933">
        <ele>1680.04</ele>
        <time>2020-10-18T13:13:04Z</time>
      </trkpt>
      <trkpt lat="42.93185" lon="0.43934">
        <ele>1679.08</ele>
        <time>2020-10-18T13:13:18Z</time>
      </trkpt>
      <trkpt lat="42.93192" lon="0.43933">
        <ele>1677.64</ele>
        <time>2020-10-18T13:13:35Z</time>
      </trkpt>
      <trkpt lat="42.93202" lon="0.43933">
        <ele>1676.2</ele>
        <time>2020-10-18T13:13:48Z</time>
      </trkpt>
      <trkpt lat="42.93212" lon="0.43932">
        <ele>1674.27</ele>
        <time>2020-10-18T13:14:02Z</time>
      </trkpt>
      <trkpt lat="42.93221" lon="0.43929">
        <ele>1673.31</ele>
        <time>2020-10-18T13:14:16Z</time>
      </trkpt>
      <trkpt lat="42.93225" lon="0.43927">
        <ele>1672.35</ele>
        <time>2020-10-18T13:14:31Z</time>
      </trkpt>
      <trkpt lat="42.93231" lon="0.43922">
        <ele>1670.91</ele>
        <time>2020-10-18T13:14:45Z</time>
      </trkpt>
      <trkpt lat="42.93239" lon="0.43919">
        <ele>1667.54</ele>
        <time>2020-10-18T13:15:00Z</time>
      </trkpt>
      <trkpt lat="42.93244" lon="0.43917">
        <ele>1664.66</ele>
        <time>2020-10-18T13:15:13Z</time>
      </trkpt>
      <trkpt lat="42.93249" lon="0.43924">
        <ele>1662.74</ele>
        <time>2020-10-18T13:15:28Z</time>
      </trkpt>
      <trkpt lat="42.93255" lon="0.43924">
        <ele>1659.37</ele>
        <time>2020-10-18T13:15:39Z</time>
      </trkpt>
      <trkpt lat="42.93265" lon="0.43922">
        <ele>1656.01</ele>
        <time>2020-10-18T13:15:53Z</time>
      </trkpt>
      <trkpt lat="42.93272" lon="0.43926">
        <ele>1653.12</ele>
        <time>2020-10-18T13:16:07Z</time>
      </trkpt>
      <trkpt lat="42.93279" lon="0.43925">
        <ele>1649.28</ele>
        <time>2020-10-18T13:16:19Z</time>
      </trkpt>
      <trkpt lat="42.93289" lon="0.43922">
        <ele>1646.4</ele>
        <time>2020-10-18T13:16:33Z</time>
      </trkpt>
      <trkpt lat="42.93296" lon="0.43921">
        <ele>1643.03</ele>
        <time>2020-10-18T13:16:47Z</time>
      </trkpt>
      <trkpt lat="42.93302" lon="0.43925">
        <ele>1640.63</ele>
        <time>2020-10-18T13:17:01Z</time>
      </trkpt>
      <trkpt lat="42.93309" lon="0.43925">
        <ele>1637.26</ele>
        <time>2020-10-18T13:17:12Z</time>
      </trkpt>
      <trkpt lat="42.9331" lon="0.43925">
        <ele>1637.26</ele>
        <time>2020-10-18T13:17:13Z</time>
      </trkpt>
      <trkpt lat="42.93324" lon="0.43921">
        <ele>1634.38</ele>
        <time>2020-10-18T13:17:28Z</time>
      </trkpt>
      <trkpt lat="42.93332" lon="0.43918">
        <ele>1632.94</ele>
        <time>2020-10-18T13:17:37Z</time>
      </trkpt>
      <trkpt lat="42.93341" lon="0.43908">
        <ele>1630.53</ele>
        <time>2020-10-18T13:17:51Z</time>
      </trkpt>
      <trkpt lat="42.93353" lon="0.43906">
        <ele>1629.57</ele>
        <time>2020-10-18T13:18:06Z</time>
      </trkpt>
      <trkpt lat="42.93359" lon="0.43911">
        <ele>1627.65</ele>
        <time>2020-10-18T13:18:18Z</time>
      </trkpt>
      <trkpt lat="42.93365" lon="0.43922">
        <ele>1630.05</ele>
        <time>2020-10-18T13:18:32Z</time>
      </trkpt>
      <trkpt lat="42.93371" lon="0.43933">
        <ele>1631.01</ele>
        <time>2020-10-18T13:18:46Z</time>
      </trkpt>
      <trkpt lat="42.93379" lon="0.43936">
        <ele>1632.46</ele>
        <time>2020-10-18T13:18:59Z</time>
      </trkpt>
      <trkpt lat="42.93387" lon="0.43946">
        <ele>1632.46</ele>
        <time>2020-10-18T13:19:14Z</time>
      </trkpt>
      <trkpt lat="42.93387" lon="0.43947">
        <ele>1632.46</ele>
        <time>2020-10-18T13:19:15Z</time>
      </trkpt>
      <trkpt lat="42.93395" lon="0.43958">
        <ele>1632.94</ele>
        <time>2020-10-18T13:19:28Z</time>
      </trkpt>
      <trkpt lat="42.93399" lon="0.43967">
        <ele>1633.42</ele>
        <time>2020-10-18T13:19:37Z</time>
      </trkpt>
      <trkpt lat="42.93403" lon="0.43975">
        <ele>1633.42</ele>
        <time>2020-10-18T13:19:45Z</time>
      </trkpt>
      <trkpt lat="42.93405" lon="0.43981">
        <ele>1633.42</ele>
        <time>2020-10-18T13:19:51Z</time>
      </trkpt>
      <trkpt lat="42.9341" lon="0.43986">
        <ele>1633.42</ele>
        <time>2020-10-18T13:19:58Z</time>
      </trkpt>
      <trkpt lat="42.93411" lon="0.43988">
        <ele>1631.98</ele>
        <time>2020-10-18T13:20:00Z</time>
      </trkpt>
      <trkpt lat="42.93414" lon="0.43992">
        <ele>1631.98</ele>
        <time>2020-10-18T13:20:05Z</time>
      </trkpt>
      <trkpt lat="42.93422" lon="0.43996">
        <ele>1632.94</ele>
        <time>2020-10-18T13:20:19Z</time>
      </trkpt>
      <trkpt lat="42.93425" lon="0.44">
        <ele>1633.42</ele>
        <time>2020-10-18T13:20:32Z</time>
      </trkpt>
      <trkpt lat="42.93432" lon="0.44002">
        <ele>1633.42</ele>
        <time>2020-10-18T13:20:41Z</time>
      </trkpt>
      <trkpt lat="42.93445" lon="0.44008">
        <ele>1633.42</ele>
        <time>2020-10-18T13:20:55Z</time>
      </trkpt>
      <trkpt lat="42.93459" lon="0.44018">
        <ele>1632.94</ele>
        <time>2020-10-18T13:21:10Z</time>
      </trkpt>
      <trkpt lat="42.93469" lon="0.44035">
        <ele>1631.98</ele>
        <time>2020-10-18T13:21:25Z</time>
      </trkpt>
      <trkpt lat="42.93477" lon="0.4405">
        <ele>1631.49</ele>
        <time>2020-10-18T13:21:37Z</time>
      </trkpt>
      <trkpt lat="42.93493" lon="0.44064">
        <ele>1631.01</ele>
        <time>2020-10-18T13:21:53Z</time>
      </trkpt>
      <trkpt lat="42.93507" lon="0.4407">
        <ele>1631.01</ele>
        <time>2020-10-18T13:22:06Z</time>
      </trkpt>
      <trkpt lat="42.93518" lon="0.44083">
        <ele>1631.01</ele>
        <time>2020-10-18T13:22:20Z</time>
      </trkpt>
      <trkpt lat="42.93531" lon="0.44092">
        <ele>1631.01</ele>
        <time>2020-10-18T13:22:33Z</time>
      </trkpt>
      <trkpt lat="42.93533" lon="0.44093">
        <ele>1631.01</ele>
        <time>2020-10-18T13:22:36Z</time>
      </trkpt>
      <trkpt lat="42.93536" lon="0.44094">
        <ele>1631.01</ele>
        <time>2020-10-18T13:22:40Z</time>
      </trkpt>
      <trkpt lat="42.93552" lon="0.44095">
        <ele>1632.46</ele>
        <time>2020-10-18T13:22:54Z</time>
      </trkpt>
      <trkpt lat="42.9357" lon="0.44094">
        <ele>1632.94</ele>
        <time>2020-10-18T13:23:08Z</time>
      </trkpt>
      <trkpt lat="42.93587" lon="0.44087">
        <ele>1633.9</ele>
        <time>2020-10-18T13:23:23Z</time>
      </trkpt>
      <trkpt lat="42.93603" lon="0.44086">
        <ele>1633.9</ele>
        <time>2020-10-18T13:23:35Z</time>
      </trkpt>
      <trkpt lat="42.93619" lon="0.44078">
        <ele>1634.86</ele>
        <time>2020-10-18T13:23:49Z</time>
      </trkpt>
      <trkpt lat="42.93629" lon="0.44073">
        <ele>1634.86</ele>
        <time>2020-10-18T13:23:57Z</time>
      </trkpt>
      <trkpt lat="42.93645" lon="0.4406">
        <ele>1636.78</ele>
        <time>2020-10-18T13:24:13Z</time>
      </trkpt>
      <trkpt lat="42.93655" lon="0.44064">
        <ele>1637.74</ele>
        <time>2020-10-18T13:24:26Z</time>
      </trkpt>
      <trkpt lat="42.93655" lon="0.44071">
        <ele>1637.74</ele>
        <time>2020-10-18T13:24:29Z</time>
      </trkpt>
      <trkpt lat="42.93661" lon="0.44096">
        <ele>1638.7</ele>
        <time>2020-10-18T13:24:44Z</time>
      </trkpt>
      <trkpt lat="42.93666" lon="0.44103">
        <ele>1639.67</ele>
        <time>2020-10-18T13:24:51Z</time>
      </trkpt>
      <trkpt lat="42.93671" lon="0.44112">
        <ele>1639.67</ele>
        <time>2020-10-18T13:25:00Z</time>
      </trkpt>
      <trkpt lat="42.93677" lon="0.44127">
        <ele>1640.63</ele>
        <time>2020-10-18T13:25:11Z</time>
      </trkpt>
      <trkpt lat="42.93682" lon="0.44133">
        <ele>1641.11</ele>
        <time>2020-10-18T13:25:18Z</time>
      </trkpt>
      <trkpt lat="42.93687" lon="0.44139">
        <ele>1641.59</ele>
        <time>2020-10-18T13:25:23Z</time>
      </trkpt>
      <trkpt lat="42.93697" lon="0.44148">
        <ele>1642.07</ele>
        <time>2020-10-18T13:25:34Z</time>
      </trkpt>
      <trkpt lat="42.93708" lon="0.44154">
        <ele>1643.03</ele>
        <time>2020-10-18T13:25:43Z</time>
      </trkpt>
      <trkpt lat="42.93725" lon="0.4416">
        <ele>1643.99</ele>
        <time>2020-10-18T13:25:57Z</time>
      </trkpt>
      <trkpt lat="42.93743" lon="0.44156">
        <ele>1644.47</ele>
        <time>2020-10-18T13:26:11Z</time>
      </trkpt>
      <trkpt lat="42.93761" lon="0.44152">
        <ele>1644.95</ele>
        <time>2020-10-18T13:26:26Z</time>
      </trkpt>
      <trkpt lat="42.93777" lon="0.44148">
        <ele>1645.43</ele>
        <time>2020-10-18T13:26:40Z</time>
      </trkpt>
      <trkpt lat="42.93795" lon="0.44145">
        <ele>1645.91</ele>
        <time>2020-10-18T13:26:55Z</time>
      </trkpt>
      <trkpt lat="42.93814" lon="0.44143">
        <ele>1646.4</ele>
        <time>2020-10-18T13:27:11Z</time>
      </trkpt>
      <trkpt lat="42.93823" lon="0.44144">
        <ele>1646.4</ele>
        <time>2020-10-18T13:27:20Z</time>
      </trkpt>
      <trkpt lat="42.93838" lon="0.44157">
        <ele>1647.36</ele>
        <time>2020-10-18T13:27:36Z</time>
      </trkpt>
      <trkpt lat="42.9384" lon="0.4416">
        <ele>1647.84</ele>
        <time>2020-10-18T13:27:40Z</time>
      </trkpt>
      <trkpt lat="42.93849" lon="0.44179">
        <ele>1648.8</ele>
        <time>2020-10-18T13:27:56Z</time>
      </trkpt>
      <trkpt lat="42.9385" lon="0.44183">
        <ele>1648.8</ele>
        <time>2020-10-18T13:27:58Z</time>
      </trkpt>
      <trkpt lat="42.93848" lon="0.44198">
        <ele>1649.28</ele>
        <time>2020-10-18T13:28:07Z</time>
      </trkpt>
      <trkpt lat="42.93848" lon="0.44203">
        <ele>1649.28</ele>
        <time>2020-10-18T13:28:11Z</time>
      </trkpt>
      <trkpt lat="42.93849" lon="0.44212">
        <ele>1649.28</ele>
        <time>2020-10-18T13:28:17Z</time>
      </trkpt>
      <trkpt lat="42.93846" lon="0.44218">
        <ele>1649.76</ele>
        <time>2020-10-18T13:28:21Z</time>
      </trkpt>
      <trkpt lat="42.93847" lon="0.44225">
        <ele>1649.76</ele>
        <time>2020-10-18T13:28:26Z</time>
      </trkpt>
      <trkpt lat="42.93839" lon="0.44247">
        <ele>1650.24</ele>
        <time>2020-10-18T13:28:41Z</time>
      </trkpt>
      <trkpt lat="42.93834" lon="0.44262">
        <ele>1650.72</ele>
        <time>2020-10-18T13:28:53Z</time>
      </trkpt>
      <trkpt lat="42.93834" lon="0.44265">
        <ele>1650.72</ele>
        <time>2020-10-18T13:28:56Z</time>
      </trkpt>
      <trkpt lat="42.93828" lon="0.44283">
        <ele>1651.68</ele>
        <time>2020-10-18T13:29:10Z</time>
      </trkpt>
      <trkpt lat="42.93823" lon="0.44303">
        <ele>1651.68</ele>
        <time>2020-10-18T13:29:25Z</time>
      </trkpt>
      <trkpt lat="42.93815" lon="0.44317">
        <ele>1652.16</ele>
        <time>2020-10-18T13:29:41Z</time>
      </trkpt>
      <trkpt lat="42.93814" lon="0.44319">
        <ele>1652.16</ele>
        <time>2020-10-18T13:29:43Z</time>
      </trkpt>
      <trkpt lat="42.93809" lon="0.44328">
        <ele>1652.16</ele>
        <time>2020-10-18T13:29:52Z</time>
      </trkpt>
      <trkpt lat="42.93799" lon="0.44346">
        <ele>1653.12</ele>
        <time>2020-10-18T13:30:07Z</time>
      </trkpt>
      <trkpt lat="42.93798" lon="0.4435">
        <ele>1653.12</ele>
        <time>2020-10-18T13:30:10Z</time>
      </trkpt>
      <trkpt lat="42.93797" lon="0.44356">
        <ele>1653.6</ele>
        <time>2020-10-18T13:30:14Z</time>
      </trkpt>
      <trkpt lat="42.93795" lon="0.44365">
        <ele>1653.6</ele>
        <time>2020-10-18T13:30:20Z</time>
      </trkpt>
      <trkpt lat="42.93793" lon="0.4437">
        <ele>1653.6</ele>
        <time>2020-10-18T13:30:24Z</time>
      </trkpt>
      <trkpt lat="42.93792" lon="0.4438">
        <ele>1654.09</ele>
        <time>2020-10-18T13:30:32Z</time>
      </trkpt>
      <trkpt lat="42.93792" lon="0.4439">
        <ele>1654.09</ele>
        <time>2020-10-18T13:30:39Z</time>
      </trkpt>
      <trkpt lat="42.93792" lon="0.44397">
        <ele>1654.09</ele>
        <time>2020-10-18T13:30:44Z</time>
      </trkpt>
      <trkpt lat="42.93795" lon="0.44408">
        <ele>1655.05</ele>
        <time>2020-10-18T13:30:53Z</time>
      </trkpt>
      <trkpt lat="42.93794" lon="0.44425">
        <ele>1656.49</ele>
        <time>2020-10-18T13:31:06Z</time>
      </trkpt>
      <trkpt lat="42.93793" lon="0.44441">
        <ele>1656.97</ele>
        <time>2020-10-18T13:31:17Z</time>
      </trkpt>
      <trkpt lat="42.93795" lon="0.44461">
        <ele>1656.97</ele>
        <time>2020-10-18T13:31:32Z</time>
      </trkpt>
      <trkpt lat="42.93795" lon="0.44482">
        <ele>1657.93</ele>
        <time>2020-10-18T13:31:47Z</time>
      </trkpt>
      <trkpt lat="42.93797" lon="0.44495">
        <ele>1658.41</ele>
        <time>2020-10-18T13:31:57Z</time>
      </trkpt>
      <trkpt lat="42.93804" lon="0.44519">
        <ele>1658.89</ele>
        <time>2020-10-18T13:32:13Z</time>
      </trkpt>
      <trkpt lat="42.93806" lon="0.44524">
        <ele>1658.89</ele>
        <time>2020-10-18T13:32:17Z</time>
      </trkpt>
      <trkpt lat="42.93812" lon="0.44547">
        <ele>1660.33</ele>
        <time>2020-10-18T13:32:33Z</time>
      </trkpt>
      <trkpt lat="42.93818" lon="0.44568">
        <ele>1661.3</ele>
        <time>2020-10-18T13:32:49Z</time>
      </trkpt>
      <trkpt lat="42.93826" lon="0.44586">
        <ele>1662.74</ele>
        <time>2020-10-18T13:33:06Z</time>
      </trkpt>
      <trkpt lat="42.93828" lon="0.44593">
        <ele>1663.22</ele>
        <time>2020-10-18T13:33:11Z</time>
      </trkpt>
      <trkpt lat="42.93833" lon="0.4461">
        <ele>1664.66</ele>
        <time>2020-10-18T13:33:26Z</time>
      </trkpt>
      <trkpt lat="42.93833" lon="0.44611">
        <ele>1664.66</ele>
        <time>2020-10-18T13:33:27Z</time>
      </trkpt>
      <trkpt lat="42.93838" lon="0.44628">
        <ele>1665.62</ele>
        <time>2020-10-18T13:33:41Z</time>
      </trkpt>
      <trkpt lat="42.93843" lon="0.44645">
        <ele>1665.62</ele>
        <time>2020-10-18T13:33:56Z</time>
      </trkpt>
      <trkpt lat="42.9385" lon="0.44663">
        <ele>1666.1</ele>
        <time>2020-10-18T13:34:10Z</time>
      </trkpt>
      <trkpt lat="42.93853" lon="0.44671">
        <ele>1666.1</ele>
        <time>2020-10-18T13:34:15Z</time>
      </trkpt>
      <trkpt lat="42.93862" lon="0.44691">
        <ele>1666.58</ele>
        <time>2020-10-18T13:34:30Z</time>
      </trkpt>
      <trkpt lat="42.93867" lon="0.4471">
        <ele>1667.06</ele>
        <time>2020-10-18T13:34:43Z</time>
      </trkpt>
      <trkpt lat="42.93873" lon="0.44724">
        <ele>1668.02</ele>
        <time>2020-10-18T13:34:53Z</time>
      </trkpt>
      <trkpt lat="42.93881" lon="0.4474">
        <ele>1668.51</ele>
        <time>2020-10-18T13:35:09Z</time>
      </trkpt>
      <trkpt lat="42.93882" lon="0.44748">
        <ele>1669.47</ele>
        <time>2020-10-18T13:35:18Z</time>
      </trkpt>
      <trkpt lat="42.93883" lon="0.44749">
        <ele>1669.47</ele>
        <time>2020-10-18T13:35:19Z</time>
      </trkpt>
      <trkpt lat="42.93892" lon="0.44763">
        <ele>1670.43</ele>
        <time>2020-10-18T13:35:32Z</time>
      </trkpt>
      <trkpt lat="42.93904" lon="0.44776">
        <ele>1671.39</ele>
        <time>2020-10-18T13:35:46Z</time>
      </trkpt>
      <trkpt lat="42.93928" lon="0.44789">
        <ele>1672.35</ele>
        <time>2020-10-18T13:36:00Z</time>
      </trkpt>
      <trkpt lat="42.93943" lon="0.44803">
        <ele>1673.31</ele>
        <time>2020-10-18T13:36:14Z</time>
      </trkpt>
      <trkpt lat="42.93955" lon="0.44817">
        <ele>1673.79</ele>
        <time>2020-10-18T13:36:27Z</time>
      </trkpt>
      <trkpt lat="42.93965" lon="0.4483">
        <ele>1673.79</ele>
        <time>2020-10-18T13:36:37Z</time>
      </trkpt>
      <trkpt lat="42.93974" lon="0.44841">
        <ele>1674.27</ele>
        <time>2020-10-18T13:36:51Z</time>
      </trkpt>
      <trkpt lat="42.93983" lon="0.44851">
        <ele>1674.75</ele>
        <time>2020-10-18T13:37:02Z</time>
      </trkpt>
      <trkpt lat="42.93989" lon="0.44855">
        <ele>1674.75</ele>
        <time>2020-10-18T13:37:08Z</time>
      </trkpt>
      <trkpt lat="42.94006" lon="0.44868">
        <ele>1675.72</ele>
        <time>2020-10-18T13:37:24Z</time>
      </trkpt>
      <trkpt lat="42.94012" lon="0.4487">
        <ele>1676.68</ele>
        <time>2020-10-18T13:37:29Z</time>
      </trkpt>
      <trkpt lat="42.94032" lon="0.44876">
        <ele>1677.16</ele>
        <time>2020-10-18T13:37:46Z</time>
      </trkpt>
      <trkpt lat="42.94051" lon="0.4487">
        <ele>1678.12</ele>
        <time>2020-10-18T13:38:04Z</time>
      </trkpt>
      <trkpt lat="42.94065" lon="0.44865">
        <ele>1679.08</ele>
        <time>2020-10-18T13:38:18Z</time>
      </trkpt>
      <trkpt lat="42.94076" lon="0.44868">
        <ele>1679.56</ele>
        <time>2020-10-18T13:38:30Z</time>
      </trkpt>
      <trkpt lat="42.94086" lon="0.4488">
        <ele>1679.56</ele>
        <time>2020-10-18T13:38:45Z</time>
      </trkpt>
      <trkpt lat="42.94088" lon="0.44887">
        <ele>1679.56</ele>
        <time>2020-10-18T13:38:49Z</time>
      </trkpt>
      <trkpt lat="42.94085" lon="0.44917">
        <ele>1679.56</ele>
        <time>2020-10-18T13:39:06Z</time>
      </trkpt>
      <trkpt lat="42.94068" lon="0.44934">
        <ele>1678.6</ele>
        <time>2020-10-18T13:39:23Z</time>
      </trkpt>
      <trkpt lat="42.9406" lon="0.44938">
        <ele>1677.64</ele>
        <time>2020-10-18T13:39:31Z</time>
      </trkpt>
      <trkpt lat="42.94044" lon="0.44939">
        <ele>1677.16</ele>
        <time>2020-10-18T13:39:46Z</time>
      </trkpt>
      <trkpt lat="42.94029" lon="0.44947">
        <ele>1676.2</ele>
        <time>2020-10-18T13:40:00Z</time>
      </trkpt>
      <trkpt lat="42.94017" lon="0.44969">
        <ele>1675.72</ele>
        <time>2020-10-18T13:40:18Z</time>
      </trkpt>
      <trkpt lat="42.94011" lon="0.44994">
        <ele>1675.72</ele>
        <time>2020-10-18T13:40:35Z</time>
      </trkpt>
      <trkpt lat="42.94004" lon="0.45017">
        <ele>1675.23</ele>
        <time>2020-10-18T13:40:51Z</time>
      </trkpt>
      <trkpt lat="42.93999" lon="0.45043">
        <ele>1675.23</ele>
        <time>2020-10-18T13:41:09Z</time>
      </trkpt>
      <trkpt lat="42.94003" lon="0.45065">
        <ele>1674.27</ele>
        <time>2020-10-18T13:41:24Z</time>
      </trkpt>
      <trkpt lat="42.94" lon="0.45089">
        <ele>1673.31</ele>
        <time>2020-10-18T13:41:41Z</time>
      </trkpt>
      <trkpt lat="42.93989" lon="0.45111">
        <ele>1671.87</ele>
        <time>2020-10-18T13:41:59Z</time>
      </trkpt>
      <trkpt lat="42.93976" lon="0.45134">
        <ele>1670.91</ele>
        <time>2020-10-18T13:42:18Z</time>
      </trkpt>
      <trkpt lat="42.93967" lon="0.45158">
        <ele>1670.43</ele>
        <time>2020-10-18T13:42:35Z</time>
      </trkpt>
      <trkpt lat="42.93967" lon="0.45162">
        <ele>1669.95</ele>
        <time>2020-10-18T13:42:37Z</time>
      </trkpt>
      <trkpt lat="42.93972" lon="0.45177">
        <ele>1668.99</ele>
        <time>2020-10-18T13:42:48Z</time>
      </trkpt>
      <trkpt lat="42.93974" lon="0.45178">
        <ele>1668.51</ele>
        <time>2020-10-18T13:42:51Z</time>
      </trkpt>
      <trkpt lat="42.93983" lon="0.45186">
        <ele>1668.02</ele>
        <time>2020-10-18T13:43:01Z</time>
      </trkpt>
      <trkpt lat="42.93986" lon="0.45185">
        <ele>1668.02</ele>
        <time>2020-10-18T13:43:04Z</time>
      </trkpt>
      <trkpt lat="42.93992" lon="0.45188">
        <ele>1667.54</ele>
        <time>2020-10-18T13:43:09Z</time>
      </trkpt>
      <trkpt lat="42.94006" lon="0.45197">
        <ele>1667.06</ele>
        <time>2020-10-18T13:43:22Z</time>
      </trkpt>
      <trkpt lat="42.94012" lon="0.45203">
        <ele>1666.58</ele>
        <time>2020-10-18T13:43:35Z</time>
      </trkpt>
      <trkpt lat="42.94018" lon="0.45213">
        <ele>1666.1</ele>
        <time>2020-10-18T13:43:46Z</time>
      </trkpt>
      <trkpt lat="42.94022" lon="0.4522">
        <ele>1665.14</ele>
        <time>2020-10-18T13:43:53Z</time>
      </trkpt>
      <trkpt lat="42.94028" lon="0.45231">
        <ele>1665.14</ele>
        <time>2020-10-18T13:44:05Z</time>
      </trkpt>
      <trkpt lat="42.94035" lon="0.45242">
        <ele>1664.66</ele>
        <time>2020-10-18T13:44:16Z</time>
      </trkpt>
      <trkpt lat="42.94056" lon="0.45247">
        <ele>1663.7</ele>
        <time>2020-10-18T13:44:35Z</time>
      </trkpt>
      <trkpt lat="42.94069" lon="0.45247">
        <ele>1662.74</ele>
        <time>2020-10-18T13:44:48Z</time>
      </trkpt>
      <trkpt lat="42.94077" lon="0.45254">
        <ele>1662.26</ele>
        <time>2020-10-18T13:44:59Z</time>
      </trkpt>
      <trkpt lat="42.94077" lon="0.45265">
        <ele>1662.26</ele>
        <time>2020-10-18T13:45:10Z</time>
      </trkpt>
      <trkpt lat="42.94066" lon="0.45285">
        <ele>1660.81</ele>
        <time>2020-10-18T13:45:28Z</time>
      </trkpt>
      <trkpt lat="42.94067" lon="0.45289">
        <ele>1659.85</ele>
        <time>2020-10-18T13:45:33Z</time>
      </trkpt>
      <trkpt lat="42.94072" lon="0.45295">
        <ele>1658.41</ele>
        <time>2020-10-18T13:45:39Z</time>
      </trkpt>
      <trkpt lat="42.94076" lon="0.4531">
        <ele>1656.01</ele>
        <time>2020-10-18T13:45:49Z</time>
      </trkpt>
      <trkpt lat="42.9408" lon="0.45317">
        <ele>1654.57</ele>
        <time>2020-10-18T13:45:55Z</time>
      </trkpt>
      <trkpt lat="42.94092" lon="0.45324">
        <ele>1653.6</ele>
        <time>2020-10-18T13:46:09Z</time>
      </trkpt>
      <trkpt lat="42.94109" lon="0.45334">
        <ele>1651.68</ele>
        <time>2020-10-18T13:46:26Z</time>
      </trkpt>
      <trkpt lat="42.94115" lon="0.45336">
        <ele>1651.2</ele>
        <time>2020-10-18T13:46:33Z</time>
      </trkpt>
      <trkpt lat="42.94128" lon="0.45331">
        <ele>1649.76</ele>
        <time>2020-10-18T13:46:47Z</time>
      </trkpt>
      <trkpt lat="42.94141" lon="0.45331">
        <ele>1646.88</ele>
        <time>2020-10-18T13:47:01Z</time>
      </trkpt>
      <trkpt lat="42.94151" lon="0.45337">
        <ele>1643.99</ele>
        <time>2020-10-18T13:47:14Z</time>
      </trkpt>
      <trkpt lat="42.94161" lon="0.45341">
        <ele>1640.63</ele>
        <time>2020-10-18T13:47:26Z</time>
      </trkpt>
      <trkpt lat="42.94165" lon="0.4534">
        <ele>1639.67</ele>
        <time>2020-10-18T13:47:42Z</time>
      </trkpt>
      <trkpt lat="42.94166" lon="0.45341">
        <ele>1639.67</ele>
        <time>2020-10-18T13:47:44Z</time>
      </trkpt>
      <trkpt lat="42.94177" lon="0.45346">
        <ele>1636.78</ele>
        <time>2020-10-18T13:48:00Z</time>
      </trkpt>
      <trkpt lat="42.94177" lon="0.45346">
        <ele>1636.3</ele>
        <time>2020-10-18T13:48:01Z</time>
      </trkpt>
      <trkpt lat="42.94186" lon="0.45348">
        <ele>1632.94</ele>
        <time>2020-10-18T13:48:13Z</time>
      </trkpt>
      <trkpt lat="42.9419" lon="0.4535">
        <ele>1631.01</ele>
        <time>2020-10-18T13:48:26Z</time>
      </trkpt>
      <trkpt lat="42.94193" lon="0.45349">
        <ele>1630.53</ele>
        <time>2020-10-18T13:48:42Z</time>
      </trkpt>
      <trkpt lat="42.94199" lon="0.45354">
        <ele>1628.13</ele>
        <time>2020-10-18T13:48:51Z</time>
      </trkpt>
      <trkpt lat="42.94202" lon="0.45352">
        <ele>1627.65</ele>
        <time>2020-10-18T13:48:54Z</time>
      </trkpt>
      <trkpt lat="42.94206" lon="0.45346">
        <ele>1627.65</ele>
        <time>2020-10-18T13:49:00Z</time>
      </trkpt>
      <trkpt lat="42.94209" lon="0.45335">
        <ele>1626.69</ele>
        <time>2020-10-18T13:49:07Z</time>
      </trkpt>
      <trkpt lat="42.94215" lon="0.4532">
        <ele>1626.21</ele>
        <time>2020-10-18T13:49:18Z</time>
      </trkpt>
      <trkpt lat="42.94217" lon="0.4531">
        <ele>1625.73</ele>
        <time>2020-10-18T13:49:25Z</time>
      </trkpt>
      <trkpt lat="42.94219" lon="0.45292">
        <ele>1625.73</ele>
        <time>2020-10-18T13:49:34Z</time>
      </trkpt>
      <trkpt lat="42.9422" lon="0.45285">
        <ele>1625.73</ele>
        <time>2020-10-18T13:49:38Z</time>
      </trkpt>
      <trkpt lat="42.94224" lon="0.45258">
        <ele>1625.25</ele>
        <time>2020-10-18T13:49:55Z</time>
      </trkpt>
      <trkpt lat="42.94228" lon="0.45251">
        <ele>1625.25</ele>
        <time>2020-10-18T13:50:01Z</time>
      </trkpt>
      <trkpt lat="42.94246" lon="0.45238">
        <ele>1625.25</ele>
        <time>2020-10-18T13:50:17Z</time>
      </trkpt>
      <trkpt lat="42.94261" lon="0.45227">
        <ele>1624.28</ele>
        <time>2020-10-18T13:50:31Z</time>
      </trkpt>
      <trkpt lat="42.94277" lon="0.45219">
        <ele>1623.8</ele>
        <time>2020-10-18T13:50:44Z</time>
      </trkpt>
      <trkpt lat="42.94296" lon="0.45209">
        <ele>1622.36</ele>
        <time>2020-10-18T13:51:01Z</time>
      </trkpt>
      <trkpt lat="42.94307" lon="0.45198">
        <ele>1621.88</ele>
        <time>2020-10-18T13:51:14Z</time>
      </trkpt>
      <trkpt lat="42.94324" lon="0.45184">
        <ele>1620.92</ele>
        <time>2020-10-18T13:51:30Z</time>
      </trkpt>
      <trkpt lat="42.94341" lon="0.45171">
        <ele>1620.44</ele>
        <time>2020-10-18T13:51:47Z</time>
      </trkpt>
      <trkpt lat="42.94352" lon="0.45157">
        <ele>1619.96</ele>
        <time>2020-10-18T13:52:00Z</time>
      </trkpt>
      <trkpt lat="42.94361" lon="0.45154">
        <ele>1619.48</ele>
        <time>2020-10-18T13:52:08Z</time>
      </trkpt>
      <trkpt lat="42.94365" lon="0.45162">
        <ele>1618.52</ele>
        <time>2020-10-18T13:52:14Z</time>
      </trkpt>
      <trkpt lat="42.94363" lon="0.45167">
        <ele>1618.04</ele>
        <time>2020-10-18T13:52:18Z</time>
      </trkpt>
      <trkpt lat="42.94354" lon="0.45176">
        <ele>1617.56</ele>
        <time>2020-10-18T13:52:30Z</time>
      </trkpt>
      <trkpt lat="42.9435" lon="0.4518">
        <ele>1617.07</ele>
        <time>2020-10-18T13:52:34Z</time>
      </trkpt>
      <trkpt lat="42.94339" lon="0.45192">
        <ele>1616.59</ele>
        <time>2020-10-18T13:52:47Z</time>
      </trkpt>
      <trkpt lat="42.94332" lon="0.45197">
        <ele>1616.11</ele>
        <time>2020-10-18T13:52:53Z</time>
      </trkpt>
      <trkpt lat="42.94317" lon="0.45215">
        <ele>1615.15</ele>
        <time>2020-10-18T13:53:10Z</time>
      </trkpt>
      <trkpt lat="42.94306" lon="0.45241">
        <ele>1613.71</ele>
        <time>2020-10-18T13:53:27Z</time>
      </trkpt>
      <trkpt lat="42.94305" lon="0.45249">
        <ele>1613.23</ele>
        <time>2020-10-18T13:53:33Z</time>
      </trkpt>
      <trkpt lat="42.94302" lon="0.45255">
        <ele>1613.23</ele>
        <time>2020-10-18T13:53:38Z</time>
      </trkpt>
      <trkpt lat="42.94294" lon="0.45274">
        <ele>1611.79</ele>
        <time>2020-10-18T13:53:53Z</time>
      </trkpt>
      <trkpt lat="42.94286" lon="0.45295">
        <ele>1610.83</ele>
        <time>2020-10-18T13:54:10Z</time>
      </trkpt>
      <trkpt lat="42.94284" lon="0.45316">
        <ele>1609.38</ele>
        <time>2020-10-18T13:54:25Z</time>
      </trkpt>
      <trkpt lat="42.94282" lon="0.45322">
        <ele>1608.9</ele>
        <time>2020-10-18T13:54:33Z</time>
      </trkpt>
      <trkpt lat="42.94276" lon="0.45329">
        <ele>1608.42</ele>
        <time>2020-10-18T13:54:43Z</time>
      </trkpt>
      <trkpt lat="42.94281" lon="0.45331">
        <ele>1608.42</ele>
        <time>2020-10-18T13:54:48Z</time>
      </trkpt>
      <trkpt lat="42.94284" lon="0.45338">
        <ele>1606.98</ele>
        <time>2020-10-18T13:54:54Z</time>
      </trkpt>
      <trkpt lat="42.94289" lon="0.45355">
        <ele>1604.1</ele>
        <time>2020-10-18T13:55:09Z</time>
      </trkpt>
      <trkpt lat="42.94289" lon="0.45376">
        <ele>1602.17</ele>
        <time>2020-10-18T13:55:24Z</time>
      </trkpt>
      <trkpt lat="42.9429" lon="0.45383">
        <ele>1601.69</ele>
        <time>2020-10-18T13:55:29Z</time>
      </trkpt>
      <trkpt lat="42.94297" lon="0.45402">
        <ele>1601.21</ele>
        <time>2020-10-18T13:55:43Z</time>
      </trkpt>
      <trkpt lat="42.94305" lon="0.45419">
        <ele>1599.77</ele>
        <time>2020-10-18T13:55:58Z</time>
      </trkpt>
      <trkpt lat="42.94308" lon="0.45426">
        <ele>1599.77</ele>
        <time>2020-10-18T13:56:04Z</time>
      </trkpt>
      <trkpt lat="42.94311" lon="0.45431">
        <ele>1599.29</ele>
        <time>2020-10-18T13:56:09Z</time>
      </trkpt>
      <trkpt lat="42.94312" lon="0.45435">
        <ele>1599.29</ele>
        <time>2020-10-18T13:56:12Z</time>
      </trkpt>
      <trkpt lat="42.94316" lon="0.4544">
        <ele>1598.81</ele>
        <time>2020-10-18T13:56:17Z</time>
      </trkpt>
      <trkpt lat="42.94322" lon="0.45459">
        <ele>1597.85</ele>
        <time>2020-10-18T13:56:33Z</time>
      </trkpt>
      <trkpt lat="42.94326" lon="0.45475">
        <ele>1596.41</ele>
        <time>2020-10-18T13:56:49Z</time>
      </trkpt>
      <trkpt lat="42.94326" lon="0.4549">
        <ele>1594</ele>
        <time>2020-10-18T13:57:04Z</time>
      </trkpt>
      <trkpt lat="42.94328" lon="0.45501">
        <ele>1591.6</ele>
        <time>2020-10-18T13:57:18Z</time>
      </trkpt>
      <trkpt lat="42.9433" lon="0.45512">
        <ele>1588.24</ele>
        <time>2020-10-18T13:57:29Z</time>
      </trkpt>
      <trkpt lat="42.94335" lon="0.45519">
        <ele>1585.83</ele>
        <time>2020-10-18T13:57:36Z</time>
      </trkpt>
      <trkpt lat="42.94339" lon="0.45525">
        <ele>1585.35</ele>
        <time>2020-10-18T13:57:42Z</time>
      </trkpt>
      <trkpt lat="42.94344" lon="0.45535">
        <ele>1584.39</ele>
        <time>2020-10-18T13:57:56Z</time>
      </trkpt>
      <trkpt lat="42.94351" lon="0.45546">
        <ele>1583.91</ele>
        <time>2020-10-18T13:58:07Z</time>
      </trkpt>
      <trkpt lat="42.94353" lon="0.45554">
        <ele>1583.91</ele>
        <time>2020-10-18T13:58:13Z</time>
      </trkpt>
      <trkpt lat="42.94355" lon="0.45562">
        <ele>1583.91</ele>
        <time>2020-10-18T13:58:19Z</time>
      </trkpt>
      <trkpt lat="42.94359" lon="0.45578">
        <ele>1583.91</ele>
        <time>2020-10-18T13:58:32Z</time>
      </trkpt>
      <trkpt lat="42.94366" lon="0.45595">
        <ele>1583.43</ele>
        <time>2020-10-18T13:58:47Z</time>
      </trkpt>
      <trkpt lat="42.94378" lon="0.45606">
        <ele>1583.43</ele>
        <time>2020-10-18T13:59:02Z</time>
      </trkpt>
      <trkpt lat="42.94387" lon="0.45613">
        <ele>1583.43</ele>
        <time>2020-10-18T13:59:16Z</time>
      </trkpt>
      <trkpt lat="42.9439" lon="0.45617">
        <ele>1585.83</ele>
        <time>2020-10-18T13:59:29Z</time>
      </trkpt>
      <trkpt lat="42.94395" lon="0.45626">
        <ele>1585.83</ele>
        <time>2020-10-18T13:59:42Z</time>
      </trkpt>
      <trkpt lat="42.94396" lon="0.45629">
        <ele>1585.83</ele>
        <time>2020-10-18T13:59:44Z</time>
      </trkpt>
      <trkpt lat="42.94405" lon="0.4564">
        <ele>1585.83</ele>
        <time>2020-10-18T13:59:59Z</time>
      </trkpt>
      <trkpt lat="42.94406" lon="0.45645">
        <ele>1585.83</ele>
        <time>2020-10-18T14:00:03Z</time>
      </trkpt>
      <trkpt lat="42.94412" lon="0.45666">
        <ele>1585.83</ele>
        <time>2020-10-18T14:00:17Z</time>
      </trkpt>
      <trkpt lat="42.94414" lon="0.45671">
        <ele>1585.83</ele>
        <time>2020-10-18T14:00:21Z</time>
      </trkpt>
      <trkpt lat="42.94411" lon="0.45682">
        <ele>1585.83</ele>
        <time>2020-10-18T14:00:35Z</time>
      </trkpt>
      <trkpt lat="42.94401" lon="0.45686">
        <ele>1584.39</ele>
        <time>2020-10-18T14:00:58Z</time>
      </trkpt>
      <trkpt lat="42.94397" lon="0.45683">
        <ele>1584.39</ele>
        <time>2020-10-18T14:01:16Z</time>
      </trkpt>
      <trkpt lat="42.94398" lon="0.45684">
        <ele>1584.39</ele>
        <time>2020-10-18T14:01:19Z</time>
      </trkpt>
      <trkpt lat="42.94399" lon="0.45702">
        <ele>1584.39</ele>
        <time>2020-10-18T14:01:28Z</time>
      </trkpt>
      <trkpt lat="42.94399" lon="0.45703">
        <ele>1583.91</ele>
        <time>2020-10-18T14:01:40Z</time>
      </trkpt>
      <trkpt lat="42.94401" lon="0.45704">
        <ele>1583.91</ele>
        <time>2020-10-18T14:01:59Z</time>
      </trkpt>
    </trkseg>
  </trk>
</gpx>